[[{"header":{"parameterUnit":"m.s-1","parameterCategory":1,"la1":30.6,"la2":29.2853,"lo1":-89.7004,"lo2":-87.6739,"dy":0.0162,"dx":0.0183,"nx":112,"ny":82,"refTime":"2023-07-22T12:00:00:Z","depth":0,"parameterNumber":2,"parameterNumberName":"U-component_of_WINDS"},"data":[0.0,0.0,0.0,0.0,0.0,0.0,0.0,0.0,0.0,0.0,0.0,0.0,0.0,0.0,0.0,0.0,0.0,0.0,0.0,0.0,0.0,0.0,0.0,0.0,0.0,0.0,0.0,0.0,0.0,0.0,0.0,0.0,0.0,0.0,0.0,0.0,0.0,0.0,0.0,0.0,0.0,0.0,0.0,0.0,0.0,0.0,0.0,0.0,0.0,0.0,0.0,0.0,0.0,0.0,0.0,0.0,0.0,0.0,0.0,0.0,0.0,0.0,0.0,0.0,0.0,0.0,0.0,0.0,0.0,0.0,0.0,0.0,0.0,0.0,0.0,0.0,0.0,0.0,0.0,0.0,0.0,0.0,0.0,0.0,0.0,0.0,0.0,0.0,0.0,0.0,-3.0211,-3.0211,-3.0211,-3.0211,-3.0211,-3.0211,-3.0211,-3.0211,0.0,0.0,0.0,0.0,0.0,0.0,0.0,0.0,0.0,0.0,0.0,0.0,0.0,0.0,0.0,0.0,0.0,0.0,0.0,0.0,0.0,0.0,0.0,0.0,0.0,0.0,0.0,0.0,0.0,0.0,0.0,0.0,0.0,0.0,0.0,0.0,0.0,0.0,0.0,0.0,0.0,0.0,0.0,0.0,0.0,0.0,0.0,0.0,0.0,0.0,0.0,0.0,0.0,0.0,0.0,0.0,0.0,0.0,0.0,0.0,0.0,0.0,0.0,0.0,0.0,0.0,0.0,0.0,0.0,0.0,0.0,0.0,0.0,0.0,0.0,0.0,0.0,0.0,0.0,0.0,0.0,0.0,0.0,0.0,0.0,0.0,0.0,0.0,0.0,0.0,0.0,0.0,0.0,0.0,0.0,0.0,0.0,0.0,0.0,0.0,0.0,0.0,0.0,0.0,-3.0211,-3.0211,-3.0211,-3.0211,-3.0211,-3.0211,-3.0211,-3.0211,0.0,0.0,0.0,0.0,0.0,0.0,0.0,0.0,0.0,0.0,0.0,0.0,0.0,0.0,0.0,0.0,0.0,0.0,0.0,0.0,0.0,0.0,0.0,0.0,0.0,0.0,0.0,0.0,0.0,0.0,0.0,0.0,0.0,0.0,0.0,0.0,0.0,0.0,0.0,0.0,0.0,0.0,0.0,0.0,0.0,0.0,0.0,0.0,0.0,0.0,0.0,0.0,0.0,0.0,0.0,0.0,0.0,0.0,0.0,0.0,0.0,0.0,0.0,0.0,0.0,0.0,0.0,0.0,0.0,0.0,0.0,0.0,0.0,0.0,0.0,0.0,0.0,0.0,0.0,0.0,0.0,0.0,0.0,0.0,0.0,0.0,0.0,0.0,0.0,0.0,0.0,0.0,0.0,0.0,0.0,0.0,0.0,0.0,0.0,0.0,0.0,0.0,0.0,-3.0211,-3.0211,-3.0211,-3.0211,-3.0211,-3.0211,-3.0211,-3.0211,-3.0211,-3.0211,0.0,0.0,0.0,0.0,0.0,0.0,0.0,0.0,0.0,0.0,0.0,0.0,0.0,0.0,0.0,0.0,0.0,0.0,0.0,0.0,0.0,0.0,0.0,0.0,0.0,0.0,0.0,0.0,0.0,0.0,0.0,0.0,0.0,0.0,0.0,0.0,0.0,0.0,0.0,0.0,0.0,0.0,0.0,0.0,0.0,0.0,0.0,0.0,0.0,0.0,0.0,0.0,0.0,0.0,0.0,0.0,0.0,0.0,0.0,0.0,0.0,0.0,0.0,0.0,0.0,0.0,0.0,0.0,0.0,0.0,0.0,0.0,0.0,0.0,0.0,0.0,0.0,0.0,0.0,0.0,0.0,0.0,0.0,0.0,0.0,0.0,0.0,0.0,0.0,0.0,0.0,0.0,0.0,0.0,0.0,0.0,0.0,0.0,0.0,0.0,0.0,0.0,-3.0211,-3.0211,-3.0211,-3.0211,-3.0211,-3.0211,-3.0211,-3.0211,-3.0211,-3.0211,0.0,0.0,0.0,0.0,0.0,0.0,0.0,0.0,0.0,0.0,0.0,0.0,0.0,0.0,0.0,0.0,0.0,0.0,0.0,0.0,0.0,0.0,0.0,0.0,0.0,0.0,0.0,0.0,0.0,0.0,0.0,0.0,0.0,0.0,0.0,0.0,0.0,0.0,0.0,0.0,0.0,0.0,0.0,0.0,0.0,0.0,0.0,0.0,0.0,0.0,0.0,0.0,0.0,0.0,0.0,0.0,0.0,0.0,0.0,0.0,0.0,0.0,0.0,0.0,0.0,0.0,0.0,0.0,0.0,0.0,0.0,0.0,0.0,0.0,0.0,0.0,0.0,0.0,0.0,0.0,0.0,0.0,0.0,0.0,0.0,0.0,0.0,0.0,0.0,0.0,0.0,0.0,0.0,0.0,0.0,0.0,0.0,0.0,0.0,0.0,0.0,0.0,-3.0211,-3.0211,-3.0211,-3.0211,-3.0211,-3.0211,-3.0211,-3.0211,-3.0211,-3.0211,0.0,0.0,0.0,0.0,0.0,0.0,0.0,0.0,0.0,0.0,0.0,0.0,0.0,0.0,0.0,0.0,0.0,0.0,0.0,0.0,0.0,0.0,0.0,0.0,0.0,0.0,0.0,0.0,0.0,0.0,0.0,0.0,0.0,0.0,0.0,0.0,0.0,0.0,0.0,0.0,0.0,0.0,0.0,0.0,0.0,0.0,0.0,0.0,0.0,0.0,0.0,0.0,0.0,0.0,0.0,0.0,0.0,0.0,0.0,0.0,0.0,0.0,0.0,0.0,0.0,0.0,0.0,0.0,0.0,0.0,0.0,0.0,0.0,0.0,0.0,0.0,0.0,0.0,0.0,0.0,0.0,0.0,0.0,0.0,0.0,0.0,0.0,0.0,0.0,0.0,0.0,0.0,0.0,0.0,0.0,0.0,0.0,0.0,0.0,0.0,0.0,0.0,-3.0211,-3.0211,0.0,-3.0211,-3.0211,-3.0211,-3.0211,-3.0211,-3.0211,0.0,0.0,0.0,0.0,0.0,0.0,0.0,0.0,0.0,0.0,0.0,0.0,0.0,0.0,0.0,0.0,0.0,0.0,0.0,0.0,0.0,0.0,0.0,0.0,0.0,0.0,0.0,0.0,0.0,0.0,0.0,0.0,0.0,0.0,0.0,0.0,0.0,0.0,0.0,0.0,0.0,0.0,0.0,0.0,0.0,0.0,0.0,0.0,0.0,0.0,0.0,0.0,0.0,0.0,0.0,0.0,0.0,0.0,0.0,0.0,0.0,0.0,0.0,0.0,0.0,0.0,0.0,0.0,0.0,0.0,0.0,0.0,0.0,0.0,0.0,0.0,0.0,0.0,0.0,0.0,0.0,0.0,0.0,0.0,0.0,0.0,0.0,0.0,0.0,0.0,0.0,0.0,0.0,0.0,0.0,0.0,0.0,0.0,0.0,0.0,0.0,0.0,-3.0211,-3.0211,-3.0211,0.0,-3.0211,-3.0211,-3.0211,-3.0211,-3.0211,-3.0211,0.0,0.0,0.0,0.0,0.0,0.0,0.0,0.0,0.0,0.0,0.0,0.0,0.0,0.0,0.0,0.0,0.0,0.0,0.0,0.0,0.0,0.0,0.0,0.0,0.0,0.0,0.0,0.0,0.0,0.0,0.0,0.0,0.0,0.0,0.0,0.0,0.0,0.0,0.0,0.0,0.0,0.0,0.0,0.0,0.0,0.0,0.0,0.0,0.0,0.0,0.0,0.0,0.0,0.0,0.0,0.0,0.0,0.0,0.0,0.0,0.0,0.0,0.0,0.0,0.0,0.0,0.0,0.0,0.0,0.0,0.0,0.0,0.0,0.0,0.0,0.0,0.0,0.0,0.0,0.0,0.0,0.0,0.0,0.0,0.0,0.0,0.0,0.0,0.0,0.0,0.0,0.0,0.0,0.0,0.0,0.0,0.0,0.0,0.0,0.0,0.0,0.0,-3.0211,-3.0211,-3.0211,-3.0211,-3.0211,-3.0211,-3.0211,-3.0211,-3.0211,0.0,0.0,0.0,0.0,0.0,0.0,0.0,0.0,0.0,0.0,0.0,0.0,0.0,0.0,0.0,0.0,0.0,0.0,0.0,0.0,0.0,0.0,0.0,0.0,0.0,0.0,0.0,0.0,0.0,0.0,0.0,0.0,0.0,0.0,0.0,0.0,0.0,0.0,0.0,0.0,0.0,0.0,0.0,0.0,0.0,0.0,0.0,0.0,0.0,0.0,0.0,0.0,0.0,0.0,0.0,0.0,0.0,0.0,0.0,0.0,0.0,0.0,0.0,0.0,0.0,0.0,0.0,0.0,0.0,0.0,0.0,0.0,0.0,0.0,0.0,0.0,0.0,0.0,0.0,0.0,0.0,0.0,0.0,0.0,0.0,0.0,0.0,0.0,0.0,0.0,0.0,0.0,0.0,0.0,0.0,0.0,0.0,0.0,0.0,0.0,0.0,0.0,0.0,-3.0211,-3.0211,-3.0211,-3.0211,-3.0211,-3.0211,-3.0211,-3.0211,-3.0211,-3.0211,0.0,0.0,0.0,0.0,0.0,0.0,0.0,0.0,0.0,0.0,0.0,0.0,0.0,0.0,0.0,0.0,0.0,0.0,0.0,0.0,0.0,0.0,0.0,0.0,0.0,0.0,0.0,0.0,0.0,0.0,0.0,0.0,0.0,0.0,0.0,0.0,0.0,0.0,0.0,0.0,0.0,0.0,0.0,0.0,0.0,0.0,0.0,0.0,0.0,0.0,0.0,0.0,0.0,0.0,0.0,0.0,0.0,0.0,0.0,0.0,0.0,0.0,0.0,0.0,0.0,0.0,0.0,0.0,0.0,0.0,0.0,0.0,0.0,0.0,0.0,0.0,0.0,0.0,0.0,0.0,0.0,0.0,0.0,0.0,0.0,0.0,0.0,0.0,0.0,0.0,0.0,0.0,0.0,0.0,0.0,0.0,0.0,0.0,0.0,0.0,0.0,0.0,-3.0211,-3.0211,-3.0211,-3.0211,-3.0211,-3.0211,-3.0211,-3.0211,-3.0211,-3.0211,0.0,0.0,0.0,0.0,0.0,0.0,0.0,0.0,0.0,0.0,0.0,0.0,0.0,0.0,0.0,0.0,0.0,0.0,0.0,0.0,0.0,0.0,0.0,0.0,0.0,0.0,0.0,0.0,0.0,0.0,0.0,0.0,0.0,0.0,0.0,0.0,0.0,0.0,0.0,0.0,0.0,0.0,0.0,0.0,0.0,0.0,0.0,0.0,0.0,0.0,0.0,0.0,0.0,0.0,0.0,0.0,0.0,0.0,0.0,0.0,0.0,0.0,0.0,0.0,0.0,0.0,0.0,0.0,0.0,0.0,0.0,0.0,0.0,0.0,0.0,0.0,0.0,0.0,0.0,0.0,0.0,0.0,0.0,0.0,0.0,0.0,0.0,0.0,0.0,0.0,0.0,0.0,0.0,0.0,0.0,0.0,0.0,0.0,0.0,0.0,0.0,0.0,-3.0211,-3.0211,-3.0211,-3.0211,-3.0211,-3.0211,-3.0211,-3.0211,-3.0211,-3.0211,0.0,0.0,0.0,0.0,0.0,0.0,0.0,0.0,0.0,0.0,0.0,0.0,0.0,0.0,0.0,0.0,0.0,0.0,0.0,0.0,0.0,0.0,0.0,0.0,0.0,0.0,0.0,0.0,0.0,0.0,0.0,0.0,0.0,0.0,0.0,0.0,0.0,0.0,0.0,0.0,0.0,0.0,0.0,0.0,0.0,0.0,0.0,0.0,0.0,0.0,0.0,0.0,0.0,0.0,0.0,0.0,0.0,0.0,0.0,0.0,-3.0404,0.0,0.0,0.0,0.0,0.0,0.0,0.0,0.0,0.0,0.0,0.0,0.0,0.0,0.0,0.0,0.0,0.0,0.0,0.0,0.0,0.0,0.0,0.0,0.0,0.0,0.0,0.0,0.0,0.0,0.0,0.0,0.0,0.0,0.0,0.0,0.0,0.0,0.0,0.0,0.0,0.0,-3.0211,-3.0211,-3.0211,-3.0211,-3.0211,-3.0211,-3.0211,-3.0211,-3.0211,-3.0211,-3.0211,0.0,0.0,0.0,0.0,0.0,0.0,0.0,0.0,0.0,0.0,0.0,0.0,0.0,0.0,0.0,0.0,0.0,0.0,0.0,0.0,0.0,0.0,0.0,0.0,0.0,0.0,0.0,0.0,0.0,0.0,0.0,0.0,0.0,0.0,0.0,0.0,0.0,0.0,0.0,0.0,0.0,0.0,0.0,0.0,0.0,0.0,0.0,0.0,0.0,0.0,0.0,0.0,0.0,0.0,0.0,0.0,0.0,0.0,0.0,0.0,-3.0404,0.0,0.0,0.0,0.0,0.0,0.0,0.0,0.0,0.0,0.0,0.0,0.0,0.0,0.0,0.0,0.0,0.0,0.0,0.0,0.0,0.0,0.0,0.0,0.0,0.0,0.0,0.0,0.0,0.0,0.0,0.0,0.0,0.0,0.0,0.0,0.0,0.0,0.0,0.0,0.0,-3.1408,-3.1408,-3.1255,-3.0873,-3.0815,-3.0663,-3.0249,-3.0211,-3.0211,-3.0211,-3.0211,0.0,0.0,0.0,0.0,0.0,0.0,0.0,0.0,0.0,0.0,0.0,0.0,0.0,0.0,0.0,0.0,0.0,0.0,0.0,0.0,0.0,0.0,0.0,0.0,0.0,0.0,0.0,0.0,0.0,0.0,0.0,0.0,0.0,0.0,0.0,0.0,0.0,0.0,0.0,0.0,0.0,0.0,0.0,0.0,0.0,0.0,0.0,0.0,0.0,0.0,0.0,0.0,0.0,-3.2891,-3.2891,-3.2891,-3.2904,-3.2904,-3.282,-3.1418,-3.0828,-3.0809,-3.0674,0.0,0.0,0.0,0.0,0.0,0.0,0.0,0.0,0.0,0.0,0.0,0.0,0.0,0.0,0.0,0.0,0.0,0.0,0.0,0.0,0.0,0.0,0.0,0.0,-3.0368,-3.0423,0.0,0.0,0.0,0.0,0.0,0.0,0.0,0.0,0.0,0.0,0.0,0.0,-3.2699,-3.2699,-3.2451,-3.179,-3.1713,-3.1369,-3.0491,-3.0433,-3.0357,-3.0211,-3.0211,-3.0211,0.0,0.0,0.0,0.0,0.0,0.0,0.0,0.0,0.0,0.0,0.0,0.0,0.0,0.0,0.0,0.0,0.0,0.0,0.0,0.0,0.0,0.0,0.0,0.0,0.0,0.0,0.0,0.0,0.0,0.0,0.0,0.0,-3.3069,-3.3063,0.0,0.0,0.0,0.0,0.0,0.0,0.0,0.0,0.0,0.0,0.0,0.0,0.0,-3.302,-3.3004,-3.2935,-3.2917,-3.2891,-3.2891,-3.2891,-3.291,-3.2897,-3.2903,-3.2878,-3.2594,0.0,-3.2427,-3.1737,0.0,0.0,0.0,0.0,0.0,0.0,0.0,0.0,0.0,0.0,0.0,0.0,0.0,0.0,0.0,0.0,0.0,0.0,0.0,0.0,0.0,0.0,-3.0286,-3.0227,-3.0786,-3.1338,0.0,-3.072,-3.0414,-3.1178,-3.1331,0.0,0.0,0.0,0.0,0.0,0.0,0.0,-3.2699,-3.2699,-3.2661,-3.2546,-3.2546,-3.2203,-3.1408,-3.1331,-3.1006,-3.0249,-3.0211,-3.0211,-3.0211,-3.0211,0.0,0.0,0.0,0.0,0.0,0.0,0.0,0.0,0.0,0.0,0.0,0.0,0.0,0.0,0.0,0.0,0.0,0.0,0.0,0.0,0.0,0.0,0.0,0.0,0.0,0.0,0.0,0.0,0.0,-3.3161,-3.3409,-3.3398,-3.3397,-3.3391,0.0,0.0,0.0,0.0,0.0,0.0,0.0,0.0,0.0,-3.4513,-3.4434,-3.4411,-3.4411,-3.4379,-3.4365,-3.4365,-3.4365,-3.4365,-3.4365,-3.4312,-3.4285,-3.4237,-3.422,-3.4171,-3.406,-3.2795,-3.2279,-3.2241,0.0,0.0,0.0,0.0,-3.1712,-3.1712,-3.1744,-3.1456,0.0,-3.1065,0.0,0.0,0.0,0.0,0.0,0.0,0.0,0.0,0.0,0.0,-3.1708,-3.1675,-3.1926,-3.2164,-3.2164,-3.1859,-3.1725,0.0,-3.2164,-3.2432,-3.3299,0.0,0.0,0.0,0.0,-3.4113,-3.4113,-3.4113,-3.3922,-3.349,-3.3433,-3.3089,-3.2241,-3.1725,-3.1274,-3.0892,-3.0452,-3.0211,-3.0211,-3.0211,-3.0211,0.0,0.0,0.0,0.0,0.0,0.0,0.0,0.0,0.0,0.0,0.0,0.0,0.0,0.0,0.0,0.0,0.0,0.0,0.0,0.0,0.0,0.0,0.0,0.0,0.0,0.0,0.0,0.0,-3.3915,-3.4079,-3.4062,-3.4076,-3.4064,0.0,0.0,0.0,0.0,0.0,0.0,-3.566,-3.5648,-3.5689,-3.5906,-3.5849,-3.5926,-3.6135,-3.6135,-3.6135,-3.6135,-3.6135,-3.6135,-3.6135,-3.608,-3.5998,-3.596,-3.5729,-3.5594,-3.54,-3.3781,-3.3113,-3.3075,-3.2864,-3.2769,-3.2769,-3.2783,-3.2802,-3.2802,-3.2797,-3.2415,-3.1917,-3.1917,-3.1514,-3.1032,-3.1049,0.0,0.0,0.0,0.0,-3.2084,-3.2716,-3.2847,-3.2797,-3.2782,-3.2913,-3.3024,-3.3024,-3.3196,-3.3272,0.0,-3.3024,-3.3291,-3.4159,0.0,0.0,0.0,0.0,-3.5209,-3.5209,-3.5209,-3.498,-3.4369,-3.4312,-3.3968,-3.31,-3.2432,-3.1981,-3.1744,-3.0968,-3.051,-3.0529,-3.0326,-3.0211,-3.0211,0.0,0.0,0.0,0.0,0.0,0.0,0.0,0.0,0.0,0.0,0.0,0.0,0.0,0.0,0.0,0.0,0.0,0.0,0.0,0.0,0.0,0.0,0.0,0.0,0.0,0.0,0.0,0.0,0.0,-3.5878,-3.5868,0.0,0.0,0.0,0.0,-3.5749,-3.5739,-3.5722,-3.5693,-3.564,-3.5956,-3.6723,-3.6749,-3.71,-3.7873,-3.7873,-3.7873,-3.7873,-3.7873,-3.7873,-3.7873,-3.7797,-3.7771,-3.7723,-3.6886,-3.6493,-3.629,-3.4625,-3.3937,-3.3861,-3.3032,-3.2707,-3.2707,-3.279,-3.2804,-3.2804,-3.2809,-3.2759,-3.2746,-3.2746,-3.2755,-3.2769,-3.2769,-3.2776,0.0,0.0,-3.2839,-3.2819,-3.2807,-3.2804,-3.279,-3.2726,-3.3337,-3.3937,-3.3937,-3.4522,-3.4846,0.0,-3.3937,-3.4178,-3.4999,0.0,-3.5152,-3.519,-3.5209,-3.5209,-3.5209,-3.5209,-3.519,-3.5152,-3.5152,-3.4808,-3.3995,-3.3899,-3.3528,-3.2699,-3.1821,-3.1369,-3.1427,-3.0643,-3.0211,-3.0211,-3.0211,0.0,0.0,0.0,0.0,0.0,0.0,0.0,0.0,0.0,0.0,0.0,0.0,0.0,0.0,0.0,0.0,0.0,0.0,0.0,0.0,0.0,0.0,0.0,0.0,0.0,0.0,0.0,0.0,-3.6005,-3.5994,0.0,-3.6699,-3.669,-3.6887,-3.743,-3.7429,-3.7385,-3.7307,-3.7249,-3.7308,-3.7558,-3.7562,-3.7714,-3.8007,-3.8007,-3.8007,-3.8007,-3.8007,-3.8007,-3.8007,-3.7932,-3.7905,-3.7877,-3.7529,-3.7334,-3.7234,-3.6623,-3.5744,-3.4732,-3.4418,-3.4304,-3.4304,-3.4339,-3.4346,-3.4327,-3.4343,-3.4003,-3.3489,-3.2962,-3.283,-3.2844,-3.2838,-3.2838,-3.2953,-3.3522,-3.3647,-3.3726,-3.4259,-3.4389,-3.4346,-3.4312,-3.456,-3.477,-3.477,-3.4999,-3.5114,-3.4827,-3.477,-3.4866,-3.5152,-3.5209,-3.5209,-3.5209,-3.5209,-3.5209,-3.5209,-3.5209,-3.5209,-3.5209,-3.5209,-3.5076,-3.4808,-3.4292,-3.3872,-3.3566,-3.2718,-3.2012,-3.1522,-3.1197,-3.0777,-3.0211,-3.0211,-3.0211,0.0,0.0,0.0,0.0,0.0,0.0,0.0,0.0,0.0,0.0,0.0,0.0,0.0,0.0,0.0,0.0,0.0,0.0,0.0,0.0,0.0,0.0,0.0,0.0,0.0,0.0,-3.611,-3.6405,-3.6428,-3.6718,-3.7523,-3.7555,-3.7762,-3.8316,-3.8297,-3.8244,-3.82,-3.8132,-3.8202,-3.8423,-3.8433,-3.8565,-3.8834,-3.8834,-3.8834,-3.8834,-3.8834,-3.8834,-3.8834,-3.8793,-3.8773,-3.8764,-3.8413,-3.8238,-3.814,-3.7853,-3.708,-3.605,-3.605,-3.5878,-3.5641,-3.5641,-3.545,-3.5209,-3.5209,-3.4854,-3.4332,-3.3822,-3.3645,-3.3645,-3.364,-3.364,-3.3755,-3.4342,-3.4466,-3.4569,-3.5116,-3.5226,-3.5209,-3.5209,-3.5209,-3.5209,-3.5209,-3.5209,-3.5209,-3.5209,-3.5209,-3.5209,-3.5209,-3.5209,-3.5209,-3.5209,-3.5209,-3.5209,-3.5209,-3.5209,-3.5209,-3.5209,-3.5209,-3.5209,-3.5209,-3.4713,-3.4407,-3.4407,-3.3605,-3.2898,-3.2363,-3.1809,-3.1236,-3.0643,-3.0338,-3.0211,-3.0211,0.0,0.0,0.0,0.0,0.0,0.0,0.0,0.0,0.0,0.0,0.0,0.0,0.0,0.0,0.0,0.0,0.0,0.0,0.0,0.0,0.0,0.0,0.0,-3.6152,-3.6053,-3.6398,-3.7244,-3.7275,-3.7553,-3.8361,-3.8439,-3.8413,-3.8389,-3.8313,-3.8288,-3.8286,-3.8215,-3.8549,-3.9348,-3.9376,-3.9765,-4.0573,-4.0573,-4.0573,-4.0573,-4.0573,-4.0573,-4.0573,-4.0554,-4.055,-4.0482,-3.9626,-3.9194,-3.9072,-3.8221,-3.7832,-3.7778,-3.7712,-3.7215,-3.6538,-3.6538,-3.6003,-3.5286,-3.5286,-3.5267,-3.5248,-3.5315,-3.5323,-3.5293,-3.5293,-3.5308,-3.53,-3.53,-3.5304,-3.5277,-3.5218,-3.5209,-3.5209,-3.5209,-3.5209,-3.5209,-3.5209,-3.5209,-3.5209,-3.5209,-3.5209,-3.5209,-3.5209,-3.5209,-3.5209,-3.5209,-3.5209,0.0,-3.5209,-3.5209,-3.5209,-3.5209,-3.5209,-3.5209,-3.5209,-3.5209,-3.5209,-3.5209,-3.4464,-3.4033,-3.3995,-3.2439,-3.1541,-3.1503,-3.0643,-3.0211,-3.0211,0.0,0.0,0.0,0.0,0.0,0.0,0.0,0.0,0.0,0.0,0.0,0.0,0.0,0.0,0.0,0.0,0.0,0.0,0.0,0.0,0.0,0.0,-3.7226,-3.6989,-3.7431,-3.7906,-3.8143,-3.8154,-3.8455,-3.9256,-3.9302,-3.9505,-4.0075,-4.0039,-3.9979,-3.9933,-3.9911,-4.0272,-4.1101,-4.1104,-4.1527,-4.2374,-4.2393,-4.2393,-4.2393,-4.2393,-4.2393,-4.2354,-4.1739,-4.1426,-4.1308,-4.0502,-4.0104,-4.0025,-3.9722,-3.959,-3.9466,-3.8188,-3.7559,-3.7368,-3.7368,-3.7215,-3.7005,-3.7005,-3.6623,-3.6137,-3.6154,-3.5733,-3.5226,-3.5234,-3.5223,-3.5242,-3.5226,-3.5226,-3.5218,-3.5209,-3.5209,-3.5209,-3.5209,-3.5209,-3.5209,-3.5209,-3.5209,-3.5209,-3.5209,-3.5209,-3.5209,-3.5209,-3.5209,-3.5209,-3.5209,-3.5209,0.0,-3.5209,-3.5209,-3.5209,-3.5209,-3.5209,-3.5209,-3.5209,-3.5209,-3.5209,-3.5209,-3.4999,-3.4617,-3.4014,-3.3555,-3.2726,-3.1439,-3.0624,-3.0211,0.0,0.0,0.0,0.0,0.0,0.0,0.0,0.0,0.0,0.0,0.0,0.0,0.0,0.0,0.0,0.0,0.0,0.0,0.0,0.0,0.0,0.0,-3.8144,-3.8396,-3.839,-3.8459,-3.864,-3.8992,-3.9018,-3.9312,-4.0112,-4.0135,-4.0445,-4.1275,-4.1273,-4.1364,-4.1675,-4.1651,-4.1855,-4.2335,-4.2335,-4.2585,-4.3104,-4.3104,-4.3104,-4.3104,-4.3104,-4.3104,-4.3085,-4.2585,-4.2319,-4.2264,-4.1802,-4.1539,-4.1496,-4.1459,-4.1222,0.0,0.0,0.0,0.0,0.0,-3.7693,-3.7693,-3.7693,-3.7387,-3.7005,-3.7005,-3.6661,-3.626,-3.626,-3.626,-3.6184,-3.5832,-3.5736,-3.566,-3.5278,-3.5209,-3.5209,-3.5209,-3.5209,-3.5209,-3.5209,-3.5209,-3.5209,-3.5209,-3.5209,0.0,-3.5209,-3.5209,-3.5209,-3.5209,-3.5209,-3.5209,-3.5209,-3.5209,-3.5209,-3.5209,-3.5209,-3.5209,-3.5209,-3.5209,0.0,0.0,0.0,-3.4846,-3.4033,-3.3995,0.0,0.0,0.0,-3.0567,-3.0211,0.0,0.0,0.0,-3.0098,-3.0053,0.0,0.0,0.0,0.0,0.0,0.0,0.0,0.0,0.0,0.0,0.0,0.0,0.0,0.0,0.0,0.0,-3.9392,-3.9933,-4.0024,-3.9391,-3.9183,-3.9867,-3.9961,-4.0264,-4.0987,-4.1067,-4.1416,-4.2169,-4.2163,-4.2456,-4.3161,0.0,0.0,0.0,0.0,-4.3278,-4.3374,-4.3374,-4.3374,-4.3374,-4.3374,-4.3374,-4.3374,-4.3278,-4.3239,-4.3239,-4.3143,-4.3069,-4.3015,-4.2996,-4.2539,-4.1729,-4.0701,-3.9833,-3.9058,-3.8285,-3.798,-3.798,-3.798,0.0,0.0,-3.7846,-3.7769,-3.7693,-3.7693,-3.7693,-3.754,-3.6844,-3.6642,-3.647,-3.5687,-3.5504,-3.5474,-3.5379,-3.5359,-3.5332,-3.5237,-3.5218,-3.5209,-3.5209,-3.5209,-3.5209,-3.5209,-3.5209,-3.5209,-3.5209,-3.5209,-3.5209,-3.5209,-3.5209,-3.5209,-3.5209,0.0,0.0,-3.5209,-3.5209,-3.5209,-3.5209,-3.5209,-3.4885,-3.4167,-3.4052,-3.3242,-3.1675,-3.1541,-3.1064,-3.0211,-3.0211,-3.0211,-3.0204,-3.0132,-3.0072,0.0,0.0,0.0,0.0,0.0,0.0,0.0,0.0,0.0,0.0,0.0,0.0,0.0,0.0,0.0,-3.951,-3.9798,-4.0122,-4.078,-4.131,-4.1449,-4.0905,-4.1406,-4.184,-4.1946,-4.2512,-4.2947,-4.3066,-4.3013,-4.3033,-4.3199,-4.3142,-4.3401,-4.4047,-4.4066,-4.4412,-4.5114,-4.5114,-4.5114,-4.5114,0.0,0.0,-4.5094,-4.4393,-4.4066,-4.4028,-4.3374,-4.3085,-4.3069,-4.3024,-4.2865,-4.2505,-4.0909,-4.0193,-4.004,-3.9861,-3.9804,-3.9804,-3.9804,-3.9336,-3.8744,-3.8744,-3.8266,-3.7693,-3.7693,-3.7693,0.0,-3.7502,-3.7509,-3.7515,-3.7343,-3.7338,-3.7198,-3.65,-3.6327,-3.6136,-3.5419,-3.5281,-3.5277,-3.5277,-3.5253,-3.5209,-3.5209,-3.5209,-3.5209,-3.5209,-3.5209,-3.5209,-3.5209,-3.5209,-3.5209,-3.5209,-3.5209,-3.5209,-3.5209,-3.5209,-3.5209,-3.5209,-3.5209,-3.5133,-3.498,-3.4331,-3.3528,-3.2489,-3.1782,-3.1026,-3.0211,-3.0211,-3.0211,-3.0204,-3.0132,-3.0095,0.0,0.0,0.0,0.0,0.0,0.0,0.0,0.0,0.0,0.0,0.0,-3.8082,0.0,0.0,-3.9511,-4.0368,-4.0499,-4.0782,-4.163,-4.2121,-4.222,-4.1769,-4.2447,-4.292,-4.281,-4.3161,-4.3542,-4.3912,-4.3861,-4.3983,-4.4434,-4.4386,-4.4528,-4.494,-4.496,-4.5171,-4.5594,-4.5594,-4.5594,-4.5594,-4.5594,-4.5594,-4.5594,-4.5152,-4.496,-4.494,-4.4528,-4.4355,-4.4316,-4.3838,-4.362,-4.3478,-4.2167,-4.1384,-4.0994,-4.1005,-4.0728,-4.0355,-4.0355,-4.0049,-3.9705,-3.9705,-3.9407,-3.9044,-3.9044,-3.9044,-3.8967,-3.8527,-3.841,-3.835,-3.7956,-3.7877,-3.7778,-3.7356,-3.726,-3.701,-3.614,-3.5952,-3.5822,-3.5373,-3.5266,-3.5261,-3.5261,-3.5218,-3.5209,-3.5209,-3.5209,-3.5209,-3.5209,-3.5209,-3.5209,-3.5209,-3.5209,-3.5209,-3.5209,-3.5209,-3.5209,-3.5209,-3.5209,-3.5209,-3.5209,-3.4808,-3.4216,-3.3375,-3.2489,-3.163,-3.0796,-3.0395,-3.0211,-3.0204,-3.0128,-3.0091,0.0,0.0,0.0,0.0,0.0,0.0,0.0,0.0,-3.7541,-3.7549,-3.8258,-3.9062,-3.9765,-4.0039,-4.0348,-4.0989,-4.1238,-4.1599,-4.2301,-4.2683,-4.288,-4.2802,-4.3413,-4.3786,-4.3657,-4.3784,-4.4156,-4.4794,-4.4715,-4.4967,-4.5669,-4.5646,-4.5594,-4.5594,-4.5594,-4.5594,-4.5594,-4.5594,-4.5594,-4.5594,-4.5594,-4.5594,-4.5594,-4.5594,-4.5594,-4.5594,-4.5594,-4.5594,-4.5556,-4.4836,-4.4547,-4.4489,-4.3782,-4.2979,-4.2187,-4.1996,-4.1489,-4.0848,-4.0713,-4.0656,-4.0618,-4.0464,-4.0407,-4.0407,-4.0407,-4.0407,-4.0253,-3.9553,-3.9358,-3.9221,-3.8569,-3.8412,-3.8389,-3.8235,-3.8197,-3.794,-3.7087,-3.688,-3.6604,-3.5745,-3.5561,-3.5492,-3.5339,-3.5269,-3.5218,-3.5209,-3.5209,-3.5209,-3.5209,-3.5209,-3.5209,-3.5209,-3.5209,-3.5209,-3.5209,-3.5209,-3.5209,-3.5209,-3.5209,-3.5209,-3.5209,-3.5209,-3.4827,-3.4014,-3.3138,-3.2279,-3.1419,-3.0605,-3.0211,-3.0204,-3.0123,-3.0106,-3.59,-3.5899,-3.5912,-3.5972,-3.6584,-3.7157,0.0,0.0,-3.8446,-3.8454,-3.9159,-3.9785,-3.9882,-4.0485,-4.1008,-4.1081,-4.1758,-4.2293,-4.239,-4.367,-4.4629,-4.46,-4.4631,-4.4637,-4.4566,-4.5194,-4.5628,-4.5652,-4.5599,-4.5611,-4.5688,-4.5646,-4.5594,-4.5594,-4.5594,-4.5594,-4.5594,-4.5594,-4.5594,-4.5594,-4.5594,-4.5594,-4.5594,-4.5594,-4.5594,-4.5594,-4.5594,-4.5594,-4.5594,-4.5498,-4.546,-4.5441,-4.5355,-4.4769,-4.3906,-4.3059,-4.2706,-4.2533,-4.1796,-4.1547,-4.1431,-4.0656,-4.0407,-4.0407,-4.0407,-4.0407,-4.0388,-4.0273,-4.0301,-4.0327,-4.0231,-4.0246,-4.0123,-3.939,-3.9224,-3.8979,-3.8122,-3.7887,-3.7582,-3.6718,-3.6508,-3.6209,-3.5435,-3.5289,-3.5269,-3.5209,-3.5209,-3.5209,-3.5209,-3.5209,-3.5209,-3.5209,-3.5209,-3.5209,-3.5209,-3.5209,-3.5209,-3.5209,-3.5209,-3.5209,-3.5209,-3.5209,-3.4827,-3.4014,-3.3138,-3.2298,-3.1484,-3.0624,-3.0211,-3.0204,-3.0123,-3.0106,-3.5892,-3.5929,0.0,0.0,-3.7024,-3.7424,-3.7936,-3.8723,-3.9351,-3.9354,-4.0019,-4.0605,-4.0604,-4.0873,-4.1277,0.0,-4.2166,-4.274,-4.3712,-4.4468,-4.5094,-4.5589,-4.5604,-4.5526,-4.5465,-4.5735,-4.5893,-4.586,-4.5769,-4.5708,-4.5708,-4.5646,-4.5594,-4.5594,-4.5594,-4.5594,-4.5594,-4.5594,-4.5594,-4.5594,-4.5594,-4.5594,-4.5594,-4.5594,-4.5594,-4.5594,-4.5594,-4.5594,-4.5594,-4.5594,-4.5594,-4.5594,-4.5594,-4.54,-4.5004,-4.406,-4.3419,-4.2977,-4.2631,-4.2507,-4.2458,-4.2099,-4.1646,-4.1261,-4.1274,-4.0916,-4.0531,-4.0531,-4.0534,-4.0564,-4.0564,-4.0586,-4.0518,-4.019,-4.0093,-3.9874,-3.9031,-3.8824,-3.8553,-3.7672,-3.7046,-3.6541,-3.6176,-3.5656,-3.5297,-3.5262,-3.5215,-3.5209,-3.5209,-3.5209,-3.5209,-3.5209,-3.5209,-3.5209,-3.5209,-3.5209,-3.5209,-3.5209,-3.5209,-3.5209,-3.5209,-3.5209,-3.5037,-3.4694,-3.3872,-3.3051,-3.2203,-3.1369,-3.0701,-3.0204,-3.0171,-3.0142,-3.6199,0.0,0.0,-3.743,-3.7833,-3.8173,-3.882,-3.9625,-4.0233,-4.0253,-4.0703,-4.1092,-4.1091,-4.1301,-4.1664,-4.2307,-4.2809,-4.3541,-4.477,-4.5114,-4.549,-4.6111,-4.6138,-4.6084,-4.6027,-4.5958,-4.5899,-4.59,-4.6008,-4.6066,-4.6066,-4.6215,-4.6278,-4.6278,-4.6278,-4.6278,-4.6278,-4.6278,-4.6278,-4.6278,-4.6278,-4.6278,-4.6278,-4.6047,-4.5951,-4.5951,-4.571,-4.5594,-4.5594,-4.5594,-4.5603,-4.5631,-4.5631,-4.5657,-4.5621,-4.4944,-4.432,-4.38,-4.3569,-4.3492,-4.3453,-4.3216,-4.273,-4.2256,-4.2254,-4.167,-4.0995,-4.0989,-4.0822,-4.0655,-4.0655,-4.0662,-4.0649,-4.0649,-4.0649,-4.0494,-3.9908,-3.976,-3.9502,-3.8621,-3.7726,-3.7011,-3.6779,-3.596,-3.5357,-3.5357,-3.5278,-3.5234,-3.5226,-3.5209,-3.5209,-3.5209,-3.5209,-3.5209,-3.5209,-3.5209,-3.5209,-3.5209,-3.5209,-3.5209,-3.5209,-3.5209,-3.5209,-3.5209,-3.4407,-3.3566,-3.2699,-3.1878,-3.1045,-3.0211,-3.0211,-3.0164,0.0,0.0,-3.7381,-3.8322,-3.9205,-3.9834,-3.9841,-4.0487,-4.1073,-4.1152,-4.1132,-4.1091,-4.1108,-4.1787,-4.2366,-4.2398,-4.3821,-4.4948,-4.4996,-4.5667,-4.6162,-4.6206,-4.6135,-4.6098,0.0,-4.598,-4.5899,-4.59,-4.6561,-4.6965,-4.6965,-4.7631,-4.8029,-4.8029,-4.8029,-4.8029,-4.8029,-4.8029,-4.8029,-4.8029,-4.8029,-4.8029,-4.8009,-4.7221,-4.6846,-4.6817,-4.597,-4.5594,-4.5594,-4.5594,-4.564,-4.5701,-4.5701,-4.5706,-4.57,-4.5661,-4.5642,-4.5507,-4.4735,-4.4465,-4.4311,-4.347,-4.318,-4.3168,-4.3166,-4.2593,-4.1956,-4.1957,-4.1409,-4.0794,-4.0794,-4.0798,-4.0782,-4.0782,-4.0782,-4.0796,-4.0761,-4.0712,-4.0391,-3.9528,-3.8666,-3.7791,-3.6942,-3.6074,-3.5493,-3.5493,-3.5372,-3.5293,-3.5293,-3.5234,-3.5209,-3.5209,-3.5209,-3.5209,-3.5209,-3.5209,-3.5209,-3.5209,-3.5209,-3.5209,-3.5209,-3.5209,-3.5209,-3.5209,-3.4407,-3.3566,-3.2699,-3.1878,-3.1045,-3.0211,-3.0211,-3.0164,0.0,0.0,-3.8286,-3.9222,-3.9677,-4.0032,-4.0564,-4.0937,-4.1172,-4.1191,-4.1152,-4.1091,-4.1108,-4.1806,-4.258,-4.3178,-4.4231,-4.5203,-4.5779,-4.606,-4.6201,-4.6206,-4.6189,0.0,0.0,0.0,0.0,-4.6765,-4.7448,-4.7854,-4.786,-4.806,-4.8142,-4.8105,-4.8105,-4.8105,-4.8105,-4.8105,-4.8105,-4.8105,-4.8105,-4.8105,-4.8086,-4.7817,-4.772,-4.7717,-4.6842,-4.6493,-4.6477,-4.5891,-4.5668,-4.5703,-4.5703,-4.5727,-4.5773,-4.5776,-4.5786,-4.58,-4.5479,-4.536,-4.5309,-4.5077,-4.4607,-4.4143,-4.4183,-4.3589,-4.2936,-4.2933,-4.2349,-4.174,-4.1736,-4.1305,-4.0864,-4.0864,-4.0868,-4.0867,-4.0876,-4.0815,-4.0676,-4.0399,-3.9642,-3.8755,-3.7885,-3.698,-3.6177,-3.5584,-3.5398,-3.5293,-3.5293,-3.5277,-3.5261,-3.5209,-3.5209,-3.5209,-3.5209,-3.5209,-3.5209,-3.5209,-3.5209,-3.5209,-3.5209,-3.5209,-3.5209,-3.5209,-3.4923,-3.4101,-3.2699,-3.2432,-3.158,-3.0211,-3.0211,-3.0178,0.0,-3.8296,-3.9187,-4.0104,-4.0324,-4.0464,-4.1014,-4.1172,-4.1191,-4.1191,-4.1152,-4.1091,-4.1109,-4.2061,-4.305,-4.3611,-4.4681,-4.5654,-4.6214,-4.6262,-4.6228,-4.6195,-4.6203,-4.6306,0.0,0.0,0.0,-4.7223,-4.8201,-4.8783,-4.8762,-4.8973,-4.9074,-4.9037,-4.9038,-4.9029,-4.9029,-4.9029,-4.9029,-4.9029,-4.9028,-4.9037,-4.9018,-4.8729,-4.8621,-4.8617,-4.776,-4.7411,-4.7406,-4.6518,-4.6186,-4.6171,-4.5862,-4.5783,-4.5833,-4.5834,-4.5887,-4.5925,-4.5866,-4.5845,-4.5859,-4.5919,-4.5563,-4.5104,-4.519,-4.458,-4.3906,-4.3899,-4.3321,-4.2626,-4.231,-4.1829,-4.1323,-4.1012,-4.0941,-4.0946,-4.0946,-4.0888,-4.0829,-4.0839,-4.0123,-3.9257,-3.8393,-3.7201,-3.6183,-3.5611,-3.5468,-3.5386,-3.5304,-3.5289,-3.5273,-3.5234,-3.5245,-3.5226,-3.5209,-3.5209,-3.5209,-3.5209,-3.5209,-3.5209,-3.5209,-3.5209,-3.5209,-3.5209,-3.5218,-3.4538,-3.3161,-3.289,-3.2036,-3.0692,-3.0366,-3.0206,-3.8285,-3.9176,-4.0068,-4.0889,-4.1107,-4.1129,-4.1172,-4.1191,-4.1191,-4.1191,-4.1152,-4.1092,0.0,0.0,-4.3656,-4.3695,-4.5134,-4.6243,-4.628,-4.6292,-4.6282,0.0,0.0,0.0,0.0,0.0,0.0,-4.741,0.0,-4.9749,-4.9671,-5.0331,-5.0701,-5.0701,-5.0702,-5.0721,-5.0721,-5.0721,-5.0721,-5.0721,-5.0702,-5.0701,-5.0682,-4.9907,-4.9566,-4.9528,-4.8726,-4.8378,-4.8301,-4.7433,-4.7094,-4.7025,-4.6194,-4.5893,-4.5911,-4.5911,-4.5955,-4.5997,-4.5929,-4.5917,-4.5923,-4.5972,-4.6003,-4.6014,-4.6085,-4.5517,-4.488,-4.4863,-4.4288,-4.3471,-4.2595,-4.2342,-4.2093,-4.1214,-4.1,-4.1,-4.1,-4.0945,-4.0904,-4.0917,-4.0189,-3.9311,-3.8452,-3.6831,-3.5654,-3.561,-3.5604,-3.5534,-3.5338,-3.5315,-3.532,-3.5293,-3.5293,-3.5277,-3.5209,-3.5209,-3.5209,-3.5209,-3.5209,-3.5209,-3.5209,-3.5209,-3.5209,-3.5209,-3.5269,-3.4871,-3.3999,-3.3185,-3.2382,-3.1584,-3.0636,-3.0195,-3.8443,-3.9611,-4.0816,-4.1041,-4.1104,-4.1108,-4.1112,-4.1152,-4.1191,-4.1191,-4.1191,-4.1152,0.0,0.0,0.0,-4.3598,-4.4611,0.0,-4.6204,-4.6292,0.0,0.0,0.0,-4.6541,-4.7381,-4.8202,0.0,0.0,-5.0124,-5.0646,-5.0581,-5.0756,-5.0829,-5.0784,-5.0766,-5.0766,-5.0766,-5.0766,-5.0766,-5.0766,-5.0775,-5.0775,-5.0764,-5.0561,-5.051,-5.0497,-4.9679,-4.9351,-4.9284,-4.8461,-4.7746,-4.7159,-4.6926,-4.6487,-4.5966,-4.5969,-4.6016,-4.6061,-4.6056,-4.6047,-4.6056,-4.6061,-4.6071,-4.6071,-4.6084,-4.5933,-4.5782,-4.5823,-4.5239,-4.4373,-4.3491,-4.2821,-4.2148,-4.1287,-4.1036,-4.0997,-4.0997,-4.0991,-4.0968,-4.098,-4.0231,-3.932,-3.8443,-3.7385,-3.641,-3.5712,-3.5604,-3.5558,-3.5455,-3.5453,-3.5405,-3.53,-3.5293,-3.5297,-3.5277,-3.5269,-3.5261,-3.5209,-3.5209,-3.5209,-3.5209,-3.5253,-3.5269,-3.5269,-3.5297,-3.4898,-3.4081,-3.3219,-3.2382,-3.1584,-3.0688,-3.026,-3.8502,-3.9765,-4.1106,-4.1097,-4.1101,-4.1105,-4.1109,-4.1131,-4.1151,-4.1151,-4.1152,0.0,0.0,0.0,0.0,0.0,0.0,0.0,-4.5662,-4.6064,-4.629,0.0,-4.6248,0.0,-4.7944,-4.846,-4.9205,0.0,-5.0848,-5.1009,-5.0956,-5.0909,-5.0888,-5.0846,-5.0829,-5.0801,-5.0801,-5.0801,-5.0801,-5.0801,-5.0838,-5.0836,-5.0833,-5.0877,-5.0929,-5.0968,0.0,-5.0315,-5.0259,-4.9407,-4.858,-4.7784,-4.7383,-4.6752,-4.6037,-4.6052,-4.609,-4.6137,-4.6138,-4.6142,-4.6138,-4.6134,-4.6138,-4.6146,-4.6135,-4.6146,-4.6153,-4.6183,-4.5842,-4.5267,-4.4398,-4.3568,-4.2754,-4.1876,-4.1356,-4.1031,-4.1031,-4.1039,-4.1039,-4.1002,-4.0272,-3.938,-3.8484,-3.7622,-3.674,-3.5824,-3.5649,-3.5612,-3.5553,-3.5522,-3.5468,-3.5405,-3.5364,-3.5335,-3.5297,-3.5297,-3.5289,-3.5246,-3.5239,-3.5239,-3.5239,-3.5281,-3.5297,-3.5297,-3.5335,-3.5127,-3.4674,-3.344,-3.2602,-3.2148,-3.0881,-3.0286,-3.8478,-3.9698,-4.0959,-4.1073,-4.1097,-4.1099,-4.1105,-4.1107,-4.1107,-4.1107,0.0,0.0,-4.1091,0.0,-4.2264,-4.2381,0.0,-4.4731,-4.4965,-4.5641,-4.6161,-4.6288,-4.6258,-4.6847,-4.8467,-4.8686,-4.9383,-5.1018,-5.1127,-5.1081,-5.1015,-5.0963,-5.0917,-5.0924,-5.0872,-5.0836,-5.0836,-5.0836,-5.0836,-5.0836,-5.0908,-5.0921,-5.0941,-5.0998,-5.1034,-5.1107,-5.1088,0.0,-5.1043,-5.0293,-4.951,-4.8702,-4.7828,-4.699,-4.6258,-4.6145,-4.6158,-4.6201,-4.6199,-4.6196,-4.6203,-4.6192,-4.6192,-4.6209,-4.6203,-4.6198,-4.6206,-4.6206,-4.6209,-4.6016,-4.5138,-4.4319,-4.348,-4.2602,-4.1722,-4.1096,-4.1096,-4.1096,-4.1086,-4.1022,-4.0406,-3.9556,-3.8587,-3.7786,-3.6945,-3.5952,-3.5751,-3.5699,-3.5629,-3.557,-3.5509,-3.5501,-3.5448,-3.5386,-3.533,-3.5323,-3.5315,-3.5308,-3.5308,-3.5308,-3.5308,-3.5315,-3.5315,-3.5315,-3.5372,-3.5412,-3.5412,-3.3718,-3.2891,-3.2852,-3.1116,-3.031,-3.831,-3.9258,-4.0205,-4.092,-4.1104,-4.1093,-4.1099,-4.1104,0.0,0.0,0.0,-4.1108,-4.1108,-4.1228,0.0,-4.2285,0.0,0.0,0.0,0.0,-4.5498,0.0,0.0,0.0,0.0,0.0,0.0,0.0,0.0,-5.1215,-5.1081,-5.1075,-5.1073,-5.1073,-5.1046,-5.1039,-5.1039,-5.1039,-5.1039,-5.1039,-5.1066,-5.1073,-5.108,-5.1087,-5.1088,-5.1108,-5.1094,0.0,-5.1173,-5.1019,-5.049,-4.9664,-4.8803,-4.7927,-4.71,-4.6434,-4.618,-4.62,-4.6195,-4.6201,-4.6203,-4.6198,-4.6198,-4.6201,-4.6203,-4.6206,-4.6206,-4.6206,-4.6236,-4.6087,-4.5206,-4.4337,-4.3486,-4.2606,-4.1722,-4.109,-4.109,-4.11,-4.1091,-4.1089,-4.0928,-4.0283,-3.8747,-3.8305,-3.7631,-3.604,-3.5783,-3.5773,-3.5766,-3.5658,-3.5581,-3.5585,-3.5528,-3.5469,-3.5467,-3.5412,-3.5364,-3.5289,-3.5308,-3.5308,-3.5308,-3.5357,-3.5379,-3.5379,-3.5453,-3.5474,-3.5474,-3.3731,-3.2891,-3.2852,-3.1167,-3.0348,-3.7709,-3.8463,-3.9219,-3.964,-3.9743,-3.9749,-3.9753,0.0,0.0,0.0,0.0,-4.0417,-4.0417,0.0,0.0,0.0,0.0,0.0,0.0,0.0,0.0,0.0,0.0,0.0,0.0,0.0,0.0,0.0,0.0,-5.1249,-5.1111,-5.1095,-5.1101,-5.1101,-5.1101,-5.1101,-5.1101,-5.1101,-5.1101,-5.1101,-5.1101,-5.1095,-5.1095,-5.1133,-5.1138,-5.1153,-5.1145,0.0,-5.119,-5.1206,-5.0734,-4.9911,-4.9043,-4.8183,-4.7349,-4.6511,-4.6189,-4.6198,-4.6233,-4.6258,-4.6258,-4.6245,-4.6243,-4.6258,-4.6258,-4.6243,-4.6247,-4.6247,-4.629,-4.6195,-4.5785,-4.5028,-4.4153,-4.3274,-4.2061,-4.1103,-4.1103,-4.1094,-4.1105,-4.1105,-4.1069,-4.051,-3.8797,-3.8461,-3.7852,-3.6112,-3.5852,-3.5846,-3.5803,-3.5741,-3.5679,-3.5618,-3.5577,-3.5547,-3.5547,-3.5489,-3.5442,-3.5409,-3.54,-3.5405,-3.5405,-3.5427,-3.5453,-3.5453,-3.5474,-3.55,-3.55,-3.3757,-3.2891,-3.2852,-3.1173,-3.0379,-3.7141,-3.7704,-3.8263,-3.8454,-3.8495,-3.8497,-3.8502,-3.8502,0.0,0.0,-3.9045,-3.9584,-3.9761,0.0,0.0,0.0,0.0,0.0,0.0,0.0,0.0,0.0,0.0,0.0,0.0,0.0,0.0,0.0,0.0,0.0,-5.1128,-5.1114,-5.1121,-5.1121,-5.1121,-5.1121,-5.1121,-5.1121,-5.1121,-5.1121,-5.1114,-5.1119,-5.1122,-5.1189,-5.1215,-5.122,-5.1225,0.0,0.0,-5.1239,-5.0863,-5.0182,-4.9122,-4.8337,-4.7651,-4.6616,-4.6211,-4.6233,-4.6284,-4.6308,-4.631,-4.6298,-4.6296,-4.6308,-4.6308,-4.6294,-4.63,-4.63,-4.63,-4.63,-4.63,-4.5656,-4.4738,-4.3665,-4.2222,-4.1109,-4.1109,-4.1103,-4.1097,-4.1097,-4.1107,-4.0552,-3.8799,-3.851,-3.791,-3.6172,-3.5914,-3.5889,-3.5836,-3.583,-3.5782,-3.5654,-3.5621,-3.5606,-3.5602,-3.554,-3.5515,-3.5509,-3.5495,-3.5488,-3.55,-3.55,-3.55,-3.55,-3.55,-3.55,-3.55,-3.3757,-3.2891,-3.2852,-3.1173,-3.0404,-3.6972,-3.7251,-3.7514,-3.8308,-3.8508,-3.8497,-3.8497,0.0,0.0,0.0,-3.8562,-3.8861,-3.9651,-3.9876,0.0,0.0,0.0,0.0,0.0,0.0,0.0,0.0,0.0,0.0,0.0,0.0,0.0,0.0,0.0,0.0,-5.1186,-5.1196,-5.1196,-5.1196,-5.1196,-5.1196,-5.1196,-5.1196,-5.1196,-5.1196,-5.1196,-5.1201,-5.1181,-5.1206,-5.122,-5.1287,-5.1284,0.0,0.0,-5.1359,-5.1346,-5.1115,-4.9438,-4.8755,-4.8485,-4.6882,-4.6284,-4.6284,-4.6296,-4.63,-4.63,-4.63,-4.63,-4.63,-4.63,-4.63,-4.63,-4.63,-4.63,-4.63,-4.63,-4.5656,-4.458,-4.2903,-4.1791,-4.1109,-4.1109,-4.1108,-4.1108,-4.1108,-4.1099,-4.0545,-3.8809,-3.8508,-3.7934,-3.6235,-3.5941,-3.5906,-3.5883,-3.5898,-3.5857,-3.5791,-3.5664,-3.5602,-3.5602,-3.5589,-3.556,-3.549,-3.5502,-3.5502,-3.55,-3.55,-3.55,-3.55,-3.55,-3.55,-3.55,-3.3757,-3.2891,-3.2852,-3.1173,-3.0404,-3.6266,-3.6397,-3.6508,-3.6855,-3.6936,-3.694,-3.6932,0.0,0.0,-3.6947,-3.7344,-3.7822,-3.8168,-3.9087,-3.9903,0.0,0.0,0.0,0.0,0.0,0.0,0.0,0.0,0.0,0.0,0.0,0.0,0.0,0.0,0.0,-5.1312,-5.1243,-5.1211,-5.1211,-5.1211,-5.1211,-5.1211,-5.1211,-5.1211,-5.1211,-5.1239,-5.1252,-5.1256,-5.13,-5.1335,-5.1365,-5.1353,0.0,0.0,-5.1391,-5.1082,-5.0497,-4.9276,-4.8479,-4.7877,-4.672,-4.6294,-4.6294,-4.63,-4.63,-4.63,-4.63,-4.63,-4.63,-4.63,-4.63,-4.63,-4.63,-4.63,-4.63,-4.63,-4.5265,-4.4036,-4.3352,-4.2123,-4.1109,-4.1109,-4.1109,-4.1109,-4.1109,-4.1106,-4.0556,-3.8858,-3.8539,-3.7927,-3.6247,-3.5981,-3.5948,-3.5902,-3.5906,-3.5882,-3.5856,-3.5771,-3.5708,-3.5659,-3.5626,-3.5587,-3.5556,-3.5559,-3.5554,-3.5554,-3.5515,-3.5502,-3.5502,-3.5494,-3.55,-3.55,-3.3757,-3.2891,-3.2852,-3.1173,-3.0404,-3.5788,-3.5823,-3.5877,-3.5868,-3.5872,-3.5875,0.0,0.0,-3.5905,-3.5898,-3.6397,-3.6883,-3.7152,-3.8196,-3.9193,0.0,0.0,0.0,0.0,0.0,0.0,0.0,0.0,0.0,0.0,0.0,0.0,0.0,0.0,0.0,-5.1394,-5.1304,-5.1252,-5.1252,-5.1252,-5.1252,-5.1252,-5.1252,-5.1252,-5.1252,-5.1304,-5.1339,-5.1339,-5.1382,-5.1394,-5.1394,-5.14,0.0,0.0,-5.1405,-5.0881,-5.0003,-4.9133,-4.8279,-4.742,-4.6591,-4.63,-4.63,-4.63,-4.63,-4.63,-4.63,-4.63,-4.63,-4.63,-4.63,-4.63,-4.63,-4.63,-4.63,-4.63,-4.5012,-4.3705,-4.3705,-4.2378,-4.1109,-4.1109,-4.1109,-4.1109,-4.1109,-4.1109,-4.0563,-3.8884,-3.8566,-3.7956,-3.6258,-3.5995,-3.5988,-3.594,-3.5907,-3.5892,-3.5894,-3.5856,-3.5807,-3.5732,-3.5689,-3.5634,-3.5607,-3.5606,-3.5596,-3.5598,-3.5554,-3.5522,-3.5522,-3.5534,-3.5515,-3.5501,-3.3769,-3.2923,-3.2852,-3.1173,-3.0404,-3.5775,-3.5803,-3.5793,-3.5795,-3.5807,-3.5815,0.0,0.0,-3.5901,-3.5901,-3.5915,-3.6183,-3.7036,-3.722,-3.779,-3.9527,0.0,0.0,0.0,0.0,0.0,0.0,0.0,0.0,0.0,0.0,0.0,0.0,0.0,0.0,-5.1394,-5.1394,-5.1394,-5.1394,-5.1394,-5.1394,-5.1394,-5.1394,-5.1394,-5.1394,-5.1394,-5.1394,-5.1394,-5.1394,-5.1394,0.0,0.0,0.0,0.0,-5.141,-5.0885,-5.0007,-4.915,-4.831,-4.7489,-4.6612,-4.63,-4.63,-4.63,-4.63,-4.63,-4.63,-4.63,-4.63,-4.63,-4.63,-4.63,-4.63,-4.63,-4.63,-4.63,-4.5012,-4.3705,-4.3705,-4.2378,-4.1109,-4.1109,-4.1109,-4.1109,-4.1109,-4.1109,-4.0563,-3.8884,-3.8591,-3.8006,-3.6265,-3.6004,-3.5999,-3.5999,-3.5942,-3.5904,-3.5892,-3.5897,-3.5862,-3.5799,-3.5793,-3.5732,-3.5612,-3.5607,-3.5599,-3.5598,-3.5598,-3.5598,-3.5598,-3.5598,-3.556,-3.5509,-3.3813,-3.2967,-3.2852,-3.1173,-3.0404,-3.5737,-3.5737,-3.5722,-3.5736,-3.5721,-3.5745,-3.581,0.0,-3.5826,-3.5834,-3.5822,-3.5933,-3.6258,-3.6799,-3.7585,-3.8718,0.0,0.0,0.0,0.0,0.0,0.0,0.0,0.0,0.0,0.0,0.0,0.0,0.0,0.0,-5.1364,-5.1403,-5.1394,-5.1394,-5.1394,-5.1394,-5.1394,-5.1394,-5.1394,-5.1394,-5.1405,-5.1391,-5.1391,-5.1399,-5.1403,0.0,0.0,0.0,0.0,-5.0514,-4.9675,-4.8367,-4.8094,-4.7451,-4.6671,-4.6397,-4.63,-4.63,-4.63,-4.63,-4.63,-4.63,-4.63,-4.63,-4.63,-4.63,-4.63,-4.63,-4.63,-4.6163,-4.5578,-4.4563,-4.3548,-4.2942,-4.1927,-4.1109,-4.1109,-4.1109,-4.1109,-4.1109,-4.1109,-4.0563,-3.8884,-3.8591,-3.8006,-3.6265,-3.601,-3.6006,-3.6001,-3.5974,-3.5966,-3.5975,-3.5924,-3.59,-3.5868,-3.5826,-3.5778,-3.5736,-3.5684,-3.5669,-3.567,-3.561,-3.5593,-3.5608,-3.561,-3.5591,-3.556,-3.4441,-3.3267,-3.2056,-3.092,-3.0408,0.0,-3.5694,-3.5694,-3.5704,-3.5708,-3.5708,-3.5747,-3.5775,-3.5808,-3.5799,-3.5795,-3.5818,-3.5892,-3.6337,-3.7108,-3.8298,0.0,0.0,0.0,0.0,0.0,0.0,0.0,0.0,0.0,0.0,0.0,0.0,0.0,0.0,-5.0867,-5.0906,-5.1056,-5.1391,-5.1391,-5.1391,-5.1391,-5.1391,-5.1391,-5.1391,-5.1401,-5.1403,-5.1406,-5.1392,-5.1219,0.0,0.0,0.0,0.0,-4.9616,-4.8816,-4.7606,-4.7606,-4.7061,-4.63,-4.63,-4.63,-4.63,-4.63,-4.63,-4.63,-4.63,-4.63,-4.63,-4.63,-4.63,-4.63,-4.63,-4.63,-4.6105,-4.5226,-4.4348,-4.3489,-4.2611,-4.1732,-4.1109,-4.1109,-4.1109,-4.1109,-4.1109,-4.0836,-4.0172,-3.8825,-3.8337,-3.7633,-3.6207,-3.5992,-3.5991,-3.6006,-3.6001,-3.5997,-3.5992,-3.5962,-3.5924,-3.5894,-3.5856,-3.5827,-3.5792,-3.5754,-3.5742,-3.5737,-3.5674,-3.5629,-3.5632,-3.5643,-3.5626,-3.5595,-3.4394,-3.3097,-3.1725,-3.0838,-3.0417,0.0,0.0,0.0,0.0,0.0,-3.5704,-3.5704,-3.5742,0.0,-3.5799,-3.5795,-3.5811,-3.5898,-3.59,-3.6477,-3.8226,0.0,0.0,0.0,0.0,0.0,0.0,0.0,0.0,0.0,0.0,0.0,0.0,0.0,0.0,-4.9967,-5.0007,-5.0377,-5.1199,-5.1219,-5.1277,-5.1394,-5.1394,-5.1375,-5.1316,-5.1316,-5.1277,-5.1219,-5.1219,-5.077,0.0,0.0,0.0,0.0,-4.8701,-4.8232,-4.7508,-4.7508,-4.7002,-4.63,-4.63,-4.63,-4.63,-4.63,-4.63,-4.63,-4.63,-4.63,-4.63,-4.63,-4.63,-4.63,-4.63,-4.63,-4.6085,-4.5148,-4.4309,-4.345,-4.2533,-4.1693,-4.1109,-4.1109,-4.1109,-4.1109,-4.1109,-4.0405,-3.9546,-3.8747,-3.7888,-3.7009,-3.6129,-3.5992,-3.5992,-3.5992,-3.6006,-3.6001,-3.6001,-3.5992,-3.5962,-3.5912,-3.5906,-3.5876,-3.5802,-3.5815,-3.5791,-3.5808,-3.5742,-3.5713,-3.5708,-3.5703,-3.5678,-3.5593,-3.3862,-3.2632,-3.186,-3.0934,-3.0469,-3.569,0.0,-3.5701,-3.5706,-3.5706,-3.5692,0.0,-3.5703,0.0,0.0,0.0,0.0,0.0,0.0,0.0,0.0,0.0,0.0,0.0,0.0,0.0,0.0,0.0,0.0,0.0,0.0,0.0,0.0,0.0,-4.8232,-4.9052,-4.9111,-4.9208,-4.9403,-4.9403,-5.0048,-5.1394,-5.1394,-5.1063,-5.0416,-5.0416,-5.0067,-4.9403,-4.9403,-4.9306,0.0,0.0,0.0,-4.7879,-4.7879,-4.7373,-4.6612,-4.6612,-4.6475,-4.63,-4.63,-4.63,-4.63,-4.63,-4.63,-4.63,-4.63,-4.63,-4.63,-4.63,-4.63,-4.63,-4.63,-4.63,-4.5948,-4.4406,-4.384,-4.3315,-4.1771,-4.1246,-4.1109,-4.1109,-4.1109,-4.1109,-4.1109,-4.0405,-3.9546,-3.8747,-3.7888,-3.7009,-3.6129,-3.5992,-3.5992,-3.5992,-3.5991,-3.6009,-3.6009,-3.6002,-3.5995,-3.5974,-3.5926,-3.5897,-3.5876,-3.5878,-3.5857,-3.5792,-3.5771,-3.5773,-3.5775,-3.5728,-3.5694,-3.5669,-3.3979,-3.3025,-3.2754,-3.1216,-3.0495,-3.5643,-3.5679,-3.5704,-3.5704,-3.5704,-3.569,0.0,0.0,0.0,0.0,0.0,0.0,0.0,0.0,0.0,0.0,0.0,0.0,0.0,0.0,0.0,0.0,0.0,0.0,0.0,0.0,0.0,0.0,0.0,-4.7373,-4.8193,-4.8252,-4.8427,-4.8798,-4.8798,-4.9247,-5.0204,-5.0204,-4.9969,-4.9501,-4.9501,-4.9267,-4.8798,-4.8798,-4.8605,0.0,0.0,0.0,-4.6994,-4.6994,-4.6721,-4.6291,-4.6308,-4.6306,-4.6306,-4.6302,-4.63,-4.63,-4.63,-4.63,-4.63,-4.63,-4.63,-4.63,-4.63,-4.63,-4.63,-4.63,-4.6007,-4.5382,-4.4055,-4.3391,-4.2767,-4.1422,-4.1109,-4.1109,-4.1109,-4.1109,-4.1109,-4.1109,-4.0094,-3.9118,-3.8689,-3.7555,-3.6539,-3.607,-3.5992,-3.5992,-3.5992,-3.5992,-3.5992,-3.5992,-3.6007,-3.6004,-3.5999,-3.5966,-3.5929,-3.5908,-3.5894,-3.5876,-3.5856,-3.5857,-3.5838,-3.5795,-3.575,-3.5756,-3.5742,-3.4037,-3.3185,-3.3093,-3.1362,-3.054,-3.5601,-3.5643,-3.5679,-3.5704,-3.5704,-3.5704,0.0,0.0,0.0,0.0,0.0,0.0,0.0,0.0,0.0,0.0,0.0,0.0,0.0,0.0,0.0,0.0,0.0,0.0,0.0,0.0,0.0,0.0,0.0,-4.6612,-4.7352,-4.7391,-4.7705,-4.8408,-4.8427,-4.8427,-4.8427,-4.8662,-4.874,-4.8623,-4.8624,-4.8546,-4.841,-4.8411,-4.8045,-4.7406,0.0,0.0,-4.6301,-4.6301,-4.6301,-4.6301,-4.6296,-4.6294,-4.6294,-4.6306,-4.6305,-4.6305,-4.6303,-4.6302,-4.63,-4.63,-4.63,-4.63,-4.63,-4.63,-4.6261,-4.6144,-4.5578,-4.4777,-4.3762,-4.2942,-4.2181,-4.1304,-4.1109,-4.1109,-4.1109,-4.1109,-4.1109,-4.1109,-3.9743,-3.8591,-3.8591,-3.7145,-3.5992,-3.5992,-3.5992,-3.5992,-3.5992,-3.5992,-3.5992,-3.5992,-3.5992,-3.6009,-3.6002,-3.6001,-3.5974,-3.5916,-3.5921,-3.5908,-3.5891,-3.5898,-3.5878,-3.5811,-3.5815,-3.5818,-3.5817,-3.418,-3.3333,-3.3178,-3.1547,-3.0726,-3.5589,-3.5606,-3.5637,-3.5679,-3.5704,-3.5704,0.0,0.0,0.0,0.0,0.0,0.0,0.0,0.0,0.0,0.0,0.0,0.0,0.0,0.0,0.0,0.0,0.0,0.0,0.0,0.0,0.0,0.0,0.0,-4.6358,-4.6495,-4.6495,-4.6554,-4.6671,-4.6671,-4.6671,-4.6671,-4.8096,-4.8466,-4.7781,-4.7771,-4.7403,-4.6682,-4.6688,-4.6612,-4.6496,0.0,-4.6418,-4.6301,-4.6301,-4.6301,-4.6301,-4.6301,-4.6301,-4.6301,-4.63,-4.63,-4.6299,-4.6294,-4.6306,-4.63,-4.63,-4.63,-4.63,-4.63,-4.63,-4.6144,-4.5402,-4.5107,-4.4619,-4.3021,-4.2494,-4.2181,-4.1304,-4.1109,-4.1109,-4.1109,-4.1109,-4.1109,-4.1109,-3.9743,-3.8591,-3.8591,-3.7145,-3.5992,-3.5992,-3.5992,-3.5992,-3.5992,-3.5992,-3.5992,-3.5992,-3.5992,-3.5992,-3.5991,-3.5991,-3.6006,-3.5995,-3.5986,-3.5951,-3.5906,-3.5903,-3.5908,-3.5878,-3.5875,-3.5872,-3.5887,-3.482,-3.395,-3.3254,-3.2201,-3.1314,-3.5547,-3.5577,-3.5606,-3.5643,-3.5673,-3.5704,0.0,0.0,0.0,0.0,0.0,0.0,0.0,0.0,0.0,0.0,0.0,0.0,0.0,0.0,0.0,0.0,0.0,0.0,0.0,0.0,0.0,0.0,0.0,0.0,-4.63,-4.63,-4.6303,-4.6308,-4.6308,-4.6309,-4.6294,-4.7055,-4.7267,-4.6892,-4.6899,-4.6688,-4.6299,-4.6301,-4.6303,-4.6305,0.0,-4.6306,-4.6307,-4.6307,-4.6307,-4.6307,-4.6306,-4.6305,-4.6305,-4.6302,-4.6301,-4.6301,-4.6299,-4.6296,-4.6293,-4.6309,-4.6308,-4.6209,-4.5735,-4.5597,-4.5324,-4.3977,-4.3938,-4.3997,-4.2728,-4.2045,-4.1596,-4.1207,-4.1109,-4.1109,-4.1109,-4.1109,-4.0953,-4.0483,-3.9411,-3.8454,-3.7986,-3.6833,-3.5992,-3.5992,-3.5992,-3.5992,-3.5992,-3.5992,-3.5992,-3.5992,-3.5992,-3.5992,-3.5992,-3.5992,-3.6009,-3.6001,-3.599,-3.5981,-3.5951,-3.5951,-3.5943,-3.5953,-3.5917,-3.5908,-3.5908,-3.5,-3.4127,-3.3271,-3.2376,-3.1495,-3.5509,-3.5553,-3.5595,0.0,0.0,0.0,0.0,0.0,0.0,0.0,0.0,0.0,0.0,0.0,0.0,0.0,0.0,0.0,0.0,0.0,0.0,0.0,0.0,0.0,0.0,0.0,0.0,0.0,0.0,0.0,-4.6306,-4.6306,-4.6309,-4.6295,-4.6295,-4.6297,-4.6301,-4.6302,-4.6301,-4.6295,-4.6301,-4.6303,-4.6303,-4.6304,-4.6306,-4.6307,-4.6307,-4.6308,-4.6308,-4.6308,-4.6308,-4.6308,-4.6308,-4.6307,-4.6307,-4.6305,-4.6304,-4.6303,-4.6303,-4.6302,-4.6301,-4.6296,-4.6158,-4.5864,-4.5192,-4.4857,-4.4369,-4.2825,-4.2884,-4.3196,-4.2318,-4.1596,-4.1109,-4.1109,-4.1109,-4.1109,-4.1109,-4.1109,-4.0836,-3.9976,-3.9156,-3.8318,-3.7458,-3.6578,-3.5992,-3.5992,-3.5992,-3.5992,-3.5992,-3.5992,-3.5992,-3.5992,-3.5992,-3.5992,-3.5992,-3.5992,-3.6009,-3.6002,-3.5995,-3.5992,-3.6007,-3.6007,-3.6007,-3.6005,-3.5948,-3.5919,-3.5919,-3.5248,-3.4452,-3.3576,-3.2707,-3.1831,-3.5496,-3.5554,-3.561,-3.5595,0.0,0.0,0.0,0.0,0.0,0.0,0.0,0.0,0.0,0.0,0.0,0.0,0.0,0.0,0.0,0.0,0.0,0.0,0.0,0.0,0.0,0.0,0.0,0.0,0.0,0.0,-4.6301,-4.6301,-4.6301,-4.6301,-4.6301,-4.6301,-4.6301,-4.6305,-4.6305,-4.6301,-4.6305,-4.6307,-4.6307,-4.6308,-4.6308,-4.6308,-4.6308,-4.6308,-4.6308,-4.6308,-4.6308,-4.6308,-4.6308,-4.6308,-4.6308,-4.6308,-4.6308,-4.6307,-4.6307,-4.6305,-4.6301,-4.6301,-4.5754,-4.5089,-4.5025,-4.4436,-4.3594,-4.2651,-4.2454,-4.2298,-4.1422,-4.1148,-4.1109,-4.1109,-4.1109,-4.1109,-4.1109,-4.1109,-4.0836,-3.9976,-3.9156,-3.8318,-3.7458,-3.6578,-3.5992,-3.5992,-3.5992,-3.5992,-3.5992,-3.5992,-3.5992,-3.5992,-3.5992,-3.5992,-3.5992,-3.5992,-3.5992,-3.5991,-3.5991,-3.6007,-3.5999,-3.5999,-3.5995,-3.6005,-3.6003,-3.5984,-3.5984,-3.586,-3.536,-3.4483,-3.3615,-3.2749,-3.5501,-3.5554,-3.5598,-3.559,0.0,0.0,0.0,0.0,0.0,0.0,0.0,0.0,0.0,0.0,0.0,0.0,0.0,0.0,0.0,0.0,0.0,0.0,0.0,0.0,0.0,0.0,0.0,0.0,0.0,0.0,-4.6301,-4.6301,-4.6303,-4.6305,-4.6305,-4.6306,-4.6307,-4.6308,-4.6308,-4.6307,-4.6308,-4.6308,-4.6308,-4.6308,-4.6308,-4.6308,-4.6308,-4.6308,-4.6308,-4.6308,-4.6308,-4.6308,-4.6308,-4.6308,-4.6308,-4.6308,-4.6308,-4.6308,-4.6308,-4.6308,-4.6209,-4.5661,-4.527,-4.4801,-4.3702,-4.3154,-4.2704,-4.1843,-4.1589,-4.153,-4.1189,-4.1109,-4.1109,-4.1109,-4.1109,-4.1109,-4.1109,-4.0678,-4.0054,-3.9216,-3.8376,-3.7516,-3.6636,-3.6226,-3.5992,-3.5992,-3.5998,-3.6,-3.6,-3.6003,-3.6005,-3.6005,-3.6005,-3.6005,-3.6005,-3.6005,-3.6005,-3.6005,-3.5998,-3.5991,-3.6007,-3.6007,-3.6006,-3.6002,-3.5997,-3.5994,-3.5994,-3.596,-3.5505,-3.4647,-3.4272,-3.3376,-3.55,-3.556,-3.5598,0.0,0.0,0.0,0.0,0.0,0.0,0.0,0.0,0.0,0.0,0.0,0.0,0.0,0.0,0.0,0.0,0.0,0.0,0.0,0.0,0.0,0.0,0.0,0.0,0.0,0.0,0.0,0.0,-4.5895,-4.6013,-4.6288,-4.6308,-4.6308,-4.6308,-4.6308,-4.6308,-4.6308,-4.6308,-4.6308,-4.6308,-4.6308,-4.6308,-4.6308,-4.6308,-4.6308,-4.6308,-4.6308,-4.6308,-4.6308,-4.6308,-4.6308,-4.6308,-4.6308,-4.6308,-4.6269,-4.5996,-4.5898,-4.5742,-4.4863,-4.4393,-4.3963,-4.2769,-4.2201,-4.1869,-4.1264,-4.1107,-4.1106,-4.1099,-4.1094,-4.1093,-4.1109,-4.1109,-4.1012,-4.0758,-4.0231,-3.951,-3.8399,-3.7717,-3.7015,-3.6156,-3.6,-3.6,-3.6,-3.6004,-3.6006,-3.6006,-3.6009,-3.5991,-3.5991,-3.5991,-3.5991,-3.5991,-3.5991,-3.5991,-3.5991,-3.6004,-3.6,-3.6,-3.6,-3.6,-3.6,-3.5992,-3.6009,-3.6009,-3.5997,-3.5697,-3.5092,-3.4783,-3.4011,-3.55,-3.556,0.0,0.0,0.0,0.0,0.0,0.0,0.0,0.0,0.0,0.0,0.0,0.0,0.0,0.0,0.0,0.0,0.0,0.0,0.0,0.0,0.0,0.0,0.0,0.0,0.0,0.0,0.0,0.0,0.0,-4.498,-4.5371,-4.625,-4.6289,-4.6289,-4.6289,-4.6289,-4.6289,-4.6289,-4.6289,-4.6289,-4.6308,-4.6308,-4.6308,-4.6308,-4.6308,-4.6308,-4.6308,-4.6308,-4.6308,-4.6308,-4.6308,-4.6308,-4.6308,-4.6308,-4.6289,-4.6152,-4.5293,-4.498,-4.4844,-4.3965,-4.3105,-4.2402,-4.2381,-4.1795,-4.1091,-4.1108,-4.1108,-4.1108,-4.1107,-4.1103,-4.1097,-4.1091,-4.1109,-4.0855,-3.9995,-3.9845,-3.936,-3.7642,-3.7295,-3.7005,-3.6147,-3.5991,-3.5991,-3.5991,-3.5991,-3.5991,-3.5991,-3.5991,-3.5991,-3.5991,-3.5991,-3.5991,-3.5991,-3.5991,-3.5991,-3.5991,-3.5991,-3.5991,-3.5991,-3.5991,-3.5991,-3.5991,-3.6007,-3.6004,-3.6004,-3.6009,-3.6001,-3.598,-3.5114,-3.4675,-3.55,0.0,0.0,0.0,0.0,0.0,0.0,0.0,0.0,0.0,0.0,0.0,0.0,0.0,0.0,0.0,0.0,0.0,0.0,0.0,0.0,0.0,0.0,0.0,0.0,0.0,0.0,0.0,0.0,0.0,0.0,-4.4082,-4.4199,-4.4453,-4.4473,-4.4473,-4.4473,-4.4473,-4.4473,-4.4473,-4.4473,-4.5117,-4.6308,-4.6308,-4.6308,-4.6308,-4.6308,-4.6308,-4.6308,-4.6308,-4.6308,-4.6308,-4.6308,-4.6308,-4.6308,-4.6308,-4.5918,-4.5351,-4.5098,-4.4609,-4.3945,-4.3066,-4.2617,-4.2285,-4.1738,-4.1386,-4.1172,-4.1171,-4.1171,-4.1151,-4.1111,-4.111,-4.1108,-4.1104,-4.1103,-4.0869,-4.0048,-3.9405,-3.8644,-3.7511,-3.6809,-3.6303,-3.605,-3.5991,-3.5991,-3.5991,-3.5993,-3.5994,-3.5995,-3.5995,-3.5995,-3.5995,-3.5995,-3.5995,-3.5995,-3.5995,-3.5995,-3.5995,-3.5995,-3.5995,-3.5991,-3.5991,-3.5991,-3.5991,-3.6009,-3.6009,-3.6009,-3.6006,-3.6002,-3.5999,-3.5737,-3.5279,-3.5493,0.0,0.0,0.0,0.0,0.0,0.0,0.0,0.0,0.0,0.0,0.0,0.0,0.0,0.0,0.0,0.0,0.0,0.0,0.0,0.0,0.0,0.0,0.0,0.0,0.0,0.0,0.0,0.0,0.0,0.0,-4.3183,-4.334,-4.3691,-4.3691,-4.3691,-4.3691,-4.3691,-4.3691,-4.3691,-4.3691,-4.4258,-4.5273,-4.5625,-4.5976,-4.6308,-4.6308,-4.6308,-4.6308,-4.6308,-4.6308,-4.6269,-4.5918,-4.5781,-4.5742,-4.5391,-4.4922,-4.4433,-4.4082,-4.3613,-4.3047,-4.2207,-4.1914,-4.1836,-4.1348,-4.1191,-4.1191,-4.1191,-4.1191,-4.1191,-4.1152,-4.1132,-4.1132,-4.1108,-4.0853,-4.0404,-3.9564,-3.8706,-3.7828,-3.6949,-3.6364,-3.5994,-3.5994,-3.5994,-3.5994,-3.5994,-3.5995,-3.5996,-3.5996,-3.5996,-3.5996,-3.5996,-3.5996,-3.5996,-3.5996,-3.5996,-3.5996,-3.5996,-3.5996,-3.5996,-3.5994,-3.5994,-3.5994,-3.5994,-3.5993,-3.5993,-3.5993,-3.5992,-3.6009,-3.6007,-3.6003,-3.5727,0.0,0.0,0.0,0.0,0.0,0.0,0.0,0.0,0.0,0.0,0.0,0.0,0.0,0.0,0.0,0.0,0.0,0.0,0.0,0.0,0.0,0.0,0.0,0.0,0.0,0.0,0.0,0.0,0.0,0.0,0.0,-4.2285,-4.2656,-4.3457,-4.3476,-4.3476,-4.3476,-4.3476,-4.3476,-4.3476,-4.3476,-4.3516,-4.3613,-4.4473,-4.5312,-4.6055,-4.6055,-4.6055,-4.6055,-4.6055,-4.6055,-4.5976,-4.5195,-4.4883,-4.4785,-4.3984,-4.3652,-4.3476,-4.2676,-4.2344,-4.2168,-4.1445,-4.1191,-4.1191,-4.1191,-4.1191,-4.1191,-4.1191,-4.1191,-4.1191,-4.1191,-4.1133,-4.1074,-4.1012,-4.0425,-3.9643,-3.8686,-3.7868,-3.7049,-3.6171,-3.5996,-3.5996,-3.5996,-3.5996,-3.5996,-3.5996,-3.5996,-3.5996,-3.5996,-3.5996,-3.5996,-3.5996,-3.5996,-3.5996,-3.5996,-3.5996,-3.5996,-3.5996,-3.5996,-3.5996,-3.5996,-3.5996,-3.5996,-3.5996,-3.5995,-3.5995,-3.5995,-3.5993,-3.5992,-3.5991,-3.5991,-3.5991,0.0,0.0,0.0,0.0,0.0,0.0,0.0,0.0,0.0,0.0,0.0,0.0,0.0,0.0,0.0,0.0,0.0,0.0,0.0,0.0,0.0,0.0,0.0,0.0,0.0,0.0,0.0,0.0,0.0,0.0,-4.1445,-4.1465,-4.1543,-4.1738,-4.1738,-4.1738,-4.1738,-4.1738,-4.1738,0.0,-4.1738,-4.207,-4.2715,-4.3574,-4.4082,-4.4258,-4.4258,-4.4258,-4.4258,-4.4258,-4.4258,-4.4238,-4.4043,-4.3984,-4.3965,-4.3769,-4.3262,-4.2656,-4.2461,-4.1992,-4.1426,-4.1269,-4.1191,-4.1191,-4.1191,-4.1191,-4.1191,-4.1191,-4.1191,-4.1191,-4.1191,-4.0684,-4.0176,-4.0156,-4.0039,-3.9472,-3.7929,-3.7422,-3.7031,-3.6172,-3.5996,-3.5996,-3.5996,-3.5996,-3.5996,-3.5996,-3.5996,-3.5996,-3.5996,-3.5996,-3.5996,-3.5995,-3.5995,-3.5995,-3.5993,-3.5993,-3.5993,-3.5993,-3.5993,-3.5993,-3.5993,-3.5996,-3.5996,-3.5996,-3.5996,-3.5996,-3.5996,-3.5996,-3.5995,-3.5994,-3.5994,-3.5993,0.0,0.0,0.0,0.0,0.0,0.0,0.0,0.0,0.0,0.0,0.0,0.0,0.0,0.0,0.0,0.0,0.0,0.0,0.0,0.0,0.0,0.0,0.0,0.0,0.0,0.0,0.0,0.0,0.0,-4.1151,-4.1151,-4.1151,-4.1151,-4.1151,-4.1151,-4.1151,-4.1152,-4.1152,-4.1172,-4.1191,-4.1191,-4.1426,-4.1875,-4.3125,-4.3691,-4.3691,-4.3691,-4.3691,-4.3691,-4.3691,-4.3691,-4.3652,-4.3242,-4.3086,-4.3027,-4.2656,-4.2226,-4.1836,-4.1836,-4.1543,-4.1191,-4.1191,-4.1191,-4.1191,-4.1191,-4.1191,-4.1191,-4.1191,-4.1191,-4.1094,-4.0683,-4.0234,-3.9687,-3.8847,-3.8652,-3.8418,-3.75,-3.6972,-3.6543,-3.6093,-3.5995,-3.5995,-3.5995,-3.5995,-3.5995,-3.5995,-3.5995,-3.5995,-3.5995,-3.5995,-3.5995,-3.5993,-3.5993,-3.5993,-3.5991,-3.5991,-3.5991,-3.5991,-3.5991,-3.5991,-3.5991,-3.5994,-3.5995,-3.5995,-3.5995,-3.5995,-3.5996,-3.5996,-3.5996,-3.5996,-3.5996,-3.5995,0.0,0.0,0.0,0.0,0.0,0.0,0.0,0.0,0.0,0.0,0.0,0.0,0.0,0.0,0.0,0.0,0.0,0.0,0.0,0.0,0.0,0.0,0.0,0.0,0.0,0.0,0.0,0.0,0.0,-4.0678,-4.0678,-4.0814,-4.0892,-4.0892,-4.1029,-4.1108,-4.1091,-4.1091,-4.1131,-4.1172,-4.1172,-4.1191,-4.125,-4.2637,-4.3262,-4.3262,-4.3262,-4.3262,-4.3262,-4.3262,-4.3262,-4.3203,-4.2461,-4.2187,-4.2109,-4.1445,-4.1191,-4.1191,-4.1191,-4.1191,-4.1191,-4.1191,-4.1191,-4.1191,-4.1191,-4.1172,-4.1152,-4.1015,-4.0976,-4.0761,-3.9901,-3.9569,-3.91,-3.7632,-3.7186,-3.709,-3.709,-3.6503,-3.5994,-3.5994,-3.5993,-3.5991,-3.5991,-3.5991,-3.5991,-3.5991,-3.5991,-3.5991,-3.5991,-3.5991,-3.5991,-3.599,-3.6009,-3.6008,-3.6007,-3.6007,-3.6006,-3.6006,-3.6006,-3.6006,-3.6006,-3.6006,-3.6006,-3.6006,-3.6009,-3.5992,-3.5994,-3.5994,-3.5995,-3.5996,-3.5996,-3.5996,0.0,0.0,0.0,0.0,0.0,0.0,0.0,0.0,0.0,0.0,0.0,0.0,0.0,0.0,0.0,0.0,0.0,0.0,0.0,0.0,0.0,0.0,0.0,0.0,0.0,0.0,0.0,0.0,-3.8921,-3.8921,-3.8921,-3.9643,-4.0052,-4.0052,-4.0736,-4.1108,-4.1108,-4.1108,-4.1108,-4.1109,-4.1111,-4.1132,-4.1211,-4.1426,-4.1523,-4.1523,-4.1523,-4.1523,-4.1523,-4.1523,-4.1523,-4.1523,-4.1406,-4.1367,-4.1348,-4.123,-4.1191,-4.1191,-4.1191,-4.1191,-4.1191,-4.1191,-4.1191,-4.1191,-4.1132,-4.1112,-4.0974,-4.0269,-4.0073,-3.9878,-3.9,-3.8219,-3.7593,-3.7358,-3.6714,-3.6168,-3.6168,-3.6089,-3.5992,-3.5992,-3.5991,-3.5991,-3.5991,-3.5991,-3.5991,-3.5991,-3.5991,-3.5991,-3.5991,-3.5991,-3.6009,-3.6006,-3.6,-3.5992,-3.6006,-3.5999,-3.5994,-3.5994,-3.5994,-3.5994,-3.5994,-3.5994,-3.5994,-3.5994,-3.6002,-3.5991,-3.5992,-3.5992,-3.5992,-3.5992,-3.5992,-3.5992,0.0,0.0,0.0,0.0,0.0,0.0,0.0,0.0,0.0,0.0,0.0,0.0,0.0,0.0,0.0,0.0,0.0,0.0,0.0,0.0,0.0,0.0,0.0,0.0,0.0,0.0,0.0,0.0,-3.8549,-3.8549,-3.8549,-3.892,-3.9115,-3.9115,-3.945,-3.967,-3.9693,-3.9697,-3.9933,-4.0423,-4.0874,-4.113,-4.1131,-4.1132,-4.1152,-4.1191,-4.1191,-4.1191,-4.1191,-4.1191,-4.1191,-4.1191,-4.1191,-4.1191,-4.1191,-4.1191,-4.1191,-4.1191,-4.1191,-4.1191,-4.1191,-4.1152,-4.1132,-4.1132,-4.111,-4.0797,-4.0347,-3.9995,-3.9545,-3.8978,-3.8094,-3.7585,-3.7172,-3.6696,-3.6284,-3.5991,-3.5991,-3.5998,-3.6,-3.5992,-3.5991,-3.5991,-3.5991,-3.5991,-3.5991,-3.5991,-3.5991,-3.5991,-3.5991,-3.5991,-3.6009,-3.6006,-3.6001,-3.5995,-3.5992,-3.6007,-3.6005,-3.6005,-3.6005,-3.6005,-3.6005,-3.6005,-3.6005,-3.6005,-3.6002,-3.5995,-3.6002,-3.6002,-3.6005,-3.5991,-3.5991,-3.5991,0.0,0.0,0.0,0.0,0.0,0.0,0.0,0.0,0.0,0.0,0.0,0.0,0.0,0.0,0.0,0.0,0.0,0.0,0.0,0.0,0.0,0.0,0.0,0.0,0.0,0.0,0.0,0.0,-3.7834,-3.7834,-3.7834,-3.8053,-3.8172,-3.8172,-3.8374,-3.8518,-3.8566,-3.8573,-3.8892,-3.9541,-4.0168,-4.0462,-4.0463,-4.07,-4.0819,-4.0878,-4.1094,-4.1191,-4.1191,-4.1191,-4.1191,-4.1191,-4.1191,-4.1191,-4.1191,-4.1191,-4.1191,-4.1172,-4.1172,-4.1172,-4.1171,-4.1111,-4.0954,-4.0797,-4.0794,-4.0206,-3.9502,-3.9306,-3.8758,-3.8053,-3.7181,-3.6964,-3.6804,-3.6146,-3.5984,-3.5981,-3.6003,-3.5997,-3.6002,-3.6007,-3.6005,-3.6005,-3.6005,-3.6005,-3.6005,-3.6005,-3.6005,-3.6005,-3.6005,-3.5984,-3.5962,-3.5962,-3.5975,-3.5973,-3.5973,-3.597,-3.5968,-3.5968,-3.5968,-3.5968,-3.5968,-3.5968,-3.5968,-3.5968,-3.5968,-3.5981,-3.6006,-3.6006,-3.5994,-3.6003,-3.6003,-3.6003,0.0,0.0,0.0,0.0,0.0,0.0,0.0,0.0,0.0,0.0,0.0,0.0,0.0,0.0,0.0,0.0,0.0,0.0,0.0,0.0,0.0,0.0,0.0,0.0,0.0,0.0,0.0,0.0,-3.6041,-3.6046,-3.6046,-3.682,-3.7275,-3.7275,-3.8075,-3.8504,-3.8504,-3.8514,-3.8525,-3.8573,-3.8677,-3.8721,-3.8765,-3.9584,-3.9955,-4.0014,-4.0839,-4.1191,-4.1191,-4.1191,-4.1191,-4.1191,-4.1191,-4.1191,-4.1191,-4.1191,-4.1152,-4.1112,-4.1112,-4.111,-4.1108,-4.1108,-4.058,-3.9954,-3.995,-3.9301,-3.8415,-3.7645,-3.7365,-3.7084,-3.628,-3.6066,-3.6064,-3.6005,-3.5958,-3.5914,-3.5984,-3.6005,-3.6005,-3.6005,-3.6005,-3.6005,-3.6005,-3.6005,-3.6005,-3.6005,-3.6005,-3.6005,-3.6005,-3.5936,-3.5909,-3.5909,-3.5908,-3.5911,-3.5911,-3.5915,-3.5908,-3.5908,-3.5908,-3.5908,-3.5908,-3.5908,-3.5908,-3.5908,-3.5908,-3.5936,-3.6005,-3.6005,-3.6007,-3.6007,-3.6007,-3.6007,0.0,0.0,0.0,0.0,0.0,0.0,0.0,0.0,0.0,0.0,0.0,0.0,0.0,0.0,0.0,0.0,0.0,0.0,0.0,0.0,0.0,0.0,0.0,0.0,0.0,0.0,0.0,0.0,0.0,-3.5908,-3.5908,-3.6209,-3.6367,-3.6367,-3.6668,-3.6838,-3.6833,-3.7392,-3.7673,-3.7677,-3.8264,-3.8544,-3.8552,-3.887,-3.901,-3.9073,-3.9391,-4.0135,-4.113,-4.113,-4.113,-4.113,-4.113,-4.113,-4.113,-4.113,-4.113,-4.1031,-4.0504,-4.0327,-4.0227,-3.9636,-3.9243,-3.9006,-3.8993,-3.8381,-3.7619,-3.7322,-3.6824,-3.6304,-3.6004,-3.5936,-3.5947,-3.5939,-3.5914,-3.5911,-3.5936,-3.5945,-3.5947,-3.5939,-3.5936,-3.5936,-3.5936,-3.5936,-3.5936,-3.5936,-3.5936,-3.5936,-3.5936,-3.5911,-3.5908,-3.5908,-3.5898,-3.5892,-3.5892,-3.5905,-3.5878,-3.5845,-3.5841,-3.5834,-3.5842,-3.5842,-3.5842,-3.5842,-3.5838,-3.5869,-3.5931,-3.5931,-3.5936,-3.5943,-3.5943,-3.5948,0.0,0.0,0.0,0.0,0.0,0.0,0.0,0.0,0.0,0.0,0.0,0.0,0.0,0.0,0.0,0.0,0.0,0.0,0.0,0.0,0.0,0.0,0.0,0.0,0.0,0.0,0.0,0.0,0.0,0.0,-3.5869,-3.5877,-3.5864,-3.5872,-3.5889,-3.5908,-3.5908,-3.647,-3.6752,-3.6777,-3.7344,-3.7644,-3.7673,-3.7936,-3.8099,-3.8142,-3.844,-3.9208,-4.0268,-4.0268,-4.0268,-4.0268,-4.0268,-4.0268,-4.0268,-4.0268,-4.0267,-4.0187,-3.9619,-3.9422,-3.9321,-3.8704,-3.831,-3.8053,-3.8055,-3.7442,-3.6755,-3.6752,-3.635,-3.5906,-3.5897,-3.5908,-3.5895,-3.5875,-3.5864,-3.588,-3.5873,-3.5878,-3.5895,-3.5905,-3.5901,-3.5901,-3.5901,-3.5901,-3.5901,-3.5901,-3.5901,-3.5901,-3.5901,-3.5887,-3.5861,-3.5861,-3.585,-3.5823,-3.5823,-3.5823,-3.5815,-3.5764,-3.5779,-3.5767,-3.5773,-3.5773,-3.5773,-3.5773,-3.5771,-3.5795,-3.5822,-3.5885,-3.5905,-3.5894,-3.5894,-3.59,0.0,0.0,0.0,0.0,0.0,0.0,0.0,0.0,0.0,0.0,0.0,0.0,0.0,0.0,0.0,0.0,0.0,0.0,0.0,0.0,0.0,0.0,0.0,0.0,0.0,0.0,0.0,0.0,-3.5766,-3.5799,-3.5799,-3.5801,-3.5803,-3.5803,-3.5868,-3.5898,-3.5901,-3.5898,-3.5894,-3.5908,-3.5902,-3.5934,-3.6023,-3.6805,-3.7158,-3.7217,-3.8055,-3.8468,-3.853,-3.8588,-3.8608,-3.8608,-3.8608,-3.8608,-3.8608,-3.8608,-3.8605,-3.8579,-3.8495,-3.8468,-3.8458,-3.8428,-3.7858,-3.7156,-3.7164,-3.6565,-3.5906,-3.5891,-3.5895,-3.5901,-3.5898,-3.5898,-3.5872,-3.5811,-3.5807,-3.5806,-3.5803,-3.5854,-3.5898,-3.5898,-3.5898,-3.5898,-3.5898,-3.5898,-3.5898,-3.5898,-3.5898,-3.5898,-3.5898,-3.5842,-3.5795,-3.5795,-3.5736,-3.5708,-3.5708,-3.5708,-3.5708,-3.5704,-3.5704,-3.5704,-3.5704,-3.5704,-3.5704,-3.5704,-3.5704,-3.5704,-3.5704,-3.5819,-3.5898,-3.5898,-3.5898,-3.5898,-3.4809,0.0,0.0,0.0,0.0,0.0,0.0,0.0,0.0,0.0,0.0,0.0,0.0,0.0,0.0,0.0,0.0,0.0,0.0,0.0,0.0,0.0,0.0,0.0,0.0,0.0,0.0,0.0,-3.5713,-3.5737,-3.5737,-3.5722,-3.5732,-3.5736,-3.5801,-3.5838,-3.5834,-3.5838,-3.5859,-3.5895,-3.5901,-3.5911,-3.5945,-3.615,-3.6258,-3.6287,-3.6567,-3.6696,-3.6804,-3.8034,-3.8521,-3.8521,-3.8521,-3.8521,-3.8521,-3.8521,-3.8539,-3.8438,-3.7773,-3.7556,-3.7451,-3.6826,-3.6467,-3.6267,-3.6264,-3.6096,-3.5895,-3.5892,-3.5875,-3.583,-3.5838,-3.5782,-3.5745,-3.5736,-3.5732,-3.5722,-3.5737,-3.5732,-3.5769,-3.5769,-3.5769,-3.5769,-3.5769,-3.5769,-3.5769,-3.5769,-3.5769,-3.5769,-3.5769,-3.5736,-3.5727,-3.5727,-3.5713,-3.5708,-3.5708,-3.5708,-3.5699,-3.5698,-3.5698,-3.5688,-3.5692,-3.5711,-3.5711,-3.5711,-3.5707,-3.5698,-3.5698,-3.5747,-3.5769,-3.5769,-3.5806,-3.5834,0.0,0.0,0.0,0.0,0.0,0.0,-3.5001,-3.5091,0.0,0.0,0.0,0.0,0.0,0.0,0.0,0.0,0.0,0.0,0.0,0.0,0.0,0.0,0.0,0.0,0.0,-3.5654,-3.5665,-3.5662,-3.5662,-3.5667,-3.5658,-3.5669,-3.5679,-3.5689,-3.5732,-3.5756,-3.5769,-3.5767,-3.5788,-3.5857,-3.5857,-3.5872,-3.5898,-3.5908,-3.5897,-3.5906,-3.5933,-3.5955,-3.6033,-3.701,-3.7432,-3.7468,-3.7468,-3.7468,-3.7468,-3.7468,-3.7446,-3.7344,-3.6833,-3.6653,-3.6567,-3.6075,-3.5891,-3.5885,-3.5875,-3.5861,-3.5853,-3.5865,-3.5807,-3.5763,-3.5756,-3.5737,-3.5708,-3.5708,-3.5699,-3.5689,-3.5689,-3.5703,-3.5698,-3.5704,-3.5708,-3.5708,-3.5708,-3.5708,-3.5708,-3.5708,-3.5708,-3.5708,-3.5708,-3.5699,-3.5689,-3.5689,-3.5703,-3.5693,-3.5693,-3.5693,-3.5707,-3.5692,-3.5662,-3.5665,-3.5668,-3.5656,-3.5651,-3.5651,-3.5668,-3.5654,-3.5654,-3.5698,-3.5708,-3.5708,-3.5742,-3.5766,0.0,0.0,0.0,0.0,0.0,0.0,-3.4898,-3.4992,-3.5101,0.0,0.0,0.0,0.0,0.0,0.0,0.0,0.0,0.0,0.0,0.0,0.0,0.0,0.0,0.0,-3.5591,-3.5591,-3.5591,-3.5598,-3.5598,-3.561,-3.5595,-3.5604,-3.5632,-3.5697,-3.5684,-3.5699,-3.5704,-3.5704,-3.5727,-3.5786,-3.5786,-3.5811,-3.5887,-3.5895,-3.5895,-3.5895,-3.5898,-3.5901,-3.5901,-3.5901,-3.5936,-3.5997,-3.5997,-3.5997,-3.5997,-3.5997,-3.5951,-3.5902,-3.5908,-3.5897,-3.5901,-3.5882,-3.5895,-3.5872,-3.5803,-3.5783,-3.5782,-3.5784,-3.5742,-3.5704,-3.5704,-3.5699,-3.5699,-3.5699,-3.5698,-3.5702,-3.5697,-3.5701,-3.5695,-3.5684,-3.5694,-3.5699,-3.5699,-3.5699,-3.5699,-3.5699,-3.5699,-3.5699,-3.5699,-3.5698,-3.5702,-3.5702,-3.5701,-3.5684,-3.5684,-3.5698,-3.5698,-3.5698,-3.5631,-3.5601,-3.5601,-3.559,-3.5598,-3.5598,-3.5598,-3.5598,-3.5598,-3.5662,-3.5689,-3.5689,-3.5689,-3.5689,0.0,0.0,0.0,0.0,0.0,0.0,-3.4887,-3.4917,-3.4955,0.0,0.0,0.0,0.0,0.0,0.0,0.0,0.0,0.0,0.0,0.0,0.0,0.0,0.0,0.0,-3.5515,-3.5522,-3.5547,-3.5598,-3.5598,-3.5598,-3.5604,-3.559,-3.5608,-3.5618,-3.5623,-3.5651,-3.5693,-3.5693,-3.5713,-3.5722,-3.5722,-3.5727,-3.5736,-3.5795,-3.583,-3.5811,-3.5887,-3.5901,-3.5901,-3.5901,-3.5908,-3.5921,-3.5921,-3.5921,-3.5921,-3.5921,-3.5918,-3.5895,-3.5892,-3.5908,-3.5882,-3.5842,-3.583,-3.5803,-3.5741,-3.5722,-3.5718,-3.5713,-3.5713,-3.5693,-3.5693,-3.5697,-3.5701,-3.5701,-3.5701,-3.569,-3.5623,-3.5618,-3.5626,-3.5614,-3.5654,-3.5701,-3.5701,-3.5701,-3.5701,-3.5701,-3.5701,-3.5701,-3.5701,-3.5701,-3.5695,-3.5695,-3.5648,-3.5612,-3.5612,-3.5628,-3.5616,-3.5616,-3.561,-3.5604,-3.5604,-3.5598,-3.5598,-3.5598,-3.5598,-3.5598,-3.5598,-3.5602,-3.5614,-3.5614,-3.5614,-3.5614,0.0,0.0,0.0,-3.4645,0.0,0.0,0.0,-3.4839,-3.4869,-3.4898,0.0,0.0,0.0,0.0,0.0,0.0,0.0,0.0,0.0,0.0,0.0,0.0,0.0,0.0,-3.5395,-3.5402,-3.5435,-3.5495,-3.5528,-3.5547,-3.5554,-3.5554,-3.5566,-3.5602,-3.5602,-3.562,-3.5646,-3.5646,-3.5667,-3.5708,-3.5708,-3.5694,-3.5708,-3.5732,-3.5741,-3.5745,-3.5791,-3.5799,-3.5799,-3.5799,-3.5799,-3.5803,-3.5868,-3.5901,-3.5901,-3.5901,-3.5887,-3.585,-3.585,-3.5838,-3.5795,-3.575,-3.5741,-3.5736,-3.5713,-3.5699,-3.5703,-3.5693,-3.5697,-3.5687,-3.5651,-3.5654,-3.5643,-3.5645,-3.5645,-3.5639,-3.5602,-3.5602,-3.5596,-3.5598,-3.5622,-3.5645,-3.5645,-3.5645,-3.5645,-3.5645,-3.5645,-3.5645,-3.5645,-3.5645,-3.5645,-3.5645,-3.5608,-3.5602,-3.5602,-3.5604,-3.5598,-3.5598,-3.556,-3.5554,-3.5554,-3.5554,-3.5541,-3.5541,-3.5541,-3.5541,-3.5541,-3.5541,-3.556,-3.5598,-3.5598,-3.5598,0.0,0.0,0.0,0.0,0.0,-3.4666,0.0,0.0,0.0,-3.4811,0.0,0.0,0.0,0.0,0.0,0.0,0.0,0.0,0.0,0.0,0.0,0.0,0.0,0.0,0.0,-3.5308,-3.5323,-3.5372,-3.542,-3.5481,-3.5483,-3.5489,-3.5509,-3.5585,-3.5585,-3.5584,-3.5595,-3.5601,-3.5629,-3.5672,-3.5697,-3.5693,-3.5694,-3.5699,-3.5699,-3.5699,-3.5704,-3.5708,-3.5708,-3.5708,-3.5708,-3.5713,-3.5815,-3.5861,-3.5861,-3.5861,-3.5834,-3.5782,-3.5782,-3.576,-3.5704,-3.5699,-3.5694,-3.5689,-3.5684,-3.5688,-3.5687,-3.5679,-3.5668,-3.5662,-3.5601,-3.5595,-3.5608,-3.5604,-3.5598,-3.5598,-3.5591,-3.5579,-3.5573,-3.5566,-3.5541,-3.5547,-3.5591,-3.5598,-3.5598,-3.5598,-3.5598,-3.5598,-3.5598,-3.5598,-3.5598,-3.5598,-3.5591,-3.5585,-3.5585,-3.5579,-3.5573,-3.5573,-3.5528,-3.5496,-3.5496,-3.5501,-3.55,-3.55,-3.55,-3.55,-3.55,-3.55,-3.5534,-3.5573,-3.5573,-3.5573,0.0,0.0,0.0,0.0,-3.4517,0.0,0.0,0.0,-3.4737,-3.4788,0.0,0.0,0.0,0.0,0.0,0.0,0.0,0.0,0.0,0.0,0.0,0.0,0.0,0.0,0.0,-3.5308,-3.5289,-3.5315,-3.5323,-3.5357,-3.542,-3.54,-3.5435,-3.5515,-3.5515,-3.5528,-3.5604,-3.5589,-3.5606,-3.5612,-3.5679,-3.5695,-3.5695,-3.5702,-3.5693,-3.5693,-3.5699,-3.5708,-3.5708,-3.5708,-3.5708,-3.5708,-3.5718,-3.5722,-3.5722,-3.5722,-3.5722,-3.5713,-3.5713,-3.5713,-3.5704,-3.5698,-3.5697,-3.569,-3.5629,-3.5618,-3.5606,-3.5616,-3.561,-3.561,-3.5604,-3.5604,-3.5604,-3.5598,-3.5598,-3.5591,-3.5522,-3.5502,-3.5488,-3.5434,-3.536,-3.5381,-3.5579,-3.5598,-3.5598,-3.5598,-3.5598,-3.5598,-3.5598,-3.5598,-3.5598,-3.5598,-3.5554,-3.5515,-3.5515,-3.5515,-3.5514,-3.5514,-3.5488,-3.5507,-3.5507,-3.55,-3.55,-3.55,-3.55,-3.55,-3.55,-3.55,-3.5507,-3.5514,-3.5514,-3.5514,0.0,0.0,0.0,0.0,0.0,0.0,-3.4484,0.0,-3.4539,0.0,0.0,0.0,0.0,0.0,0.0,0.0,0.0,0.0,0.0,0.0,0.0,0.0,0.0,0.0,0.0,0.0,0.0,0.0,-3.5285,-3.5315,-3.533,-3.533,-3.536,-3.5435,-3.5442,-3.5469,-3.5547,-3.554,-3.5571,-3.5606,-3.5637,-3.5648,-3.5709,-3.5701,-3.5706,-3.5706,-3.5697,-3.5702,-3.5702,-3.5702,-3.5702,-3.5702,-3.5702,-3.5698,-3.5708,-3.5708,-3.5699,-3.5703,-3.5703,-3.5693,-3.5697,-3.5651,-3.5643,-3.5633,-3.5602,-3.5596,-3.5596,-3.5604,-3.5598,-3.5585,-3.5541,-3.5534,-3.5521,-3.5442,-3.5429,-3.5429,-3.5388,-3.5374,-3.5372,-3.5357,-3.5323,-3.533,-3.5422,-3.5429,-3.5429,-3.5429,-3.5429,-3.5429,-3.5429,-3.5429,-3.5435,-3.5482,-3.5468,-3.5468,-3.5508,-3.5455,-3.5446,-3.5446,-3.5446,-3.546,-3.55,-3.55,-3.55,-3.55,-3.55,-3.55,-3.55,-3.55,-3.55,-3.55,-3.55,-3.55,-3.4623,0.0,0.0,0.0,0.0,0.0,0.0,0.0,0.0,0.0,0.0,0.0,0.0,0.0,0.0,0.0,0.0,0.0,0.0,0.0,0.0,0.0,0.0,0.0,0.0,0.0,0.0,-3.5168,-3.5226,-3.5254,-3.5278,-3.5278,-3.53,-3.5372,-3.5379,-3.5415,-3.5476,-3.5496,-3.5515,-3.5577,-3.5589,-3.5626,-3.5673,-3.5673,-3.5679,-3.5704,-3.5704,-3.5704,-3.5704,-3.5704,-3.5704,-3.5704,-3.5704,-3.5687,-3.5674,-3.5684,-3.5688,-3.5667,-3.5667,-3.5665,-3.5662,-3.562,-3.5596,-3.5591,-3.5573,-3.5566,-3.556,-3.5528,-3.5522,-3.5509,-3.5467,-3.5453,-3.5412,-3.5327,-3.5293,-3.5293,-3.5278,-3.527,-3.5262,-3.5262,-3.5254,-3.5246,-3.5246,-3.5278,-3.5308,-3.5308,-3.5308,-3.5308,-3.5308,-3.5308,-3.5323,-3.5364,-3.5372,-3.5379,-3.5446,-3.5405,-3.5372,-3.5372,-3.5372,-3.5386,-3.5446,-3.5453,-3.5453,-3.5467,-3.5467,-3.5474,-3.55,-3.55,-3.55,-3.55,-3.55,-3.55,0.0,0.0,0.0,-3.4316,0.0,0.0,0.0,0.0,-3.4386,0.0,0.0,0.0,0.0,0.0,0.0,0.0,0.0,0.0,0.0,0.0,0.0,0.0,0.0,0.0,0.0,0.0,0.0,-3.5101,-3.5101,-3.5117,-3.5209,-3.519,-3.5231,-3.5308,-3.5364,-3.5405,-3.5412,-3.5469,-3.549,-3.5496,-3.5566,-3.5596,-3.5606,-3.5606,-3.5643,-3.5704,-3.5704,-3.5704,-3.5704,-3.5704,-3.5704,-3.5704,-3.5704,-3.5648,-3.5612,-3.5679,-3.5654,-3.5606,-3.5606,-3.5608,-3.5598,-3.5598,-3.5598,-3.5585,-3.5527,-3.5507,-3.5486,-3.5357,-3.5315,-3.5315,-3.5315,-3.5315,-3.53,-3.53,-3.5293,-3.5277,-3.5218,-3.5157,-3.5105,-3.5105,-3.5108,-3.5101,-3.5101,-3.5207,-3.5308,-3.5308,-3.5308,-3.5308,-3.5308,-3.5308,-3.5308,-3.5289,-3.5289,-3.5289,-3.5315,-3.5289,-3.5289,-3.5289,-3.5289,-3.5289,-3.5315,-3.5315,-3.533,-3.5405,-3.5405,-3.5446,-3.55,-3.55,-3.55,-3.55,-3.55,-3.55,0.0,0.0,-3.4374,-3.4316,0.0,0.0,0.0,0.0,0.0,0.0,0.0,0.0,0.0,0.0,0.0,0.0,0.0,0.0,0.0,0.0,0.0,0.0,0.0,0.0,0.0,0.0,0.0,-3.4955,-3.5011,-3.5056,-3.5136,-3.5189,-3.5212,-3.5231,-3.5308,-3.532,-3.533,-3.54,-3.5462,-3.5501,-3.5528,-3.556,-3.5596,-3.5596,-3.5622,-3.5628,-3.5628,-3.5628,-3.5628,-3.5628,-3.5628,-3.5628,-3.5628,-3.5622,-3.5596,-3.5626,-3.562,-3.5596,-3.5596,-3.5572,-3.5522,-3.5528,-3.5508,-3.5455,-3.5386,-3.5364,-3.5357,-3.5304,-3.5308,-3.5273,-3.5179,-3.5163,-3.5174,-3.517,-3.5162,-3.5153,-3.5082,-3.5046,-3.5019,-3.4992,-3.4973,-3.4974,-3.4974,-3.501,-3.5072,-3.5151,-3.5168,-3.5168,-3.5168,-3.5168,-3.5176,-3.5163,-3.5163,-3.5198,-3.5223,-3.5187,-3.5198,-3.5231,-3.5231,-3.5254,-3.5308,-3.5308,-3.5315,-3.533,-3.533,-3.5338,-3.5364,-3.5412,-3.5427,-3.5427,-3.5486,-3.55,-3.4517,-3.442,0.0,-3.4281,-3.4233,0.0,-3.4197,0.0,0.0,0.0,0.0,0.0,0.0,0.0,0.0,0.0,0.0,0.0,0.0,-3.4386,0.0,0.0,0.0,0.0,0.0,0.0,-3.4821,-3.485,-3.4908,-3.4955,0.0,0.0,-3.5119,-3.516,-3.5237,-3.5258,-3.5262,-3.5342,-3.5398,-3.542,-3.5449,-3.5502,-3.556,-3.5554,-3.5585,-3.5598,-3.5598,-3.5598,-3.5598,-3.5598,-3.5598,-3.5598,-3.5598,-3.5591,-3.5566,-3.5596,-3.5578,-3.5554,-3.5541,-3.5476,-3.5423,-3.5434,-3.5398,-3.5361,-3.5278,-3.5254,-3.5239,-3.5237,-3.522,-3.5204,-3.5089,-3.5053,-3.5054,-3.4992,-3.5001,-3.4983,-3.4936,-3.4927,-3.4917,-3.486,-3.486,-3.486,-3.486,-3.486,-3.4908,-3.5011,-3.5057,-3.5066,-3.5066,-3.5084,-3.5101,-3.5098,-3.5098,-3.5126,-3.516,-3.5115,-3.5126,-3.516,-3.516,-3.5185,-3.5223,-3.5258,-3.5254,-3.5262,-3.5278,-3.5293,-3.5308,-3.533,-3.5364,-3.5364,-3.5412,-3.542]},{"header":{"parameterUnit":"m.s-1","parameterCategory":1,"la1":30.6,"la2":29.2853,"lo1":-89.7004,"lo2":-87.6739,"dy":0.0162,"dx":0.0183,"nx":112,"ny":82,"refTime":"2023-07-22T12:00:00:Z","depth":0,"parameterNumber":3,"parameterNumberName":"V-component_of_WINDS"},"data":[0.0,0.0,0.0,0.0,0.0,0.0,0.0,0.0,0.0,0.0,0.0,0.0,0.0,0.0,0.0,0.0,0.0,0.0,0.0,0.0,0.0,0.0,0.0,0.0,0.0,0.0,0.0,0.0,0.0,0.0,0.0,0.0,0.0,0.0,0.0,0.0,0.0,0.0,0.0,0.0,0.0,0.0,0.0,0.0,0.0,0.0,0.0,0.0,0.0,0.0,0.0,0.0,0.0,0.0,0.0,0.0,0.0,0.0,0.0,0.0,0.0,0.0,0.0,0.0,0.0,0.0,0.0,0.0,0.0,0.0,0.0,0.0,0.0,0.0,0.0,0.0,0.0,0.0,0.0,0.0,0.0,0.0,0.0,0.0,0.0,0.0,0.0,0.0,0.0,0.0,-0.6387,-0.6387,-0.6387,-0.6387,-0.6387,-0.6387,-0.6387,-0.6387,0.0,0.0,0.0,0.0,0.0,0.0,0.0,0.0,0.0,0.0,0.0,0.0,0.0,0.0,0.0,0.0,0.0,0.0,0.0,0.0,0.0,0.0,0.0,0.0,0.0,0.0,0.0,0.0,0.0,0.0,0.0,0.0,0.0,0.0,0.0,0.0,0.0,0.0,0.0,0.0,0.0,0.0,0.0,0.0,0.0,0.0,0.0,0.0,0.0,0.0,0.0,0.0,0.0,0.0,0.0,0.0,0.0,0.0,0.0,0.0,0.0,0.0,0.0,0.0,0.0,0.0,0.0,0.0,0.0,0.0,0.0,0.0,0.0,0.0,0.0,0.0,0.0,0.0,0.0,0.0,0.0,0.0,0.0,0.0,0.0,0.0,0.0,0.0,0.0,0.0,0.0,0.0,0.0,0.0,0.0,0.0,0.0,0.0,0.0,0.0,0.0,0.0,0.0,0.0,-0.6387,-0.6387,-0.6387,-0.6387,-0.6387,-0.6387,-0.6387,-0.6387,0.0,0.0,0.0,0.0,0.0,0.0,0.0,0.0,0.0,0.0,0.0,0.0,0.0,0.0,0.0,0.0,0.0,0.0,0.0,0.0,0.0,0.0,0.0,0.0,0.0,0.0,0.0,0.0,0.0,0.0,0.0,0.0,0.0,0.0,0.0,0.0,0.0,0.0,0.0,0.0,0.0,0.0,0.0,0.0,0.0,0.0,0.0,0.0,0.0,0.0,0.0,0.0,0.0,0.0,0.0,0.0,0.0,0.0,0.0,0.0,0.0,0.0,0.0,0.0,0.0,0.0,0.0,0.0,0.0,0.0,0.0,0.0,0.0,0.0,0.0,0.0,0.0,0.0,0.0,0.0,0.0,0.0,0.0,0.0,0.0,0.0,0.0,0.0,0.0,0.0,0.0,0.0,0.0,0.0,0.0,0.0,0.0,0.0,0.0,0.0,0.0,0.0,0.0,-0.6387,-0.6387,-0.6387,-0.6387,-0.6387,-0.6387,-0.6387,-0.6387,-0.6387,-0.6387,0.0,0.0,0.0,0.0,0.0,0.0,0.0,0.0,0.0,0.0,0.0,0.0,0.0,0.0,0.0,0.0,0.0,0.0,0.0,0.0,0.0,0.0,0.0,0.0,0.0,0.0,0.0,0.0,0.0,0.0,0.0,0.0,0.0,0.0,0.0,0.0,0.0,0.0,0.0,0.0,0.0,0.0,0.0,0.0,0.0,0.0,0.0,0.0,0.0,0.0,0.0,0.0,0.0,0.0,0.0,0.0,0.0,0.0,0.0,0.0,0.0,0.0,0.0,0.0,0.0,0.0,0.0,0.0,0.0,0.0,0.0,0.0,0.0,0.0,0.0,0.0,0.0,0.0,0.0,0.0,0.0,0.0,0.0,0.0,0.0,0.0,0.0,0.0,0.0,0.0,0.0,0.0,0.0,0.0,0.0,0.0,0.0,0.0,0.0,0.0,0.0,0.0,-0.6387,-0.6387,-0.6387,-0.6387,-0.6387,-0.6387,-0.6387,-0.6387,-0.6387,-0.6387,0.0,0.0,0.0,0.0,0.0,0.0,0.0,0.0,0.0,0.0,0.0,0.0,0.0,0.0,0.0,0.0,0.0,0.0,0.0,0.0,0.0,0.0,0.0,0.0,0.0,0.0,0.0,0.0,0.0,0.0,0.0,0.0,0.0,0.0,0.0,0.0,0.0,0.0,0.0,0.0,0.0,0.0,0.0,0.0,0.0,0.0,0.0,0.0,0.0,0.0,0.0,0.0,0.0,0.0,0.0,0.0,0.0,0.0,0.0,0.0,0.0,0.0,0.0,0.0,0.0,0.0,0.0,0.0,0.0,0.0,0.0,0.0,0.0,0.0,0.0,0.0,0.0,0.0,0.0,0.0,0.0,0.0,0.0,0.0,0.0,0.0,0.0,0.0,0.0,0.0,0.0,0.0,0.0,0.0,0.0,0.0,0.0,0.0,0.0,0.0,0.0,0.0,-0.6387,-0.6387,-0.6387,-0.6387,-0.6387,-0.6387,-0.6387,-0.6387,-0.6387,-0.6387,0.0,0.0,0.0,0.0,0.0,0.0,0.0,0.0,0.0,0.0,0.0,0.0,0.0,0.0,0.0,0.0,0.0,0.0,0.0,0.0,0.0,0.0,0.0,0.0,0.0,0.0,0.0,0.0,0.0,0.0,0.0,0.0,0.0,0.0,0.0,0.0,0.0,0.0,0.0,0.0,0.0,0.0,0.0,0.0,0.0,0.0,0.0,0.0,0.0,0.0,0.0,0.0,0.0,0.0,0.0,0.0,0.0,0.0,0.0,0.0,0.0,0.0,0.0,0.0,0.0,0.0,0.0,0.0,0.0,0.0,0.0,0.0,0.0,0.0,0.0,0.0,0.0,0.0,0.0,0.0,0.0,0.0,0.0,0.0,0.0,0.0,0.0,0.0,0.0,0.0,0.0,0.0,0.0,0.0,0.0,0.0,0.0,0.0,0.0,0.0,0.0,0.0,-0.6387,-0.6387,0.0,-0.6387,-0.6387,-0.6387,-0.6387,-0.6387,-0.6387,0.0,0.0,0.0,0.0,0.0,0.0,0.0,0.0,0.0,0.0,0.0,0.0,0.0,0.0,0.0,0.0,0.0,0.0,0.0,0.0,0.0,0.0,0.0,0.0,0.0,0.0,0.0,0.0,0.0,0.0,0.0,0.0,0.0,0.0,0.0,0.0,0.0,0.0,0.0,0.0,0.0,0.0,0.0,0.0,0.0,0.0,0.0,0.0,0.0,0.0,0.0,0.0,0.0,0.0,0.0,0.0,0.0,0.0,0.0,0.0,0.0,0.0,0.0,0.0,0.0,0.0,0.0,0.0,0.0,0.0,0.0,0.0,0.0,0.0,0.0,0.0,0.0,0.0,0.0,0.0,0.0,0.0,0.0,0.0,0.0,0.0,0.0,0.0,0.0,0.0,0.0,0.0,0.0,0.0,0.0,0.0,0.0,0.0,0.0,0.0,0.0,0.0,-0.6387,-0.6387,-0.6387,0.0,-0.6387,-0.6387,-0.6387,-0.6387,-0.6387,-0.6387,0.0,0.0,0.0,0.0,0.0,0.0,0.0,0.0,0.0,0.0,0.0,0.0,0.0,0.0,0.0,0.0,0.0,0.0,0.0,0.0,0.0,0.0,0.0,0.0,0.0,0.0,0.0,0.0,0.0,0.0,0.0,0.0,0.0,0.0,0.0,0.0,0.0,0.0,0.0,0.0,0.0,0.0,0.0,0.0,0.0,0.0,0.0,0.0,0.0,0.0,0.0,0.0,0.0,0.0,0.0,0.0,0.0,0.0,0.0,0.0,0.0,0.0,0.0,0.0,0.0,0.0,0.0,0.0,0.0,0.0,0.0,0.0,0.0,0.0,0.0,0.0,0.0,0.0,0.0,0.0,0.0,0.0,0.0,0.0,0.0,0.0,0.0,0.0,0.0,0.0,0.0,0.0,0.0,0.0,0.0,0.0,0.0,0.0,0.0,0.0,0.0,0.0,-0.6387,-0.6387,-0.6387,-0.6387,-0.6387,-0.6387,-0.6387,-0.6387,-0.6387,0.0,0.0,0.0,0.0,0.0,0.0,0.0,0.0,0.0,0.0,0.0,0.0,0.0,0.0,0.0,0.0,0.0,0.0,0.0,0.0,0.0,0.0,0.0,0.0,0.0,0.0,0.0,0.0,0.0,0.0,0.0,0.0,0.0,0.0,0.0,0.0,0.0,0.0,0.0,0.0,0.0,0.0,0.0,0.0,0.0,0.0,0.0,0.0,0.0,0.0,0.0,0.0,0.0,0.0,0.0,0.0,0.0,0.0,0.0,0.0,0.0,0.0,0.0,0.0,0.0,0.0,0.0,0.0,0.0,0.0,0.0,0.0,0.0,0.0,0.0,0.0,0.0,0.0,0.0,0.0,0.0,0.0,0.0,0.0,0.0,0.0,0.0,0.0,0.0,0.0,0.0,0.0,0.0,0.0,0.0,0.0,0.0,0.0,0.0,0.0,0.0,0.0,0.0,-0.6387,-0.6387,-0.6387,-0.6387,-0.6387,-0.6387,-0.6387,-0.6387,-0.6387,-0.6387,0.0,0.0,0.0,0.0,0.0,0.0,0.0,0.0,0.0,0.0,0.0,0.0,0.0,0.0,0.0,0.0,0.0,0.0,0.0,0.0,0.0,0.0,0.0,0.0,0.0,0.0,0.0,0.0,0.0,0.0,0.0,0.0,0.0,0.0,0.0,0.0,0.0,0.0,0.0,0.0,0.0,0.0,0.0,0.0,0.0,0.0,0.0,0.0,0.0,0.0,0.0,0.0,0.0,0.0,0.0,0.0,0.0,0.0,0.0,0.0,0.0,0.0,0.0,0.0,0.0,0.0,0.0,0.0,0.0,0.0,0.0,0.0,0.0,0.0,0.0,0.0,0.0,0.0,0.0,0.0,0.0,0.0,0.0,0.0,0.0,0.0,0.0,0.0,0.0,0.0,0.0,0.0,0.0,0.0,0.0,0.0,0.0,0.0,0.0,0.0,0.0,0.0,-0.6387,-0.6387,-0.6387,-0.6387,-0.6387,-0.6387,-0.6387,-0.6387,-0.6387,-0.6387,0.0,0.0,0.0,0.0,0.0,0.0,0.0,0.0,0.0,0.0,0.0,0.0,0.0,0.0,0.0,0.0,0.0,0.0,0.0,0.0,0.0,0.0,0.0,0.0,0.0,0.0,0.0,0.0,0.0,0.0,0.0,0.0,0.0,0.0,0.0,0.0,0.0,0.0,0.0,0.0,0.0,0.0,0.0,0.0,0.0,0.0,0.0,0.0,0.0,0.0,0.0,0.0,0.0,0.0,0.0,0.0,0.0,0.0,0.0,0.0,0.0,0.0,0.0,0.0,0.0,0.0,0.0,0.0,0.0,0.0,0.0,0.0,0.0,0.0,0.0,0.0,0.0,0.0,0.0,0.0,0.0,0.0,0.0,0.0,0.0,0.0,0.0,0.0,0.0,0.0,0.0,0.0,0.0,0.0,0.0,0.0,0.0,0.0,0.0,0.0,0.0,0.0,-0.6387,-0.6387,-0.6387,-0.6387,-0.6387,-0.6387,-0.6387,-0.6387,-0.6387,-0.6387,0.0,0.0,0.0,0.0,0.0,0.0,0.0,0.0,0.0,0.0,0.0,0.0,0.0,0.0,0.0,0.0,0.0,0.0,0.0,0.0,0.0,0.0,0.0,0.0,0.0,0.0,0.0,0.0,0.0,0.0,0.0,0.0,0.0,0.0,0.0,0.0,0.0,0.0,0.0,0.0,0.0,0.0,0.0,0.0,0.0,0.0,0.0,0.0,0.0,0.0,0.0,0.0,0.0,0.0,0.0,0.0,0.0,0.0,0.0,0.0,-0.5395,0.0,0.0,0.0,0.0,0.0,0.0,0.0,0.0,0.0,0.0,0.0,0.0,0.0,0.0,0.0,0.0,0.0,0.0,0.0,0.0,0.0,0.0,0.0,0.0,0.0,0.0,0.0,0.0,0.0,0.0,0.0,0.0,0.0,0.0,0.0,0.0,0.0,0.0,0.0,0.0,0.0,-0.6387,-0.6387,-0.6387,-0.6387,-0.6387,-0.6387,-0.6387,-0.6387,-0.6387,-0.6387,-0.6387,0.0,0.0,0.0,0.0,0.0,0.0,0.0,0.0,0.0,0.0,0.0,0.0,0.0,0.0,0.0,0.0,0.0,0.0,0.0,0.0,0.0,0.0,0.0,0.0,0.0,0.0,0.0,0.0,0.0,0.0,0.0,0.0,0.0,0.0,0.0,0.0,0.0,0.0,0.0,0.0,0.0,0.0,0.0,0.0,0.0,0.0,0.0,0.0,0.0,0.0,0.0,0.0,0.0,0.0,0.0,0.0,0.0,0.0,0.0,0.0,-0.5395,0.0,0.0,0.0,0.0,0.0,0.0,0.0,0.0,0.0,0.0,0.0,0.0,0.0,0.0,0.0,0.0,0.0,0.0,0.0,0.0,0.0,0.0,0.0,0.0,0.0,0.0,0.0,0.0,0.0,0.0,0.0,0.0,0.0,0.0,0.0,0.0,0.0,0.0,0.0,0.0,-0.6676,-0.6676,-0.6643,-0.6562,-0.655,-0.6518,-0.6395,-0.6387,-0.6387,-0.6387,-0.6387,0.0,0.0,0.0,0.0,0.0,0.0,0.0,0.0,0.0,0.0,0.0,0.0,0.0,0.0,0.0,0.0,0.0,0.0,0.0,0.0,0.0,0.0,0.0,0.0,0.0,0.0,0.0,0.0,0.0,0.0,0.0,0.0,0.0,0.0,0.0,0.0,0.0,0.0,0.0,0.0,0.0,0.0,0.0,0.0,0.0,0.0,0.0,0.0,0.0,0.0,0.0,0.0,0.0,-0.58,-0.58,-0.58,-0.5839,-0.595,-0.6083,-0.5717,-0.5575,-0.5571,-0.5547,0.0,0.0,0.0,0.0,0.0,0.0,0.0,0.0,0.0,0.0,0.0,0.0,0.0,0.0,0.0,0.0,0.0,0.0,0.0,0.0,0.0,0.0,0.0,0.0,-0.6109,-0.6328,0.0,0.0,0.0,0.0,0.0,0.0,0.0,0.0,0.0,0.0,0.0,0.0,-0.6988,-0.6988,-0.6935,-0.6757,-0.6741,-0.6668,-0.6481,-0.6469,-0.6453,-0.6387,-0.6387,-0.6387,0.0,0.0,0.0,0.0,0.0,0.0,0.0,0.0,0.0,0.0,0.0,0.0,0.0,0.0,0.0,0.0,0.0,0.0,0.0,0.0,0.0,0.0,0.0,0.0,0.0,0.0,0.0,0.0,0.0,0.0,0.0,0.0,0.1046,0.0469,0.0,0.0,0.0,0.0,0.0,0.0,0.0,0.0,0.0,0.0,0.0,0.0,0.0,-0.5267,-0.5486,-0.5659,-0.5767,-0.58,-0.58,-0.58,-0.5803,-0.5986,-0.6061,-0.6093,-0.6225,0.0,-0.6267,-0.6133,0.0,0.0,0.0,0.0,0.0,0.0,0.0,0.0,0.0,0.0,0.0,0.0,0.0,0.0,0.0,0.0,0.0,0.0,0.0,0.0,0.0,0.0,-0.5921,-0.6115,-0.6404,-0.6625,0.0,-0.653,-0.6465,-0.6627,-0.666,0.0,0.0,0.0,0.0,0.0,0.0,0.0,-0.6988,-0.6988,-0.698,-0.6955,-0.6955,-0.6882,-0.6676,-0.666,-0.6591,-0.6395,-0.6387,-0.6387,-0.6387,-0.6387,0.0,0.0,0.0,0.0,0.0,0.0,0.0,0.0,0.0,0.0,0.0,0.0,0.0,0.0,0.0,0.0,0.0,0.0,0.0,0.0,0.0,0.0,0.0,0.0,0.0,0.0,0.0,0.0,0.0,0.123,0.0765,0.0182,-0.0255,-0.0692,0.0,0.0,0.0,0.0,0.0,0.0,0.0,0.0,0.0,-0.5197,-0.5454,-0.572,-0.5952,-0.6023,-0.6098,-0.6098,-0.6098,-0.6098,-0.6098,-0.6282,-0.6432,-0.6578,-0.6768,-0.6913,-0.6968,-0.6523,-0.6311,-0.6304,0.0,0.0,0.0,0.0,-0.6057,-0.6057,-0.5991,-0.583,0.0,-0.5582,0.0,0.0,0.0,0.0,0.0,0.0,0.0,0.0,0.0,0.0,-0.6379,-0.6444,-0.6677,-0.6873,-0.6873,-0.6808,-0.678,0.0,-0.6873,-0.6931,-0.7078,0.0,0.0,0.0,0.0,-0.729,-0.729,-0.729,-0.7249,-0.7119,-0.7106,-0.7033,-0.689,-0.678,-0.6647,-0.6566,-0.6473,-0.6387,-0.6387,-0.6387,-0.6387,0.0,0.0,0.0,0.0,0.0,0.0,0.0,0.0,0.0,0.0,0.0,0.0,0.0,0.0,0.0,0.0,0.0,0.0,0.0,0.0,0.0,0.0,0.0,0.0,0.0,0.0,0.0,0.0,0.0851,0.0483,0.0,-0.0632,-0.1115,0.0,0.0,0.0,0.0,0.0,0.0,-0.4457,-0.4851,-0.5254,-0.5647,-0.5879,-0.6133,-0.6412,-0.6412,-0.6412,-0.6412,-0.6412,-0.6412,-0.6412,-0.6606,-0.6834,-0.7031,-0.7188,-0.7363,-0.7525,-0.6873,-0.6624,-0.6617,-0.6574,-0.6555,-0.6555,-0.6484,-0.6488,-0.6488,-0.6412,-0.6227,-0.6024,-0.6024,-0.5841,-0.5542,-0.5335,0.0,0.0,0.0,0.0,-0.5983,-0.6211,-0.6459,-0.671,-0.6781,-0.6921,-0.7057,-0.7057,-0.7094,-0.711,0.0,-0.7057,-0.7114,-0.7261,0.0,0.0,0.0,0.0,-0.7484,-0.7484,-0.7484,-0.7435,-0.7305,-0.7293,-0.722,-0.7073,-0.6931,-0.6798,-0.6784,-0.6583,-0.6485,-0.6489,-0.6411,-0.6387,-0.6387,0.0,0.0,0.0,0.0,0.0,0.0,0.0,0.0,0.0,0.0,0.0,0.0,0.0,0.0,0.0,0.0,0.0,0.0,0.0,0.0,0.0,0.0,0.0,0.0,0.0,0.0,0.0,0.0,0.0,-0.0274,-0.0861,0.0,0.0,0.0,0.0,-0.3679,-0.3954,-0.4268,-0.4659,-0.5049,-0.5454,-0.5857,-0.6067,-0.6333,-0.6678,-0.6678,-0.6678,-0.6678,-0.6678,-0.6678,-0.6678,-0.6877,-0.7128,-0.7375,-0.7379,-0.7549,-0.7755,-0.732,-0.7175,-0.7159,-0.7021,-0.6952,-0.6952,-0.6746,-0.6674,-0.6674,-0.6452,-0.6405,-0.6365,-0.6365,-0.6219,-0.6036,-0.5815,-0.5779,0.0,0.0,-0.6086,-0.6194,-0.6563,-0.6674,-0.6746,-0.6956,-0.7086,-0.7175,-0.7175,-0.7338,-0.7407,0.0,-0.7175,-0.7265,-0.7439,0.0,-0.7472,-0.748,-0.7484,-0.7484,-0.7484,-0.7484,-0.748,-0.7472,-0.7472,-0.7399,-0.7187,-0.7167,-0.7127,-0.6988,-0.68,-0.6668,-0.668,-0.6513,-0.6387,-0.6387,-0.6387,0.0,0.0,0.0,0.0,0.0,0.0,0.0,0.0,0.0,0.0,0.0,0.0,0.0,0.0,0.0,0.0,0.0,0.0,0.0,0.0,0.0,0.0,0.0,0.0,0.0,0.0,0.0,0.0,-0.0864,-0.1257,0.0,-0.2405,-0.2807,-0.3268,-0.3934,-0.4306,-0.4673,-0.5119,-0.5525,-0.5909,-0.6201,-0.6412,-0.6565,-0.6702,-0.6702,-0.6702,-0.6702,-0.6702,-0.6702,-0.6702,-0.6902,-0.7154,-0.7405,-0.755,-0.7723,-0.7914,-0.7784,-0.7598,-0.7382,-0.7355,-0.7331,-0.7331,-0.726,-0.7222,-0.7218,-0.7143,-0.6957,-0.6737,-0.6482,-0.6344,-0.6273,-0.6197,-0.6197,-0.6219,-0.6364,-0.654,-0.6747,-0.697,-0.7114,-0.7222,-0.7293,-0.7346,-0.7391,-0.7391,-0.7439,-0.7464,-0.7403,-0.7391,-0.7411,-0.7472,-0.7484,-0.7484,-0.7484,-0.7484,-0.7484,-0.7484,-0.7484,-0.7484,-0.7484,-0.7484,-0.7456,-0.7399,-0.7289,-0.72,-0.7135,-0.6992,-0.6841,-0.67,-0.6631,-0.6542,-0.6387,-0.6387,-0.6387,0.0,0.0,0.0,0.0,0.0,0.0,0.0,0.0,0.0,0.0,0.0,0.0,0.0,0.0,0.0,0.0,0.0,0.0,0.0,0.0,0.0,0.0,0.0,0.0,0.0,0.0,-0.0473,-0.1232,-0.163,-0.2085,-0.2665,-0.3244,-0.3761,-0.4281,-0.4617,-0.5035,-0.5496,-0.5826,-0.6136,-0.6473,-0.6647,-0.68,-0.6848,-0.6848,-0.6848,-0.6848,-0.6848,-0.6848,-0.6848,-0.6971,-0.7186,-0.7447,-0.751,-0.7693,-0.7976,-0.7916,-0.7797,-0.7663,-0.7663,-0.7626,-0.7616,-0.7616,-0.7575,-0.7484,-0.7484,-0.7369,-0.7102,-0.6766,-0.6654,-0.6654,-0.6577,-0.6577,-0.66,-0.6753,-0.6934,-0.7112,-0.7264,-0.7407,-0.7484,-0.7484,-0.7484,-0.7484,-0.7484,-0.7484,-0.7484,-0.7484,-0.7484,-0.7484,-0.7484,-0.7484,-0.7484,-0.7484,-0.7484,-0.7484,-0.7484,-0.7484,-0.7484,-0.7484,-0.7484,-0.7484,-0.7484,-0.7378,-0.7313,-0.7313,-0.7143,-0.6993,-0.6879,-0.6761,-0.6639,-0.6513,-0.6448,-0.6387,-0.6387,0.0,0.0,0.0,0.0,0.0,0.0,0.0,0.0,0.0,0.0,0.0,0.0,0.0,0.0,0.0,0.0,0.0,0.0,0.0,0.0,0.0,0.0,0.0,-0.0039,-0.0354,-0.0794,-0.126,-0.1913,-0.2503,-0.2977,-0.3659,-0.4292,-0.4671,-0.4959,-0.5296,-0.5722,-0.5925,-0.6192,-0.6629,-0.681,-0.6967,-0.7109,-0.7109,-0.7109,-0.7109,-0.7109,-0.7109,-0.7109,-0.7105,-0.7241,-0.7503,-0.73,-0.7485,-0.7905,-0.7776,-0.7826,-0.7987,-0.8016,-0.791,-0.7808,-0.7808,-0.7694,-0.75,-0.75,-0.7496,-0.7492,-0.7265,-0.7227,-0.718,-0.698,-0.6903,-0.6942,-0.7142,-0.7223,-0.7257,-0.7446,-0.7484,-0.7484,-0.7484,-0.7484,-0.7484,-0.7484,-0.7484,-0.7484,-0.7484,-0.7484,-0.7484,-0.7484,-0.7484,-0.7484,-0.7484,-0.7484,0.0,-0.7484,-0.7484,-0.7484,-0.7484,-0.7484,-0.7484,-0.7484,-0.7484,-0.7484,-0.7484,-0.7326,-0.7195,-0.7187,-0.6895,-0.6704,-0.6696,-0.6513,-0.6387,-0.6387,0.0,0.0,0.0,0.0,0.0,0.0,0.0,0.0,0.0,0.0,0.0,0.0,0.0,0.0,0.0,0.0,0.0,0.0,0.0,0.0,0.0,0.0,-0.0122,-0.0444,-0.0898,-0.1324,-0.1749,-0.2292,-0.2773,-0.3305,-0.3871,-0.437,-0.4876,-0.5316,-0.5752,-0.6191,-0.6455,-0.6784,-0.7155,-0.7248,-0.7322,-0.7472,-0.7475,-0.7475,-0.7475,-0.7475,-0.7475,-0.7468,-0.736,-0.7444,-0.7656,-0.7507,-0.7614,-0.7916,-0.8037,-0.81,-0.8119,-0.803,-0.7983,-0.7943,-0.7943,-0.791,-0.7866,-0.7866,-0.7784,-0.7722,-0.7644,-0.7555,-0.7407,-0.7369,-0.7326,-0.733,-0.7407,-0.7407,-0.7446,-0.7484,-0.7484,-0.7484,-0.7484,-0.7484,-0.7484,-0.7484,-0.7484,-0.7484,-0.7484,-0.7484,-0.7484,-0.7484,-0.7484,-0.7484,-0.7484,-0.7484,0.0,-0.7484,-0.7484,-0.7484,-0.7484,-0.7484,-0.7484,-0.7484,-0.7484,-0.7484,-0.7484,-0.7439,-0.7358,-0.7191,-0.7094,-0.6956,-0.6718,-0.6509,-0.6387,0.0,0.0,0.0,0.0,0.0,0.0,0.0,0.0,0.0,0.0,0.0,0.0,0.0,0.0,0.0,0.0,0.0,0.0,0.0,0.0,0.0,0.0,-0.0083,-0.0419,-0.0796,-0.1175,-0.156,-0.2001,-0.2557,-0.3094,-0.3598,-0.4174,-0.4742,-0.5205,-0.5663,-0.6136,-0.6554,-0.683,-0.7145,-0.7465,-0.7465,-0.7509,-0.76,-0.76,-0.76,-0.76,-0.76,-0.76,-0.7597,-0.7509,-0.7557,-0.7643,-0.7559,-0.7699,-0.7925,-0.8012,-0.8106,0.0,0.0,0.0,0.0,0.0,-0.8012,-0.8012,-0.8012,-0.7947,-0.7866,-0.7866,-0.7793,-0.7707,-0.7707,-0.7707,-0.7691,-0.7657,-0.7637,-0.762,-0.7539,-0.7484,-0.7484,-0.7484,-0.7484,-0.7484,-0.7484,-0.7484,-0.7484,-0.7484,-0.7484,0.0,-0.7484,-0.7484,-0.7484,-0.7484,-0.7484,-0.7484,-0.7484,-0.7484,-0.7484,-0.7484,-0.7484,-0.7484,-0.7484,-0.7484,0.0,0.0,0.0,-0.7407,-0.7195,-0.7187,0.0,0.0,0.0,-0.6497,-0.6387,0.0,0.0,0.0,-0.6811,-0.7007,0.0,0.0,0.0,0.0,0.0,0.0,0.0,0.0,0.0,0.0,0.0,0.0,0.0,0.0,0.0,0.0,-0.043,-0.0828,-0.1092,-0.1333,-0.1668,-0.2089,-0.2794,-0.3434,-0.3901,-0.4634,-0.5177,-0.5598,-0.6066,-0.6487,-0.6788,0.0,0.0,0.0,0.0,-0.7631,-0.7648,-0.7648,-0.7648,-0.7648,-0.7648,-0.7648,-0.7648,-0.7631,-0.7624,-0.7624,-0.7607,-0.7691,-0.7875,-0.7872,-0.798,-0.8159,-0.8419,-0.8467,-0.8258,-0.8138,-0.8073,-0.8073,-0.8073,0.0,0.0,-0.8044,-0.8028,-0.8012,-0.8012,-0.8012,-0.7979,-0.7873,-0.7789,-0.7752,-0.7586,-0.7506,-0.7459,-0.7439,-0.7435,-0.747,-0.745,-0.7446,-0.7484,-0.7484,-0.7484,-0.7484,-0.7484,-0.7484,-0.7484,-0.7484,-0.7484,-0.7484,-0.7484,-0.7484,-0.7484,-0.7484,0.0,0.0,-0.7484,-0.7484,-0.7484,-0.7484,-0.7484,-0.7415,-0.7223,-0.7199,-0.7066,-0.6733,-0.6704,-0.6603,-0.6387,-0.6387,-0.6387,-0.642,-0.6749,-0.7012,0.0,0.0,0.0,0.0,0.0,0.0,0.0,0.0,0.0,0.0,0.0,0.0,0.0,0.0,0.0,-0.0302,-0.0738,-0.1094,-0.129,-0.1758,-0.2127,-0.2412,-0.3122,-0.3798,-0.4316,-0.4891,-0.5368,-0.567,-0.6332,-0.672,-0.6794,-0.7268,-0.7604,-0.7767,-0.777,-0.7831,-0.7904,-0.7904,-0.7904,-0.7904,0.0,0.0,-0.7901,-0.7828,-0.777,-0.7763,-0.7648,-0.7597,-0.7691,-0.7828,-0.8041,-0.8262,-0.8277,-0.8269,-0.8237,-0.8427,-0.8506,-0.8506,-0.8506,-0.8361,-0.8235,-0.8235,-0.8134,-0.8012,-0.8012,-0.8012,0.0,-0.7971,-0.7845,-0.7718,-0.7682,-0.7512,-0.7315,-0.7219,-0.7185,-0.7147,-0.7045,-0.7138,-0.7257,-0.7257,-0.7373,-0.7484,-0.7484,-0.7484,-0.7484,-0.7484,-0.7484,-0.7484,-0.7484,-0.7484,-0.7484,-0.7484,-0.7484,-0.7484,-0.7484,-0.7484,-0.7484,-0.7484,-0.7484,-0.7468,-0.7435,-0.7297,-0.7127,-0.6943,-0.6792,-0.6595,-0.6387,-0.6387,-0.6387,-0.642,-0.6749,-0.6913,0.0,0.0,0.0,0.0,0.0,0.0,0.0,0.0,0.0,0.0,0.0,0.054,0.0,0.0,-0.0259,-0.0528,-0.0839,-0.1246,-0.159,-0.1977,-0.2351,-0.2692,-0.3341,-0.3991,-0.4688,-0.5061,-0.5491,-0.5976,-0.6604,-0.6966,-0.6988,-0.7527,-0.7851,-0.7874,-0.7877,-0.7914,-0.7988,-0.7988,-0.7988,-0.7988,-0.7988,-0.7988,-0.7988,-0.7911,-0.7877,-0.7874,-0.7851,-0.7821,-0.7814,-0.7828,-0.7937,-0.8058,-0.8053,-0.8091,-0.8154,-0.8296,-0.8286,-0.8256,-0.8256,-0.8194,-0.8123,-0.8123,-0.8018,-0.7944,-0.7944,-0.7944,-0.7928,-0.7838,-0.7727,-0.7628,-0.7507,-0.7405,-0.73,-0.7219,-0.72,-0.7152,-0.7025,-0.707,-0.7125,-0.7076,-0.7215,-0.7334,-0.7334,-0.7446,-0.7484,-0.7484,-0.7484,-0.7484,-0.7484,-0.7484,-0.7484,-0.7484,-0.7484,-0.7484,-0.7484,-0.7484,-0.7484,-0.7484,-0.7484,-0.7484,-0.7484,-0.7399,-0.7273,-0.7094,-0.6943,-0.6759,-0.6546,-0.6461,-0.6387,-0.642,-0.6679,-0.6843,0.0,0.0,0.0,0.0,0.0,0.0,0.0,0.0,0.1147,0.086,0.0543,0.0256,0.0174,-0.0175,-0.0528,-0.076,-0.099,-0.1362,-0.1893,-0.2097,-0.2435,-0.304,-0.3512,-0.4168,-0.5022,-0.5279,-0.5617,-0.6295,-0.6832,-0.7122,-0.7182,-0.769,-0.7988,-0.7988,-0.7988,-0.7988,-0.7988,-0.7988,-0.7988,-0.7988,-0.7988,-0.7988,-0.7988,-0.7988,-0.7988,-0.7988,-0.7988,-0.7988,-0.7982,-0.7906,-0.7855,-0.7845,-0.7917,-0.7966,-0.8057,-0.8116,-0.8065,-0.7986,-0.796,-0.7949,-0.7941,-0.7911,-0.79,-0.79,-0.79,-0.79,-0.787,-0.7688,-0.7561,-0.7446,-0.7323,-0.7206,-0.7115,-0.7087,-0.7079,-0.7075,-0.6957,-0.7002,-0.6991,-0.6908,-0.7033,-0.7181,-0.715,-0.7296,-0.7446,-0.7484,-0.7484,-0.7484,-0.7484,-0.7484,-0.7484,-0.7484,-0.7484,-0.7484,-0.7484,-0.7484,-0.7484,-0.7484,-0.7484,-0.7484,-0.7484,-0.7484,-0.7403,-0.7191,-0.7082,-0.6898,-0.6714,-0.6505,-0.6387,-0.642,-0.6609,-0.6778,0.2628,0.2353,0.2157,0.1767,0.1637,0.1501,0.0,0.0,0.0923,0.0461,0.0342,0.0174,-0.0261,-0.053,-0.0761,-0.1031,-0.1276,-0.1616,-0.2082,-0.2289,-0.2632,-0.3363,-0.3709,-0.4298,-0.5324,-0.5499,-0.5805,-0.6365,-0.6866,-0.7173,-0.7185,-0.769,-0.7988,-0.7988,-0.7988,-0.7988,-0.7988,-0.7988,-0.7988,-0.7988,-0.7988,-0.7988,-0.7988,-0.7988,-0.7988,-0.7988,-0.7988,-0.7988,-0.7988,-0.7971,-0.7965,-0.7961,-0.7997,-0.7944,-0.789,-0.8175,-0.8253,-0.8219,-0.8124,-0.8076,-0.8053,-0.7949,-0.79,-0.79,-0.79,-0.79,-0.7896,-0.7874,-0.7515,-0.7156,-0.7139,-0.6825,-0.649,-0.6371,-0.63,-0.6348,-0.6379,-0.6595,-0.6754,-0.6805,-0.6973,-0.7079,-0.6968,-0.7099,-0.7296,-0.7484,-0.7484,-0.7484,-0.7484,-0.7484,-0.7484,-0.7484,-0.7484,-0.7484,-0.7484,-0.7484,-0.7484,-0.7484,-0.7484,-0.7484,-0.7484,-0.7484,-0.7403,-0.7191,-0.7082,-0.6902,-0.6692,-0.6509,-0.6387,-0.642,-0.6609,-0.6778,0.247,0.2198,0.0,0.0,0.1414,0.1143,0.0993,0.076,0.0558,0.0343,0.0087,-0.0177,-0.0354,-0.0713,-0.0991,0.0,-0.1334,-0.1679,-0.2243,-0.2379,-0.2709,-0.3488,-0.3789,-0.4233,-0.5029,-0.5413,-0.5737,-0.6139,-0.6789,-0.7188,-0.7188,-0.769,-0.7988,-0.7988,-0.7988,-0.7988,-0.7988,-0.7988,-0.7988,-0.7988,-0.7988,-0.7988,-0.7988,-0.7988,-0.7988,-0.7988,-0.7988,-0.7988,-0.7988,-0.7988,-0.7988,-0.7988,-0.7988,-0.7852,-0.7733,-0.7918,-0.7949,-0.7868,-0.7805,-0.783,-0.7773,-0.7565,-0.7437,-0.7368,-0.7185,-0.7077,-0.701,-0.701,-0.6874,-0.6697,-0.6697,-0.6564,-0.6372,-0.632,-0.6305,-0.6315,-0.6269,-0.6323,-0.6408,-0.6346,-0.6532,-0.669,-0.6623,-0.685,-0.7061,-0.7134,-0.7365,-0.7484,-0.7484,-0.7484,-0.7484,-0.7484,-0.7484,-0.7484,-0.7484,-0.7484,-0.7484,-0.7484,-0.7484,-0.7484,-0.7484,-0.7484,-0.7447,-0.7374,-0.72,-0.7025,-0.6882,-0.6668,-0.6526,-0.642,-0.6482,-0.6613,0.2254,0.0,0.0,0.1512,0.1197,0.0916,0.0805,0.0562,0.0307,0.022,-0.0133,-0.0403,-0.0493,-0.0811,-0.1136,-0.12,-0.1401,-0.1711,-0.2199,-0.2364,-0.2633,-0.3325,-0.3732,-0.4133,-0.4533,-0.5186,-0.5687,-0.5992,-0.6773,-0.7296,-0.7296,-0.7837,-0.816,-0.816,-0.816,-0.816,-0.816,-0.816,-0.816,-0.816,-0.816,-0.816,-0.816,-0.8119,-0.8102,-0.8102,-0.8008,-0.7988,-0.7988,-0.7988,-0.7939,-0.7892,-0.7892,-0.7743,-0.7481,-0.7622,-0.7566,-0.7477,-0.7438,-0.7424,-0.7418,-0.7183,-0.7007,-0.6882,-0.6645,-0.646,-0.6355,-0.6263,-0.6192,-0.6121,-0.6121,-0.6077,-0.603,-0.603,-0.603,-0.6007,-0.5964,-0.6031,-0.6036,-0.5987,-0.6144,-0.6276,-0.6237,-0.6503,-0.6753,-0.6753,-0.7057,-0.7369,-0.7407,-0.7484,-0.7484,-0.7484,-0.7484,-0.7484,-0.7484,-0.7484,-0.7484,-0.7484,-0.7484,-0.7484,-0.7484,-0.7484,-0.7484,-0.7484,-0.7313,-0.7135,-0.6988,-0.6812,-0.6599,-0.6387,-0.6387,-0.6515,0.0,0.0,0.1755,0.1171,0.1027,0.0869,0.0435,0.0353,0.0314,0.0045,-0.0224,-0.0448,-0.0673,-0.0912,-0.1202,-0.1434,-0.153,-0.1717,-0.1965,-0.2243,-0.252,-0.2775,-0.353,-0.3982,0.0,-0.4985,-0.5687,-0.5992,-0.6907,-0.7491,-0.7491,-0.8131,-0.8469,-0.8469,-0.8469,-0.8469,-0.8469,-0.8469,-0.8469,-0.8469,-0.8469,-0.8469,-0.8465,-0.8326,-0.8313,-0.8255,-0.8106,-0.7988,-0.7988,-0.7988,-0.7842,-0.7596,-0.7596,-0.7444,-0.7238,-0.7232,-0.7229,-0.7208,-0.7085,-0.7043,-0.7018,-0.6836,-0.6791,-0.6741,-0.6499,-0.6366,-0.627,-0.599,-0.5682,-0.5416,-0.5416,-0.5235,-0.5053,-0.5053,-0.5053,-0.5099,-0.5366,-0.5586,-0.5766,-0.5863,-0.5951,-0.5985,-0.5851,-0.6077,-0.6338,-0.6338,-0.6676,-0.698,-0.718,-0.7369,-0.7484,-0.7484,-0.7484,-0.7484,-0.7484,-0.7484,-0.7484,-0.7484,-0.7484,-0.7484,-0.7484,-0.7484,-0.7484,-0.7484,-0.7313,-0.7135,-0.6988,-0.6812,-0.6599,-0.6387,-0.6387,-0.6515,0.0,0.0,0.163,0.1113,0.0909,0.0742,0.0443,0.0268,0.009,0.0,-0.0224,-0.0448,-0.0673,-0.0912,-0.1208,-0.1461,-0.1545,-0.1677,-0.1949,-0.2212,-0.2522,-0.2775,-0.3331,0.0,0.0,0.0,0.0,-0.5846,-0.6774,-0.7365,-0.758,-0.7935,-0.8272,-0.8482,-0.8482,-0.8482,-0.8482,-0.8482,-0.8482,-0.8482,-0.8482,-0.8482,-0.8479,-0.8431,-0.8307,-0.8092,-0.7996,-0.7832,-0.7569,-0.7525,-0.7437,-0.7341,-0.7341,-0.7191,-0.6892,-0.6739,-0.6537,-0.6437,-0.6746,-0.688,-0.6822,-0.6385,-0.622,-0.6155,-0.5866,-0.5739,-0.5605,-0.5319,-0.5106,-0.494,-0.4801,-0.4615,-0.452,-0.452,-0.4656,-0.4837,-0.4928,-0.5102,-0.5265,-0.5274,-0.5483,-0.5619,-0.5493,-0.5733,-0.6054,-0.6274,-0.6641,-0.698,-0.718,-0.7257,-0.7334,-0.7484,-0.7484,-0.7484,-0.7484,-0.7484,-0.7484,-0.7484,-0.7484,-0.7484,-0.7484,-0.7484,-0.7484,-0.7484,-0.7423,-0.7248,-0.6988,-0.6931,-0.6712,-0.6387,-0.6387,-0.6449,0.0,0.1839,0.1582,0.1006,0.0792,0.0618,0.0313,0.0135,0.0,0.0,-0.0224,-0.0448,-0.0583,-0.0872,-0.1174,-0.138,-0.1512,-0.1644,-0.1816,-0.207,-0.2372,-0.2623,-0.313,-0.3594,0.0,0.0,0.0,-0.5798,-0.6613,-0.7236,-0.7505,-0.7921,-0.8267,-0.8481,-0.8592,-0.8645,-0.8645,-0.8645,-0.8645,-0.8645,-0.8535,-0.8481,-0.8478,-0.8318,-0.8136,-0.7918,-0.7832,-0.7668,-0.7455,-0.7316,-0.716,-0.7003,-0.6956,-0.6689,-0.6339,-0.6187,-0.5939,-0.5792,-0.6242,-0.6392,-0.6292,-0.5842,-0.5695,-0.5588,-0.5199,-0.503,-0.4905,-0.4614,-0.4505,-0.4386,-0.4214,-0.412,-0.407,-0.4039,-0.4168,-0.4304,-0.4304,-0.4478,-0.4652,-0.4743,-0.4971,-0.5125,-0.5097,-0.5311,-0.565,-0.5999,-0.6254,-0.6598,-0.7022,-0.7099,-0.7176,-0.7369,-0.7411,-0.7407,-0.7484,-0.7484,-0.7484,-0.7484,-0.7484,-0.7484,-0.7484,-0.7484,-0.7484,-0.7484,-0.7446,-0.7262,-0.6973,-0.6841,-0.6627,-0.6279,-0.6316,-0.6317,0.2048,0.1839,0.1531,0.0892,0.0718,0.0583,0.0135,0.0,0.0,0.0,-0.0224,-0.0403,0.0,0.0,-0.1191,-0.1192,-0.1428,-0.1564,-0.1616,-0.1819,-0.2071,0.0,0.0,0.0,0.0,0.0,0.0,-0.5716,0.0,-0.7103,-0.7368,-0.8084,-0.8484,-0.8484,-0.8712,-0.883,-0.883,-0.883,-0.883,-0.883,-0.8598,-0.8484,-0.8481,-0.8016,-0.7795,-0.7789,-0.7608,-0.7554,-0.7542,-0.7407,-0.7038,-0.6557,-0.6441,-0.6042,-0.5586,-0.5586,-0.5388,-0.519,-0.5436,-0.5536,-0.5486,-0.5238,-0.514,-0.5039,-0.4539,-0.4333,-0.4223,-0.3974,-0.3826,-0.3755,-0.368,-0.3658,-0.359,-0.356,-0.3542,-0.3542,-0.3542,-0.3717,-0.3939,-0.421,-0.4401,-0.4522,-0.4636,-0.4849,-0.509,-0.5521,-0.5559,-0.5867,-0.6749,-0.6865,-0.6945,-0.718,-0.718,-0.7257,-0.7484,-0.7484,-0.7484,-0.7484,-0.7484,-0.7484,-0.7484,-0.7484,-0.7484,-0.7484,-0.7296,-0.7095,-0.6878,-0.6563,-0.6294,-0.6103,-0.6163,-0.6178,0.2015,0.1729,0.1381,0.1075,0.0852,0.0628,0.0359,0.0135,0.0,0.0,-0.0045,-0.018,0.0,0.0,0.0,-0.1142,-0.1266,0.0,-0.1563,-0.1819,0.0,0.0,0.0,-0.305,-0.3365,-0.3899,0.0,0.0,-0.621,-0.6893,-0.7221,-0.7642,-0.7937,-0.81,-0.8211,-0.8211,-0.8211,-0.8211,-0.8211,-0.8211,-0.8156,-0.8156,-0.8097,-0.8008,-0.7831,-0.7659,-0.7314,-0.6991,-0.6762,-0.6434,-0.618,-0.5999,-0.597,-0.5708,-0.5288,-0.5085,-0.4836,-0.4587,-0.4435,-0.4535,-0.4638,-0.4384,-0.4284,-0.4284,-0.4133,-0.4069,-0.4005,-0.3757,-0.3461,-0.3249,-0.2994,-0.276,-0.2578,-0.257,-0.2825,-0.3092,-0.3092,-0.3406,-0.3674,-0.3765,-0.4007,-0.4263,-0.438,-0.4508,-0.4753,-0.5098,-0.5162,-0.5473,-0.6331,-0.6451,-0.6602,-0.6942,-0.698,-0.7061,-0.7257,-0.7296,-0.7334,-0.7484,-0.7484,-0.7484,-0.7484,-0.7373,-0.7296,-0.7296,-0.7061,-0.6863,-0.6663,-0.6495,-0.6294,-0.6103,-0.6,-0.6053,0.2018,0.178,0.148,0.1166,0.0987,0.0807,0.0583,0.0404,0.0314,0.0314,0.0224,0.0,0.0,0.0,0.0,0.0,0.0,0.0,-0.1395,-0.1659,-0.1869,0.0,-0.2373,0.0,-0.3142,-0.3601,-0.4089,0.0,-0.5569,-0.6376,-0.6935,-0.7268,-0.7549,-0.7826,-0.7937,-0.7989,-0.7989,-0.7989,-0.7989,-0.7989,-0.7881,-0.7768,-0.7654,-0.749,-0.7271,-0.6993,0.0,-0.6568,-0.6394,-0.6121,-0.5804,-0.555,-0.5451,-0.512,-0.4636,-0.4485,-0.4286,-0.3986,-0.3732,-0.3682,-0.3732,-0.3783,-0.3732,-0.3632,-0.353,-0.3379,-0.3278,-0.3128,-0.2954,-0.2769,-0.257,-0.2379,-0.2241,-0.2195,-0.2394,-0.2599,-0.2599,-0.278,-0.305,-0.3272,-0.3568,-0.3879,-0.4002,-0.4162,-0.4308,-0.4557,-0.4693,-0.4965,-0.5631,-0.5944,-0.6254,-0.6602,-0.6714,-0.6868,-0.7061,-0.7061,-0.7099,-0.7211,-0.7249,-0.7249,-0.7249,-0.7138,-0.7061,-0.7061,-0.6868,-0.6709,-0.6583,-0.6273,-0.6079,-0.5958,-0.5828,-0.5818,0.2101,0.195,0.1744,0.13,0.1166,0.1076,0.0807,0.0718,0.0718,0.0718,0.0,0.0,0.0448,0.0,-0.0323,-0.0324,0.0,-0.1171,-0.1177,-0.1444,-0.1662,-0.192,-0.2171,-0.2506,-0.2911,-0.3458,-0.3832,-0.3959,-0.4754,-0.5594,-0.649,-0.6879,-0.7213,-0.744,-0.766,-0.7768,-0.7768,-0.7768,-0.7768,-0.7768,-0.7551,-0.7326,-0.7046,-0.6771,-0.6492,-0.6219,-0.6216,0.0,-0.6098,-0.5953,-0.5586,-0.5065,-0.4974,-0.4525,-0.3945,-0.3885,-0.3734,-0.3433,-0.318,-0.2927,-0.2826,-0.3281,-0.3281,-0.3029,-0.2826,-0.2573,-0.2422,-0.2422,-0.2371,-0.2311,-0.2267,-0.2226,-0.2184,-0.214,-0.2141,-0.2154,-0.2154,-0.2154,-0.2333,-0.2734,-0.3136,-0.3461,-0.3546,-0.3722,-0.3883,-0.3977,-0.4192,-0.4462,-0.4849,-0.5395,-0.5902,-0.618,-0.637,-0.6598,-0.6788,-0.6826,-0.6865,-0.6903,-0.6903,-0.6903,-0.6903,-0.6865,-0.6865,-0.6865,-0.6676,-0.6563,-0.6563,-0.6059,-0.58,-0.5793,-0.5627,-0.5583,0.2301,0.2143,0.1975,0.1742,0.1525,0.13,0.1076,0.0852,0.0,0.0,0.0,0.0628,0.0628,0.045,0.0,-0.0046,0.0,0.0,0.0,0.0,-0.1639,0.0,0.0,0.0,0.0,0.0,0.0,0.0,0.0,-0.465,-0.5594,-0.6158,-0.6497,-0.6497,-0.655,-0.6606,-0.6606,-0.6606,-0.6606,-0.6606,-0.6553,-0.6497,-0.6442,-0.6386,-0.6216,-0.588,-0.5652,0.0,-0.5096,-0.4856,-0.4639,-0.4454,-0.4431,-0.414,-0.3707,-0.3451,-0.3179,-0.2876,-0.2623,-0.2522,-0.2472,-0.2573,-0.2573,-0.2522,-0.2472,-0.2422,-0.2422,-0.2422,-0.2221,-0.2063,-0.2073,-0.1839,-0.1614,-0.1627,-0.173,-0.1884,-0.1884,-0.2064,-0.2243,-0.2288,-0.2683,-0.2949,-0.2794,-0.3183,-0.3499,-0.351,-0.3722,-0.3997,-0.4233,-0.4774,-0.5318,-0.5676,-0.5906,-0.6135,-0.6374,-0.6563,-0.6714,-0.6899,-0.6903,-0.6903,-0.6903,-0.6753,-0.6637,-0.6637,-0.6451,-0.6335,-0.6335,-0.5986,-0.58,-0.5793,-0.5566,-0.5488,0.2513,0.2353,0.2141,0.1947,0.1822,0.1692,0.1605,0.0,0.0,0.0,0.0,0.1014,0.1014,0.0,0.0,0.0,0.0,0.0,0.0,0.0,0.0,0.0,0.0,0.0,0.0,0.0,0.0,0.0,0.0,-0.4258,-0.5316,-0.5991,-0.6274,-0.6274,-0.6274,-0.6274,-0.6274,-0.6274,-0.6274,-0.6274,-0.6105,-0.5991,-0.5822,-0.5656,-0.5431,-0.5094,-0.4981,0.0,-0.4704,-0.4536,-0.4327,-0.4092,-0.3914,-0.3633,-0.3259,-0.2896,-0.2724,-0.2573,-0.2271,-0.2171,-0.2171,-0.2019,-0.207,-0.2171,-0.2171,-0.207,-0.1969,-0.1969,-0.1869,-0.1815,-0.1799,-0.1671,-0.1542,-0.1511,-0.1561,-0.157,-0.157,-0.1794,-0.1974,-0.1974,-0.2287,-0.2478,-0.233,-0.2689,-0.2979,-0.2921,-0.3215,-0.3491,-0.3724,-0.4112,-0.4618,-0.5204,-0.5476,-0.567,-0.5909,-0.6138,-0.6289,-0.6363,-0.6521,-0.6602,-0.6602,-0.6486,-0.6451,-0.6451,-0.6335,-0.63,-0.63,-0.5952,-0.58,-0.5793,-0.5532,-0.5425,0.2801,0.2595,0.2424,0.2184,0.2144,0.2102,0.2018,0.2018,0.0,0.0,0.1705,0.1426,0.1388,0.0,0.0,0.0,0.0,0.0,0.0,0.0,0.0,0.0,0.0,0.0,0.0,0.0,0.0,0.0,0.0,0.0,-0.5148,-0.5654,-0.5938,-0.5938,-0.5938,-0.5938,-0.5938,-0.5938,-0.5938,-0.5938,-0.5654,-0.5429,-0.5204,-0.4929,-0.465,-0.4369,-0.4313,0.0,0.0,-0.4145,-0.3947,-0.3619,-0.3381,-0.3115,-0.281,-0.2443,-0.2321,-0.2271,-0.2021,-0.1921,-0.187,-0.1667,-0.1718,-0.1921,-0.1921,-0.1768,-0.1617,-0.1617,-0.1617,-0.1617,-0.1617,-0.1594,-0.1562,-0.1525,-0.1428,-0.1391,-0.1391,-0.157,-0.1705,-0.1705,-0.193,-0.2081,-0.1948,-0.2229,-0.2443,-0.2371,-0.2708,-0.3022,-0.3175,-0.345,-0.3919,-0.4654,-0.5046,-0.5282,-0.544,-0.5709,-0.5864,-0.5902,-0.6099,-0.6257,-0.63,-0.63,-0.63,-0.63,-0.63,-0.63,-0.63,-0.5952,-0.58,-0.5793,-0.5532,-0.5395,0.3194,0.3136,0.3035,0.2637,0.2566,0.2439,0.2102,0.0,0.0,0.0,0.1979,0.1867,0.1688,0.1436,0.0,0.0,0.0,0.0,0.0,0.0,0.0,0.0,0.0,0.0,0.0,0.0,0.0,0.0,0.0,0.0,-0.4534,-0.4648,-0.4648,-0.4648,-0.4648,-0.4648,-0.4648,-0.4648,-0.4648,-0.4648,-0.4648,-0.4592,-0.459,-0.4536,-0.4369,-0.4036,-0.3811,0.0,0.0,-0.2973,-0.2859,-0.2791,-0.2699,-0.2662,-0.2594,-0.2201,-0.2021,-0.2021,-0.1718,-0.1617,-0.1617,-0.1617,-0.1617,-0.1617,-0.1617,-0.1617,-0.1617,-0.1617,-0.1617,-0.1617,-0.1617,-0.1594,-0.1605,-0.1498,-0.1459,-0.1391,-0.1391,-0.1436,-0.1436,-0.1436,-0.166,-0.1815,-0.1737,-0.1892,-0.203,-0.1978,-0.2316,-0.255,-0.2588,-0.2904,-0.3374,-0.3841,-0.4577,-0.5043,-0.5043,-0.5398,-0.5712,-0.5899,-0.5941,-0.606,-0.63,-0.63,-0.63,-0.63,-0.63,-0.63,-0.63,-0.5952,-0.58,-0.5793,-0.5532,-0.5395,0.3412,0.3264,0.3114,0.2941,0.2907,0.2867,0.2704,0.0,0.0,0.2503,0.2407,0.2272,0.2042,0.1621,0.1219,0.0,0.0,0.0,0.0,0.0,0.0,0.0,0.0,0.0,0.0,0.0,0.0,0.0,0.0,0.0,-0.3419,-0.4089,-0.448,-0.448,-0.448,-0.448,-0.448,-0.448,-0.448,-0.448,-0.4145,-0.3977,-0.3921,-0.3587,-0.3365,-0.3198,-0.3085,0.0,0.0,-0.275,-0.2677,-0.2646,-0.2421,-0.2329,-0.2247,-0.1887,-0.1768,-0.1768,-0.1617,-0.1617,-0.1617,-0.1617,-0.1617,-0.1617,-0.1617,-0.1617,-0.1617,-0.1617,-0.1617,-0.1617,-0.1617,-0.1581,-0.1538,-0.1514,-0.1471,-0.1391,-0.1391,-0.1391,-0.1391,-0.1391,-0.148,-0.1549,-0.1484,-0.1641,-0.178,-0.1741,-0.1964,-0.2199,-0.2314,-0.255,-0.2863,-0.3176,-0.3839,-0.4384,-0.4616,-0.5007,-0.5279,-0.5354,-0.5592,-0.575,-0.587,-0.5983,-0.606,-0.606,-0.6219,-0.63,-0.63,-0.5952,-0.58,-0.5793,-0.5532,-0.5395,0.3682,0.3528,0.3376,0.3256,0.3217,0.3178,0.0,0.0,0.3062,0.2904,0.2785,0.2579,0.2354,0.1876,0.1411,0.0,0.0,0.0,0.0,0.0,0.0,0.0,0.0,0.0,0.0,0.0,0.0,0.0,0.0,0.0,-0.2693,-0.3531,-0.3977,-0.3977,-0.3977,-0.3977,-0.3977,-0.3977,-0.3977,-0.3977,-0.3531,-0.3309,-0.3309,-0.2918,-0.2693,-0.2693,-0.2581,0.0,0.0,-0.2469,-0.2388,-0.2347,-0.2145,-0.2002,-0.1967,-0.1678,-0.1617,-0.1617,-0.1617,-0.1617,-0.1617,-0.1617,-0.1617,-0.1617,-0.1617,-0.1617,-0.1617,-0.1617,-0.1617,-0.1617,-0.1617,-0.1572,-0.1478,-0.1478,-0.1434,-0.1391,-0.1391,-0.1391,-0.1391,-0.1391,-0.1391,-0.1372,-0.1315,-0.1473,-0.1574,-0.1504,-0.169,-0.1847,-0.2002,-0.2235,-0.247,-0.2707,-0.3176,-0.3684,-0.419,-0.454,-0.481,-0.5004,-0.5282,-0.5479,-0.5598,-0.575,-0.5825,-0.5825,-0.5986,-0.6103,-0.618,-0.5879,-0.5731,-0.5793,-0.5532,-0.5395,0.4155,0.4079,0.3999,0.3604,0.3487,0.3409,0.0,0.0,0.3102,0.3102,0.2945,0.2768,0.263,0.2195,0.1774,0.138,0.0,0.0,0.0,0.0,0.0,0.0,0.0,0.0,0.0,0.0,0.0,0.0,0.0,0.0,-0.2693,-0.2693,-0.2693,-0.2693,-0.2693,-0.2693,-0.2693,-0.2693,-0.2693,-0.2693,-0.2693,-0.2693,-0.2693,-0.2693,-0.2693,0.0,0.0,0.0,0.0,-0.1908,-0.1833,-0.1801,-0.1716,-0.1687,-0.171,-0.1628,-0.1617,-0.1617,-0.1617,-0.1617,-0.1617,-0.1617,-0.1617,-0.1617,-0.1617,-0.1617,-0.1617,-0.1617,-0.1617,-0.1617,-0.1617,-0.1572,-0.1478,-0.1478,-0.1434,-0.1391,-0.1391,-0.1391,-0.1391,-0.1391,-0.1391,-0.1372,-0.1315,-0.1305,-0.1286,-0.1306,-0.1493,-0.1611,-0.1611,-0.1962,-0.2275,-0.247,-0.2668,-0.3098,-0.3763,-0.3999,-0.4348,-0.4965,-0.5004,-0.5201,-0.5598,-0.5598,-0.5598,-0.5598,-0.5598,-0.5712,-0.5902,-0.562,-0.5591,-0.5793,-0.5532,-0.5395,0.4309,0.4309,0.4268,0.4151,0.4109,0.4073,0.3843,0.0,0.3686,0.3411,0.3331,0.3183,0.2814,0.2372,0.197,0.1564,0.0,0.0,0.0,0.0,0.0,0.0,0.0,0.0,0.0,0.0,0.0,0.0,0.0,0.0,-0.2074,-0.2076,-0.23,-0.2693,-0.2693,-0.2693,-0.2693,-0.2693,-0.2693,-0.2693,-0.2469,-0.2356,-0.2356,-0.2188,-0.2076,0.0,0.0,0.0,0.0,-0.1819,-0.1789,-0.1742,-0.1732,-0.1657,-0.163,-0.162,-0.1617,-0.1617,-0.1617,-0.1617,-0.1617,-0.1617,-0.1617,-0.1617,-0.1617,-0.1617,-0.1617,-0.1617,-0.1617,-0.1612,-0.1592,-0.1556,-0.1521,-0.15,-0.1464,-0.1391,-0.1391,-0.1391,-0.1391,-0.1391,-0.1391,-0.1372,-0.1315,-0.1305,-0.1286,-0.1306,-0.1336,-0.1454,-0.1572,-0.1728,-0.1885,-0.2082,-0.2276,-0.2628,-0.3256,-0.3686,-0.3958,-0.4151,-0.4421,-0.4696,-0.4973,-0.5124,-0.524,-0.5401,-0.5521,-0.5637,-0.5712,-0.5532,-0.5455,-0.5472,-0.5278,-0.5259,0.0,0.4501,0.4501,0.4423,0.4384,0.4384,0.4231,0.4155,0.404,0.3763,0.3604,0.337,0.2982,0.2541,0.2107,0.1798,0.0,0.0,0.0,0.0,0.0,0.0,0.0,0.0,0.0,0.0,0.0,0.0,0.0,0.0,-0.1776,-0.1778,-0.195,-0.2356,-0.2356,-0.2356,-0.2356,-0.2356,-0.2356,-0.2356,-0.2132,-0.2076,-0.202,-0.1851,-0.1789,0.0,0.0,0.0,0.0,-0.1787,-0.1758,-0.1714,-0.1714,-0.1643,-0.1617,-0.1617,-0.1617,-0.1617,-0.1617,-0.1617,-0.1617,-0.1617,-0.1617,-0.1617,-0.1617,-0.1617,-0.1617,-0.1617,-0.1617,-0.161,-0.1579,-0.1549,-0.1519,-0.1488,-0.1457,-0.1391,-0.1391,-0.1391,-0.1391,-0.1391,-0.1381,-0.1359,-0.1313,-0.1297,-0.1314,-0.1304,-0.1296,-0.1335,-0.1454,-0.1572,-0.165,-0.1768,-0.1963,-0.2276,-0.2707,-0.3176,-0.3489,-0.3643,-0.3995,-0.427,-0.4467,-0.4657,-0.4849,-0.4968,-0.5168,-0.5285,-0.5359,-0.5332,-0.5279,-0.5202,-0.5057,-0.509,0.0,0.0,0.0,0.0,0.0,0.4423,0.4423,0.427,0.0,0.4118,0.3802,0.3448,0.3141,0.2628,0.2191,0.2045,0.0,0.0,0.0,0.0,0.0,0.0,0.0,0.0,0.0,0.0,0.0,0.0,0.0,0.0,-0.1799,-0.1801,-0.1814,-0.1788,-0.1789,-0.1791,-0.1795,-0.1795,-0.1794,-0.1792,-0.1792,-0.1791,-0.1789,-0.1789,-0.1773,0.0,0.0,0.0,0.0,-0.1701,-0.1684,-0.1711,-0.1711,-0.1641,-0.1617,-0.1617,-0.1617,-0.1617,-0.1617,-0.1617,-0.1617,-0.1617,-0.1617,-0.1617,-0.1617,-0.1617,-0.1617,-0.1617,-0.1617,-0.1609,-0.1577,-0.1547,-0.1517,-0.1485,-0.1456,-0.1391,-0.1391,-0.1391,-0.1391,-0.1391,-0.1411,-0.1381,-0.1311,-0.1282,-0.1292,-0.1301,-0.1296,-0.1296,-0.1296,-0.1454,-0.1572,-0.1572,-0.1768,-0.1963,-0.2157,-0.255,-0.2942,-0.3329,-0.3606,-0.3841,-0.404,-0.427,-0.4345,-0.4384,-0.4582,-0.4776,-0.4963,-0.5061,-0.5095,-0.4975,-0.483,-0.4894,0.4976,0.0,0.4898,0.4859,0.4859,0.4818,0.0,0.4582,0.0,0.0,0.0,0.0,0.0,0.0,0.0,0.0,0.0,0.0,0.0,0.0,0.0,0.0,0.0,0.0,0.0,0.0,0.0,0.0,0.0,-0.1684,-0.1713,-0.1715,-0.1718,-0.1725,-0.1725,-0.1748,-0.1795,-0.1795,-0.1783,-0.1816,-0.1816,-0.1748,-0.1725,-0.1725,-0.1722,0.0,0.0,0.0,-0.1724,-0.1724,-0.1654,-0.1628,-0.1628,-0.1623,-0.1617,-0.1617,-0.1617,-0.1617,-0.1617,-0.1617,-0.1617,-0.1617,-0.1617,-0.1617,-0.1617,-0.1617,-0.1617,-0.1617,-0.1617,-0.1605,-0.1551,-0.1531,-0.1465,-0.1459,-0.1395,-0.1391,-0.1391,-0.1391,-0.1391,-0.1391,-0.1411,-0.1381,-0.1311,-0.1282,-0.1292,-0.1301,-0.1296,-0.1296,-0.1296,-0.1335,-0.1375,-0.1375,-0.1533,-0.169,-0.1728,-0.2237,-0.2668,-0.2942,-0.3139,-0.3374,-0.3643,-0.3839,-0.3997,-0.4155,-0.4387,-0.4501,-0.4538,-0.4511,-0.4568,-0.4676,-0.4665,-0.4728,0.5168,0.5054,0.5018,0.5018,0.5018,0.4976,0.0,0.0,0.0,0.0,0.0,0.0,0.0,0.0,0.0,0.0,0.0,0.0,0.0,0.0,0.0,0.0,0.0,0.0,0.0,0.0,0.0,0.0,0.0,-0.1654,-0.1683,-0.1685,-0.1691,-0.1704,-0.1704,-0.172,-0.1753,-0.1753,-0.1745,-0.1729,-0.1729,-0.172,-0.1704,-0.1704,-0.1644,0.0,0.0,0.0,-0.1282,-0.1282,-0.1274,-0.1263,-0.1364,-0.1415,-0.1415,-0.1566,-0.1617,-0.1617,-0.1617,-0.1617,-0.1617,-0.1617,-0.1617,-0.1617,-0.1617,-0.1617,-0.1617,-0.1617,-0.1607,-0.1585,-0.1538,-0.1515,-0.1493,-0.1401,-0.1391,-0.1391,-0.1391,-0.1391,-0.1391,-0.1391,-0.1356,-0.1323,-0.1309,-0.1311,-0.1316,-0.1299,-0.1296,-0.1296,-0.1296,-0.1296,-0.1296,-0.1296,-0.1415,-0.1493,-0.1611,-0.1885,-0.2198,-0.2511,-0.2707,-0.2942,-0.3176,-0.3374,-0.3569,-0.3802,-0.4034,-0.4153,-0.427,-0.4217,-0.4258,-0.4357,-0.4338,-0.4428,0.5321,0.5168,0.5054,0.5018,0.5018,0.5018,0.0,0.0,0.0,0.0,0.0,0.0,0.0,0.0,0.0,0.0,0.0,0.0,0.0,0.0,0.0,0.0,0.0,0.0,0.0,0.0,0.0,0.0,0.0,-0.1628,-0.1705,-0.1707,-0.1666,-0.169,-0.1691,-0.1691,-0.1691,-0.1699,-0.1702,-0.1698,-0.1645,-0.1642,-0.1638,-0.1585,-0.1415,-0.1241,0.0,0.0,-0.0808,-0.0808,-0.0808,-0.0808,-0.1061,-0.1162,-0.1162,-0.1415,-0.1465,-0.1465,-0.1516,-0.1566,-0.1617,-0.1617,-0.1617,-0.1617,-0.1617,-0.1617,-0.1615,-0.1611,-0.1592,-0.1564,-0.1528,-0.15,-0.1473,-0.1397,-0.1391,-0.1391,-0.1391,-0.1391,-0.1391,-0.1391,-0.1344,-0.1305,-0.1305,-0.1297,-0.1296,-0.1296,-0.1296,-0.1296,-0.1296,-0.1296,-0.1296,-0.1296,-0.1296,-0.1375,-0.1533,-0.1572,-0.1728,-0.2079,-0.2315,-0.2511,-0.2746,-0.2904,-0.3139,-0.3448,-0.3606,-0.3765,-0.3962,-0.4008,-0.4019,-0.4,-0.3978,-0.4079,0.5398,0.5282,0.5207,0.5054,0.5018,0.5018,0.0,0.0,0.0,0.0,0.0,0.0,0.0,0.0,0.0,0.0,0.0,0.0,0.0,0.0,0.0,0.0,0.0,0.0,0.0,0.0,0.0,0.0,0.0,-0.1619,-0.1624,-0.1624,-0.1626,-0.163,-0.163,-0.163,-0.163,-0.168,-0.1692,-0.1721,-0.146,-0.1345,-0.1273,-0.1019,-0.0915,-0.0862,0.0,-0.0861,-0.0808,-0.0808,-0.0808,-0.0808,-0.0859,-0.0859,-0.0859,-0.0909,-0.0909,-0.096,-0.1162,-0.1415,-0.1617,-0.1617,-0.1617,-0.1617,-0.1617,-0.1617,-0.1611,-0.1585,-0.1624,-0.1607,-0.1502,-0.1484,-0.1473,-0.1397,-0.1391,-0.1391,-0.1391,-0.1391,-0.1391,-0.1391,-0.1344,-0.1305,-0.1305,-0.1297,-0.1296,-0.1296,-0.1296,-0.1296,-0.1296,-0.1296,-0.1296,-0.1296,-0.1296,-0.1296,-0.1335,-0.1335,-0.1454,-0.169,-0.1886,-0.2159,-0.255,-0.2589,-0.2787,-0.3139,-0.3178,-0.3217,-0.3258,-0.3545,-0.3606,-0.3495,-0.3776,-0.3949,0.567,0.5476,0.5282,0.5168,0.5093,0.5018,0.0,0.0,0.0,0.0,0.0,0.0,0.0,0.0,0.0,0.0,0.0,0.0,0.0,0.0,0.0,0.0,0.0,0.0,0.0,0.0,0.0,0.0,0.0,0.0,-0.1617,-0.1617,-0.1516,-0.1364,-0.1364,-0.1314,-0.1162,-0.1181,-0.1289,-0.1433,-0.1177,-0.1019,-0.096,-0.0859,-0.0707,-0.0606,0.0,-0.0505,-0.0354,-0.0354,-0.0354,-0.0404,-0.0505,-0.0606,-0.0606,-0.0758,-0.0808,-0.0808,-0.096,-0.1061,-0.1212,-0.1314,-0.1364,-0.1412,-0.1547,-0.1592,-0.1583,-0.1536,-0.1534,-0.1536,-0.1492,-0.1468,-0.1453,-0.1394,-0.1391,-0.1391,-0.1391,-0.1391,-0.1385,-0.1414,-0.1333,-0.1301,-0.1285,-0.1286,-0.1296,-0.1296,-0.1296,-0.1296,-0.1296,-0.1296,-0.1296,-0.1296,-0.1296,-0.1296,-0.1296,-0.1296,-0.1375,-0.1572,-0.1807,-0.1964,-0.2159,-0.2159,-0.2277,-0.2435,-0.2669,-0.2787,-0.2787,-0.3101,-0.3211,-0.313,-0.3439,-0.3588,0.5902,0.5631,0.5359,0.0,0.0,0.0,0.0,0.0,0.0,0.0,0.0,0.0,0.0,0.0,0.0,0.0,0.0,0.0,0.0,0.0,0.0,0.0,0.0,0.0,0.0,0.0,0.0,0.0,0.0,0.0,-0.1415,-0.1415,-0.1314,-0.1111,-0.1111,-0.101,-0.0808,-0.0758,-0.0859,-0.1111,-0.0859,-0.0707,-0.0707,-0.0657,-0.0505,-0.0303,-0.0303,-0.0202,0.0,0.0,0.0,0.0,-0.0202,-0.0303,-0.0354,-0.0556,-0.0657,-0.0707,-0.0707,-0.0758,-0.0859,-0.1061,-0.1108,-0.1151,-0.143,-0.1517,-0.1501,-0.1495,-0.1498,-0.1508,-0.1478,-0.1453,-0.1391,-0.1391,-0.1391,-0.1391,-0.1391,-0.1391,-0.1381,-0.1396,-0.1367,-0.1296,-0.1308,-0.1317,-0.1296,-0.1296,-0.1296,-0.1296,-0.1296,-0.1296,-0.1296,-0.1296,-0.1296,-0.1296,-0.1296,-0.1296,-0.1375,-0.1533,-0.169,-0.1768,-0.1848,-0.1848,-0.1848,-0.1887,-0.2199,-0.2354,-0.2354,-0.2697,-0.2863,-0.279,-0.3077,-0.3205,0.598,0.575,0.5521,0.5359,0.0,0.0,0.0,0.0,0.0,0.0,0.0,0.0,0.0,0.0,0.0,0.0,0.0,0.0,0.0,0.0,0.0,0.0,0.0,0.0,0.0,0.0,0.0,0.0,0.0,0.0,-0.0859,-0.0859,-0.0859,-0.0808,-0.0808,-0.0808,-0.0808,-0.0556,-0.0556,-0.0808,-0.0556,-0.0404,-0.0404,-0.0152,-0.0051,-0.0051,-0.0051,0.0,0.0,0.0,0.0,0.0,0.0,-0.0051,-0.0051,-0.0051,-0.0202,-0.0404,-0.0404,-0.0606,-0.0808,-0.0808,-0.0849,-0.0885,-0.113,-0.1212,-0.1284,-0.1443,-0.1483,-0.1477,-0.1401,-0.1392,-0.1391,-0.1391,-0.1391,-0.1391,-0.1391,-0.1391,-0.1381,-0.1396,-0.1367,-0.1296,-0.1308,-0.1317,-0.1296,-0.1296,-0.1296,-0.1296,-0.1296,-0.1296,-0.1296,-0.1296,-0.1296,-0.1296,-0.1296,-0.1296,-0.1296,-0.1335,-0.1335,-0.1415,-0.1611,-0.1611,-0.169,-0.1887,-0.1926,-0.1925,-0.1925,-0.235,-0.2511,-0.2449,-0.2793,-0.3045,0.618,0.587,0.5598,0.5518,0.0,0.0,0.0,0.0,0.0,0.0,0.0,0.0,0.0,0.0,0.0,0.0,0.0,0.0,0.0,0.0,0.0,0.0,0.0,0.0,0.0,0.0,0.0,0.0,0.0,0.0,-0.0808,-0.0808,-0.0707,-0.0556,-0.0556,-0.0455,-0.0303,-0.0202,-0.0202,-0.0303,-0.0202,-0.0152,-0.0152,-0.0051,0.0,0.0,0.0,0.0,0.0,0.0,0.0,0.0,0.0,0.0,0.0,0.0,-0.0051,-0.0152,-0.0152,-0.0202,-0.0353,-0.0498,-0.0543,-0.0586,-0.0858,-0.0942,-0.0978,-0.1004,-0.0998,-0.1042,-0.1348,-0.1391,-0.1391,-0.1391,-0.1391,-0.1391,-0.1391,-0.1421,-0.1399,-0.1327,-0.1298,-0.131,-0.1319,-0.1305,-0.1296,-0.1296,-0.1139,-0.1061,-0.1061,-0.0943,-0.0864,-0.0864,-0.0864,-0.0864,-0.0864,-0.0864,-0.0864,-0.0864,-0.1139,-0.1335,-0.1415,-0.1415,-0.1454,-0.1533,-0.165,-0.1729,-0.1729,-0.2003,-0.2094,-0.2043,-0.2397,-0.259,0.63,0.5951,0.5598,0.0,0.0,0.0,0.0,0.0,0.0,0.0,0.0,0.0,0.0,0.0,0.0,0.0,0.0,0.0,0.0,0.0,0.0,0.0,0.0,0.0,0.0,0.0,0.0,0.0,0.0,0.0,0.0,-0.0551,-0.0452,-0.0303,-0.0253,-0.0202,0.0,0.0,0.0,0.0,0.0,0.0,0.0,0.0,0.0,0.0,0.0,0.0,0.0,0.0,0.0,0.0,0.0,0.0,0.0,0.0,0.0,0.0,0.0,0.0,-0.005,-0.0196,-0.0291,-0.0336,-0.0607,-0.0691,-0.0685,-0.0675,-0.0718,-0.0762,-0.1076,-0.1256,-0.13,-0.1391,-0.1391,-0.1387,-0.1379,-0.1361,-0.1293,-0.1215,-0.1152,-0.1091,-0.1065,-0.1061,-0.1061,-0.1061,-0.0904,-0.0825,-0.0825,-0.0668,-0.0589,-0.0589,-0.0589,-0.0589,-0.0589,-0.0589,-0.0589,-0.0589,-0.0904,-0.1061,-0.1061,-0.1061,-0.1061,-0.1061,-0.1296,-0.1375,-0.1375,-0.165,-0.1793,-0.1762,-0.2051,-0.2192,0.63,0.5951,0.0,0.0,0.0,0.0,0.0,0.0,0.0,0.0,0.0,0.0,0.0,0.0,0.0,0.0,0.0,0.0,0.0,0.0,0.0,0.0,0.0,0.0,0.0,0.0,0.0,0.0,0.0,0.0,0.0,0.0,0.0,0.0,0.0,0.0,0.0,0.0,0.0,0.0,0.0,0.0,0.0,0.0,0.0,0.0,0.0,0.0,0.0,0.0,0.0,0.0,0.0,0.0,0.0,0.0,0.0,0.0,0.0,0.0,0.0,0.0,0.0,-0.0046,-0.0324,-0.041,-0.0448,-0.0628,-0.0673,-0.0673,-0.0718,-0.0897,-0.1166,-0.1345,-0.1391,-0.1382,-0.1397,-0.1217,-0.1074,-0.1027,-0.0854,-0.0686,-0.0631,-0.0589,-0.0589,-0.0589,-0.0589,-0.0589,-0.0589,-0.0589,-0.0589,-0.0589,-0.0589,-0.0589,-0.0589,-0.0589,-0.0589,-0.0589,-0.0589,-0.0589,-0.0589,-0.0589,-0.0589,-0.0589,-0.0786,-0.0904,-0.0904,-0.1375,-0.1572,-0.161,-0.1725,-0.1893,0.63,0.0,0.0,0.0,0.0,0.0,0.0,0.0,0.0,0.0,0.0,0.0,0.0,0.0,0.0,0.0,0.0,0.0,0.0,0.0,0.0,0.0,0.0,0.0,0.0,0.0,0.0,0.0,0.0,0.0,0.0,0.0,0.0,0.0,0.0,0.0,0.0,0.0,0.0,0.0,0.0,0.0,0.0,0.0,0.0,0.0,0.0,0.0,0.0,0.0,0.0,0.0,0.0,0.0,0.0,0.0,0.0,0.0,0.0,0.0,0.0,0.0,0.0,0.0,-0.0091,-0.0135,-0.0135,-0.018,-0.0225,-0.0269,-0.0448,-0.0538,-0.0673,-0.0852,-0.0897,-0.0892,-0.0918,-0.086,-0.0801,-0.0778,-0.0723,-0.0634,-0.059,-0.0589,-0.0589,-0.0589,-0.0471,-0.0353,-0.0196,-0.0196,-0.0196,-0.0196,-0.0196,-0.0196,-0.0196,-0.0196,-0.0196,-0.0196,-0.0196,-0.0314,-0.0589,-0.0589,-0.0589,-0.0589,-0.0668,-0.0707,-0.0707,-0.0825,-0.0982,-0.11,-0.1326,-0.154,0.6338,0.0,0.0,0.0,0.0,0.0,0.0,0.0,0.0,0.0,0.0,0.0,0.0,0.0,0.0,0.0,0.0,0.0,0.0,0.0,0.0,0.0,0.0,0.0,0.0,0.0,0.0,0.0,0.0,0.0,0.0,0.0,0.0,0.0,0.0,0.0,0.0,0.0,0.0,0.0,0.0,0.0,0.0,0.0,0.0,0.0,0.0,0.0,0.0,0.0,0.0,0.0,0.0,0.0,0.0,0.0,0.0,0.0,0.0,0.0,0.0,0.0,0.0,0.0,0.0,0.0,0.0,0.0,0.0,-0.0045,-0.018,-0.0224,-0.0314,-0.0628,-0.0713,-0.0705,-0.0691,-0.0633,-0.0578,-0.0564,-0.0436,-0.0353,-0.0353,-0.0353,-0.0353,-0.0353,-0.0275,-0.0118,0.0,0.0,0.0,0.0,0.0,0.0,0.0,0.0,0.0,0.0,0.0,-0.0118,-0.0353,-0.0353,-0.0353,-0.0353,-0.0432,-0.0471,-0.0471,-0.055,-0.0668,-0.0786,-0.0943,-0.1053,0.0,0.0,0.0,0.0,0.0,0.0,0.0,0.0,0.0,0.0,0.0,0.0,0.0,0.0,0.0,0.0,0.0,0.0,0.0,0.0,0.0,0.0,0.0,0.0,0.0,0.0,0.0,0.0,0.0,0.0,0.0,0.0,0.0,0.0,0.0,0.0,0.0,0.0,0.0,0.0,0.0,0.0,0.0,0.0,0.0,0.0,0.0,0.0,0.0,0.0,0.0,0.0,0.0,0.0,0.0,0.0,0.0,0.0,0.0,0.0,0.0,0.0,0.0,0.0,0.0,0.0,0.0,0.0,0.0,0.0,0.0,0.0,-0.009,-0.0537,-0.0617,-0.0649,-0.0633,-0.0496,-0.0364,-0.0276,-0.0118,0.0,0.0,0.0,0.0,0.0,0.0,0.0,0.0,0.0,0.0,0.0039,0.0039,0.0039,0.0039,0.0039,0.0039,0.0039,0.0039,0.0039,0.0039,0.0,0.0,0.0,-0.0196,-0.0275,-0.0275,-0.0471,-0.055,-0.0589,-0.0589,-0.0589,0.0,0.0,0.0,0.0,0.0,0.0,0.0,0.0,0.0,0.0,0.0,0.0,0.0,0.0,0.0,0.0,0.0,0.0,0.0,0.0,0.0,0.0,0.0,0.0,0.0,0.0,0.0,0.0,0.0,0.0,0.0,0.0,0.0,0.0,0.0,0.0,0.0,0.0,0.0,0.0,0.0,0.0,0.0,0.0,0.0,0.0,0.0,0.0,0.0,0.0,0.0,0.0,0.0,0.0,0.0,0.0,0.0,0.0,0.0,0.0,0.0,0.0,0.0,0.0,0.0,0.0,0.0,0.0,0.0,0.0,0.0,0.0,-0.0044,-0.0131,-0.0131,-0.0129,-0.0165,-0.0122,-0.0081,-0.0079,-0.0039,0.0,0.0,0.0,0.0,0.0,0.0,0.0,0.0,0.0,0.0079,0.0236,0.0236,0.0314,0.0471,0.0471,0.0471,0.0471,0.0471,0.0471,0.0471,0.0157,0.0,0.0,-0.0039,-0.0079,-0.0079,-0.0118,-0.0196,-0.0353,-0.0353,-0.0432,0.0,0.0,0.0,0.0,0.0,0.0,0.0,0.0,0.0,0.0,0.0,0.0,0.0,0.0,0.0,0.0,0.0,0.0,0.0,0.0,0.0,0.0,0.0,0.0,0.0,0.0,0.0,0.0,0.0,0.0314,0.0314,0.0314,0.0314,0.0314,0.0314,0.0269,0.018,0.018,0.0135,0.0,0.0,0.0,0.0,0.0,0.0,0.0,0.0,0.0,0.0,0.0,0.0,0.0,0.0,0.0,0.0,0.0,0.0,0.0,0.0,0.0,0.0,0.0,0.0,0.0,0.0,0.0,0.0,0.0,0.0,0.0,0.0133,0.0132,0.0173,0.0254,0.0126,0.0,0.0,0.0081,0.0159,0.0157,0.0236,0.0275,0.0275,0.0275,0.0275,0.0275,0.0275,0.0275,0.0275,0.0275,0.0314,0.0432,0.0432,0.0471,0.0589,0.0589,0.0589,0.0589,0.0589,0.0589,0.0589,0.0393,0.0275,0.0275,0.0275,0.0236,0.0157,0.0157,0.0039,-0.0157,-0.0157,-0.0196,0.0,0.0,0.0,0.0,0.0,0.0,0.0,0.0,0.0,0.0,0.0,0.0,0.0,0.0,0.0,0.0,0.0,0.0,0.0,0.0,0.0,0.0,0.0,0.0,0.0,0.0,0.0,0.0,0.0,0.0666,0.0666,0.0712,0.0714,0.0714,0.0716,0.0628,0.0448,0.0448,0.0359,0.0135,0.009,0.0045,0.0,0.0,0.0,0.0,0.0,0.0,0.0,0.0,0.0,0.0,0.0,0.0,0.0,0.0,0.0,0.0,0.0,0.0,0.0,0.0,0.0,0.0,0.0045,0.009,0.009,0.0089,0.0134,0.0178,0.0305,0.0345,0.0384,0.0575,0.0365,0.0121,0.0121,0.0239,0.0353,0.0353,0.0471,0.0589,0.0589,0.0589,0.0589,0.0589,0.0589,0.0589,0.0589,0.0589,0.0628,0.0667,0.0707,0.0746,0.0786,0.0786,0.0825,0.0825,0.0825,0.0825,0.0825,0.0825,0.0825,0.0825,0.0668,0.051,0.0353,0.0353,0.0275,0.0118,0.0118,0.0118,0.0,0.0,0.0,0.0,0.0,0.0,0.0,0.0,0.0,0.0,0.0,0.0,0.0,0.0,0.0,0.0,0.0,0.0,0.0,0.0,0.0,0.0,0.0,0.0,0.0,0.0,0.0,0.0,0.0594,0.0594,0.0594,0.0649,0.0699,0.0699,0.0711,0.0673,0.0673,0.0673,0.0628,0.0583,0.0448,0.0224,0.0,0.0,0.0,0.0,0.0,0.0,0.0,0.0,0.0,0.0,0.0,0.0,0.0,0.0,0.0,0.0,0.0,0.0,0.0,0.0,0.0,0.0045,0.0269,0.0359,0.0402,0.0571,0.0612,0.0609,0.0553,0.0542,0.0574,0.0611,0.0561,0.0513,0.0513,0.0551,0.055,0.055,0.0589,0.0589,0.0589,0.0589,0.0589,0.0589,0.0589,0.0589,0.0589,0.0589,0.0668,0.0825,0.1061,0.1296,0.1454,0.1611,0.1729,0.1729,0.1729,0.1729,0.1729,0.1729,0.1729,0.1729,0.0982,0.0589,0.055,0.055,0.055,0.051,0.051,0.051,0.0,0.0,0.0,0.0,0.0,0.0,0.0,0.0,0.0,0.0,0.0,0.0,0.0,0.0,0.0,0.0,0.0,0.0,0.0,0.0,0.0,0.0,0.0,0.0,0.0,0.0,0.0,0.0,0.1388,0.1388,0.1388,0.1402,0.1409,0.1409,0.1335,0.1169,0.1039,0.091,0.0828,0.0706,0.0624,0.0494,0.0404,0.0269,0.0135,0.0,0.0,0.0,0.0,0.0,0.0,0.0,0.0,0.0,0.0,0.0,0.0,0.0,0.0,0.0,0.0045,0.018,0.0224,0.0269,0.0493,0.0579,0.0572,0.0654,0.069,0.068,0.0914,0.0984,0.1055,0.1281,0.1346,0.1335,0.1335,0.1139,0.1061,0.1296,0.1335,0.1335,0.1335,0.1335,0.1335,0.1335,0.1335,0.1335,0.1335,0.1335,0.1375,0.1454,0.1572,0.169,0.1768,0.1848,0.1887,0.1887,0.1887,0.1887,0.1887,0.1887,0.1887,0.1887,0.1533,0.1218,0.0982,0.0982,0.0864,0.0589,0.0589,0.0589,0.0,0.0,0.0,0.0,0.0,0.0,0.0,0.0,0.0,0.0,0.0,0.0,0.0,0.0,0.0,0.0,0.0,0.0,0.0,0.0,0.0,0.0,0.0,0.0,0.0,0.0,0.0,0.0,0.2066,0.2066,0.2066,0.1994,0.1959,0.1959,0.1843,0.1682,0.1473,0.1263,0.1061,0.0863,0.0789,0.075,0.0662,0.0533,0.0356,0.0178,0.0045,0.0,0.0,0.0,0.0,0.0,0.0,0.0,0.0,0.0,0.0045,0.009,0.009,0.0135,0.0225,0.0404,0.0491,0.0534,0.0712,0.0833,0.0862,0.0901,0.093,0.0996,0.138,0.1452,0.1526,0.1815,0.1925,0.1964,0.1926,0.165,0.1533,0.1848,0.1887,0.1887,0.1887,0.1887,0.1887,0.1887,0.1887,0.1887,0.1887,0.1925,0.1963,0.1963,0.2082,0.2121,0.2121,0.2161,0.22,0.22,0.22,0.22,0.22,0.22,0.22,0.22,0.22,0.1964,0.1454,0.1454,0.1257,0.0943,0.0943,0.0943,0.0,0.0,0.0,0.0,0.0,0.0,0.0,0.0,0.0,0.0,0.0,0.0,0.0,0.0,0.0,0.0,0.0,0.0,0.0,0.0,0.0,0.0,0.0,0.0,0.0,0.0,0.0,0.0,0.2283,0.2205,0.2205,0.201,0.1913,0.1913,0.1954,0.1976,0.1976,0.1766,0.1514,0.1263,0.1055,0.0845,0.0592,0.0648,0.0697,0.0655,0.0178,0.0,0.0,0.0,0.0,0.0,0.0,0.0,0.0,0.0,0.018,0.0359,0.0359,0.0493,0.0673,0.0673,0.0664,0.0741,0.0915,0.1115,0.13,0.152,0.1672,0.1822,0.1862,0.1851,0.189,0.1887,0.2042,0.2118,0.1925,0.1887,0.1887,0.1887,0.1887,0.1887,0.1887,0.1887,0.1887,0.1887,0.1887,0.1887,0.1887,0.208,0.2196,0.2196,0.2511,0.2747,0.2747,0.2945,0.3023,0.3023,0.3023,0.3023,0.3023,0.3023,0.3023,0.3023,0.3023,0.2671,0.1887,0.1887,0.1848,0.1848,0.1848,0.1848,0.0,0.0,0.0,0.0,0.0,0.0,0.0,0.0,0.0,0.0,0.0,0.0,0.0,0.0,0.0,0.0,0.0,0.0,0.0,0.0,0.0,0.0,0.0,0.0,0.0,0.0,0.0,0.0,0.0,0.2787,0.2787,0.2691,0.2663,0.2663,0.2564,0.2374,0.2132,0.1919,0.1768,0.1686,0.1671,0.1514,0.1304,0.1145,0.1022,0.0853,0.0516,0.0394,0.0449,0.0449,0.0449,0.0449,0.0449,0.0449,0.0449,0.0449,0.0494,0.0582,0.0574,0.066,0.0746,0.0995,0.107,0.1149,0.1532,0.1676,0.1684,0.1752,0.193,0.2141,0.2242,0.2395,0.2514,0.2631,0.2708,0.2747,0.2671,0.2553,0.2514,0.2631,0.2671,0.2671,0.2671,0.2671,0.2671,0.2671,0.2671,0.2671,0.2671,0.2747,0.2787,0.2787,0.2904,0.2982,0.2982,0.3062,0.3139,0.3294,0.3333,0.3411,0.353,0.353,0.353,0.353,0.3372,0.302,0.2473,0.2473,0.2395,0.2277,0.2277,0.2199,0.0,0.0,0.0,0.0,0.0,0.0,0.0,0.0,0.0,0.0,0.0,0.0,0.0,0.0,0.0,0.0,0.0,0.0,0.0,0.0,0.0,0.0,0.0,0.0,0.0,0.0,0.0,0.0,0.0,0.0,0.3454,0.3376,0.3295,0.3217,0.3022,0.2787,0.2511,0.231,0.2167,0.2088,0.208,0.1973,0.1768,0.1573,0.1414,0.129,0.1132,0.0898,0.0659,0.0659,0.0659,0.0659,0.0659,0.0659,0.0659,0.0659,0.0703,0.0789,0.0864,0.0946,0.1073,0.1436,0.1505,0.1578,0.1953,0.2085,0.2127,0.2167,0.2343,0.255,0.2668,0.2787,0.2943,0.3178,0.3295,0.3336,0.3415,0.3139,0.2943,0.3062,0.3102,0.3102,0.3102,0.3102,0.3102,0.3102,0.3102,0.3102,0.3102,0.3258,0.3335,0.3335,0.3452,0.3528,0.3528,0.3528,0.3606,0.372,0.3761,0.3878,0.3997,0.3997,0.3997,0.3997,0.3839,0.3604,0.3331,0.3061,0.2826,0.2707,0.2707,0.2628,0.0,0.0,0.0,0.0,0.0,0.0,0.0,0.0,0.0,0.0,0.0,0.0,0.0,0.0,0.0,0.0,0.0,0.0,0.0,0.0,0.0,0.0,0.0,0.0,0.0,0.0,0.0,0.0,0.4233,0.4118,0.4118,0.3921,0.3724,0.3526,0.3256,0.3141,0.3102,0.2904,0.2707,0.2511,0.2314,0.2119,0.1927,0.1929,0.1907,0.191,0.1953,0.1469,0.0631,0.0631,0.0632,0.0632,0.0632,0.0632,0.0632,0.0632,0.08,0.1052,0.126,0.1469,0.1721,0.193,0.1984,0.1947,0.2151,0.2357,0.255,0.2746,0.2943,0.3102,0.3141,0.3141,0.3217,0.3448,0.3684,0.3882,0.4079,0.361,0.3141,0.3141,0.3141,0.3141,0.3141,0.3141,0.3141,0.3141,0.3141,0.3141,0.3141,0.353,0.3802,0.3802,0.4151,0.4384,0.4384,0.4384,0.4384,0.4423,0.4423,0.4423,0.4423,0.4423,0.4423,0.4423,0.4423,0.4423,0.4423,0.3567,0.3141,0.3141,0.3141,0.3141,0.9246,0.0,0.0,0.0,0.0,0.0,0.0,0.0,0.0,0.0,0.0,0.0,0.0,0.0,0.0,0.0,0.0,0.0,0.0,0.0,0.0,0.0,0.0,0.0,0.0,0.0,0.0,0.0,0.4345,0.4309,0.4309,0.4268,0.419,0.4151,0.3921,0.3767,0.3608,0.3372,0.3137,0.2943,0.2865,0.2747,0.2553,0.2409,0.2257,0.21,0.1996,0.1763,0.1526,0.1577,0.1598,0.1598,0.1598,0.1598,0.1598,0.1598,0.1641,0.172,0.1732,0.1763,0.1922,0.2252,0.235,0.2417,0.2735,0.288,0.2943,0.2982,0.3178,0.345,0.3767,0.3919,0.4073,0.4151,0.419,0.4268,0.4309,0.419,0.4036,0.4036,0.4036,0.4036,0.4036,0.4036,0.4036,0.4036,0.4036,0.4036,0.4036,0.4151,0.4229,0.4229,0.4345,0.4384,0.4384,0.4384,0.4462,0.4621,0.4621,0.4698,0.4818,0.482,0.482,0.482,0.4701,0.4621,0.4621,0.4231,0.4036,0.4036,0.3882,0.3806,0.0,0.0,0.0,0.0,0.0,0.0,0.8403,0.8021,0.0,0.0,0.0,0.0,0.0,0.0,0.0,0.0,0.0,0.0,0.0,0.0,0.0,0.0,0.0,0.0,0.0,0.509,0.5012,0.4893,0.4893,0.4854,0.4774,0.4696,0.4618,0.454,0.4348,0.4153,0.4036,0.3878,0.3682,0.3374,0.3374,0.3217,0.2904,0.2787,0.2668,0.255,0.2434,0.2396,0.2401,0.2426,0.2248,0.1964,0.1964,0.1964,0.1964,0.1964,0.2003,0.208,0.2132,0.2202,0.2317,0.2641,0.2746,0.2824,0.3178,0.3335,0.3413,0.3493,0.3684,0.3917,0.4153,0.4309,0.4384,0.4384,0.4462,0.454,0.454,0.4582,0.4621,0.4423,0.4384,0.4384,0.4384,0.4384,0.4384,0.4384,0.4384,0.4384,0.4384,0.4462,0.454,0.454,0.4582,0.4659,0.4659,0.4659,0.4701,0.4818,0.4893,0.5012,0.5132,0.521,0.5249,0.5249,0.5132,0.509,0.509,0.4621,0.4384,0.4384,0.427,0.4233,0.0,0.0,0.0,0.0,0.0,0.0,0.8742,0.8441,0.8063,0.0,0.0,0.0,0.0,0.0,0.0,0.0,0.0,0.0,0.0,0.0,0.0,0.0,0.0,0.0,0.5637,0.5637,0.5637,0.5598,0.5598,0.5521,0.5359,0.5162,0.4968,0.4779,0.4579,0.4462,0.4423,0.4423,0.4229,0.388,0.388,0.3645,0.3258,0.318,0.318,0.318,0.3141,0.3102,0.3102,0.3102,0.2671,0.2044,0.2044,0.2044,0.2044,0.2044,0.2159,0.2314,0.2511,0.2668,0.2865,0.31,0.318,0.3217,0.3526,0.3722,0.3919,0.4077,0.427,0.4423,0.4423,0.4462,0.4462,0.4462,0.4621,0.474,0.4779,0.4898,0.4937,0.4579,0.4501,0.4462,0.4462,0.4462,0.4462,0.4462,0.4462,0.4462,0.4462,0.4621,0.474,0.474,0.4898,0.5015,0.5015,0.5057,0.5057,0.5057,0.5246,0.5321,0.5321,0.5518,0.5598,0.5598,0.5598,0.5598,0.5598,0.4893,0.454,0.454,0.454,0.454,0.0,0.0,0.0,0.0,0.0,0.0,0.9022,0.8746,0.8513,0.0,0.0,0.0,0.0,0.0,0.0,0.0,0.0,0.0,0.0,0.0,0.0,0.0,0.0,0.0,0.5864,0.5825,0.5789,0.5598,0.5598,0.5598,0.5559,0.5518,0.5401,0.5204,0.5165,0.4971,0.4659,0.4659,0.4504,0.4268,0.4268,0.4229,0.4151,0.3802,0.3647,0.3645,0.3258,0.3102,0.3102,0.3102,0.3023,0.2866,0.2866,0.2866,0.2866,0.2866,0.2906,0.2943,0.2982,0.3023,0.31,0.353,0.3647,0.3724,0.4112,0.4268,0.4307,0.4345,0.4504,0.4659,0.4659,0.4779,0.4898,0.4898,0.4898,0.4976,0.5165,0.5204,0.5285,0.5362,0.509,0.4898,0.4898,0.4898,0.4898,0.4898,0.4898,0.4898,0.4898,0.4898,0.4937,0.4937,0.5129,0.5243,0.5243,0.5404,0.5482,0.5482,0.5521,0.5559,0.5559,0.5598,0.5598,0.5598,0.5598,0.5598,0.5598,0.544,0.5362,0.5362,0.5362,0.5362,0.0,0.0,0.0,0.9771,0.0,0.0,0.0,0.9132,0.8937,0.8742,0.0,0.0,0.0,0.0,0.0,0.0,0.0,0.0,0.0,0.0,0.0,0.0,0.0,0.0,0.644,0.6402,0.6328,0.6099,0.6025,0.5909,0.575,0.575,0.5673,0.544,0.544,0.5323,0.501,0.501,0.4854,0.4543,0.4543,0.4501,0.4384,0.419,0.4112,0.4073,0.3841,0.3763,0.3763,0.3763,0.3763,0.3724,0.3256,0.3102,0.3102,0.3102,0.3258,0.3452,0.3452,0.3569,0.3802,0.4034,0.4112,0.4151,0.4345,0.4462,0.4582,0.4659,0.4779,0.4857,0.4971,0.509,0.5168,0.5287,0.5287,0.5326,0.544,0.544,0.5479,0.5598,0.5443,0.5287,0.5287,0.5287,0.5287,0.5287,0.5287,0.5287,0.5287,0.5287,0.5287,0.5287,0.5401,0.544,0.544,0.5559,0.5598,0.5598,0.5712,0.575,0.575,0.587,0.5948,0.5948,0.5948,0.5948,0.5948,0.5948,0.5831,0.5598,0.5598,0.5598,0.0,0.0,0.0,0.0,0.0,0.9695,0.0,0.0,0.0,0.9084,0.0,0.0,0.0,0.0,0.0,0.0,0.0,0.0,0.0,0.0,0.0,0.0,0.0,0.0,0.0,0.6903,0.6826,0.6676,0.6525,0.6296,0.6057,0.6018,0.5902,0.5676,0.5676,0.5556,0.5359,0.5321,0.5126,0.4815,0.4779,0.4659,0.4501,0.4462,0.4462,0.4462,0.4423,0.4384,0.4384,0.4384,0.4384,0.4345,0.3606,0.3335,0.3335,0.3335,0.3608,0.3919,0.3919,0.4114,0.4423,0.4462,0.4501,0.454,0.4579,0.4698,0.4857,0.5054,0.5132,0.5171,0.5321,0.5359,0.5401,0.5559,0.5598,0.5598,0.5637,0.5715,0.5754,0.5792,0.5828,0.5789,0.5637,0.5598,0.5598,0.5598,0.5598,0.5598,0.5598,0.5598,0.5598,0.5598,0.5637,0.5676,0.5676,0.5715,0.5754,0.5754,0.5906,0.598,0.598,0.618,0.63,0.63,0.63,0.63,0.63,0.63,0.6106,0.5754,0.5754,0.5754,0.0,0.0,0.0,0.0,1.0143,0.0,0.0,0.0,0.9511,0.9322,0.0,0.0,0.0,0.0,0.0,0.0,0.0,0.0,0.0,0.0,0.0,0.0,0.0,0.0,0.0,0.6903,0.6899,0.6865,0.6826,0.6753,0.6525,0.6521,0.6328,0.5864,0.5864,0.5786,0.5559,0.5398,0.5282,0.5243,0.5054,0.4937,0.4937,0.474,0.4659,0.4659,0.4462,0.4384,0.4384,0.4384,0.4384,0.4384,0.4307,0.4268,0.4268,0.4268,0.4268,0.4345,0.4345,0.4345,0.4423,0.4621,0.4779,0.4976,0.5126,0.5204,0.5282,0.5482,0.5521,0.5521,0.5559,0.5559,0.5559,0.5598,0.5598,0.5637,0.5825,0.606,0.6257,0.6447,0.6633,0.6518,0.5715,0.5598,0.5598,0.5598,0.5598,0.5598,0.5598,0.5598,0.5598,0.5598,0.575,0.5864,0.5864,0.6103,0.6222,0.6222,0.6257,0.6261,0.6261,0.63,0.63,0.63,0.63,0.63,0.63,0.63,0.6261,0.6222,0.6222,0.6222,0.0,0.0,0.0,0.0,0.0,0.0,1.0255,0.0,1.0067,0.0,0.0,0.0,0.0,0.0,0.0,0.0,0.0,0.0,0.0,0.0,0.0,0.0,0.0,0.0,0.0,0.0,0.0,0.0,0.7019,0.6865,0.6788,0.6788,0.6633,0.6328,0.6289,0.6135,0.5789,0.5709,0.5515,0.5282,0.5207,0.5129,0.4979,0.4898,0.4859,0.4859,0.4779,0.474,0.474,0.474,0.474,0.474,0.474,0.4621,0.4384,0.4384,0.4462,0.4582,0.4582,0.4659,0.4779,0.4971,0.5168,0.5365,0.544,0.5479,0.5479,0.5559,0.5598,0.5676,0.5948,0.5986,0.6064,0.6289,0.6367,0.6367,0.6479,0.6556,0.6676,0.6753,0.6826,0.6788,0.6405,0.6367,0.6367,0.6367,0.6367,0.6367,0.6367,0.6367,0.6328,0.6177,0.6254,0.6254,0.6141,0.6331,0.649,0.649,0.649,0.6412,0.63,0.63,0.63,0.63,0.63,0.63,0.63,0.63,0.63,0.63,0.63,0.63,0.9846,0.0,0.0,0.0,0.0,0.0,0.0,0.0,0.0,0.0,0.0,0.0,0.0,0.0,0.0,0.0,0.0,0.0,0.0,0.0,0.0,0.0,0.0,0.0,0.0,0.0,0.0,0.7676,0.7407,0.7173,0.7057,0.7057,0.6942,0.6676,0.6637,0.6444,0.6096,0.598,0.5744,0.5476,0.5398,0.5285,0.5093,0.5093,0.5054,0.5018,0.5018,0.5018,0.5018,0.5018,0.5018,0.5018,0.5018,0.4857,0.4657,0.4579,0.4698,0.4854,0.4854,0.5012,0.5171,0.5323,0.5479,0.5637,0.5754,0.5792,0.5831,0.5906,0.5944,0.6022,0.6374,0.6451,0.6563,0.6907,0.698,0.698,0.7057,0.7096,0.7134,0.7134,0.7173,0.7211,0.7211,0.7057,0.6903,0.6903,0.6903,0.6903,0.6903,0.6903,0.6826,0.6714,0.6676,0.6637,0.649,0.6602,0.6676,0.6676,0.6676,0.6598,0.649,0.6451,0.6451,0.6374,0.6374,0.6335,0.63,0.63,0.63,0.63,0.63,0.63,0.0,0.0,0.0,1.0738,0.0,0.0,0.0,0.0,1.0513,0.0,0.0,0.0,0.0,0.0,0.0,0.0,0.0,0.0,0.0,0.0,0.0,0.0,0.0,0.0,0.0,0.0,0.0,0.8063,0.8063,0.7906,0.7484,0.748,0.7288,0.6903,0.6714,0.6602,0.6563,0.6135,0.5899,0.586,0.5673,0.5479,0.5282,0.5282,0.5168,0.5018,0.5018,0.5018,0.5018,0.5018,0.5018,0.5018,0.5018,0.5129,0.5243,0.5054,0.509,0.5282,0.5282,0.5401,0.5598,0.5598,0.5598,0.5676,0.6145,0.6261,0.6377,0.6753,0.6865,0.6865,0.6865,0.6865,0.6942,0.7142,0.718,0.7257,0.7446,0.7633,0.7783,0.7783,0.7944,0.8063,0.8063,0.7403,0.6903,0.6903,0.6903,0.6903,0.6903,0.6903,0.6903,0.6899,0.6899,0.6899,0.6865,0.6899,0.6899,0.6899,0.6899,0.6899,0.6865,0.6865,0.6788,0.6602,0.6602,0.649,0.63,0.63,0.63,0.63,0.63,0.63,0.0,0.0,1.055,1.0738,0.0,0.0,0.0,0.0,0.0,0.0,0.0,0.0,0.0,0.0,0.0,0.0,0.0,0.0,0.0,0.0,0.0,0.0,0.0,0.0,0.0,0.0,0.0,0.8513,0.8365,0.8174,0.791,0.7761,0.7565,0.7288,0.7103,0.6945,0.6788,0.6521,0.6293,0.618,0.5906,0.5712,0.5479,0.5479,0.5443,0.5404,0.5404,0.5404,0.5404,0.5404,0.5404,0.5404,0.5404,0.5443,0.5479,0.5285,0.5323,0.5479,0.5479,0.5634,0.5825,0.6025,0.6141,0.6331,0.6598,0.6714,0.6753,0.7022,0.7103,0.7176,0.7437,0.7514,0.7557,0.7757,0.7795,0.7834,0.8059,0.8131,0.8246,0.836,0.8437,0.8518,0.8518,0.8284,0.8016,0.7753,0.7676,0.7676,0.7676,0.7676,0.7638,0.7514,0.7514,0.7442,0.7326,0.7399,0.7442,0.7288,0.7288,0.7173,0.6903,0.6903,0.6865,0.6788,0.6788,0.6749,0.6714,0.6563,0.6486,0.6486,0.6377,0.63,1.0143,1.04,0.0,1.085,1.0999,0.0,1.1111,0.0,0.0,0.0,0.0,0.0,0.0,0.0,0.0,0.0,0.0,0.0,0.0,1.0513,0.0,0.0,0.0,0.0,0.0,0.0,0.9046,0.8932,0.8784,0.8594,0.0,0.0,0.7987,0.7714,0.745,0.7253,0.7134,0.683,0.6641,0.6525,0.6251,0.606,0.5831,0.575,0.5676,0.5598,0.5598,0.5598,0.5598,0.5598,0.5598,0.5598,0.5598,0.5637,0.5673,0.5479,0.5595,0.587,0.5948,0.6096,0.6286,0.6447,0.6641,0.6834,0.7057,0.7173,0.7249,0.745,0.7526,0.7603,0.794,0.8012,0.8093,0.836,0.8403,0.8479,0.867,0.8708,0.8746,0.8894,0.8894,0.8894,0.8894,0.8894,0.8784,0.8365,0.8255,0.8217,0.8217,0.814,0.8063,0.7902,0.7902,0.7868,0.7714,0.7825,0.7868,0.7714,0.7714,0.7599,0.7326,0.7253,0.7173,0.7134,0.7057,0.698,0.6903,0.6788,0.6714,0.6714,0.6563,0.6525]}]]